<?xml version="1.0" encoding="UTF-8" standalone="no" ?>
<gpx xmlns="http://www.topografix.com/GPX/1/1" xmlns:xsi="http://www.w3.org/2001/XMLSchema-instance" xsi:schemaLocation="http://www.topografix.com/GPX/1/1 http://www.topografix.com/GPX/1/1/gpx.xsd" version="1.1" creator="VisuGPX - https://www.visugpx.com">
  <metadata>
    <name>Course de la Résistance - circuit mini</name>
    <desc><![CDATA[Course de la Résistance - 8 mai 2018
circuit court
Mens Acarias Lavars Le Percy Banchet
3 cols]]></desc>
  </metadata>
  <wpt lat="44.81701" lon="5.75075">
    <ele>778</ele>
    <name><![CDATA[Course de la résistance - Circouit mini]]></name>
    <type><![CDATA[Generic]]></type>
  </wpt>
  <trk>
    <name><![CDATA[Course de la résistance - Circouit mini]]></name>
    <trkseg>
      <trkpt lat="44.81701" lon="5.75075">
        <ele>778</ele>
        <time>2017-11-22T12:20:29Z</time>
      </trkpt>
      <trkpt lat="44.81717" lon="5.75158">
        <ele>781</ele>
        <time>2017-11-22T12:20:39Z</time>
      </trkpt>
      <trkpt lat="44.81723" lon="5.75171">
        <ele>781</ele>
        <time>2017-11-22T12:20:46Z</time>
      </trkpt>
      <trkpt lat="44.81748" lon="5.75195">
        <ele>782</ele>
        <time>2017-11-22T12:20:48Z</time>
      </trkpt>
      <trkpt lat="44.81778" lon="5.75217">
        <ele>783</ele>
        <time>2017-11-22T12:20:51Z</time>
      </trkpt>
      <trkpt lat="44.81795" lon="5.75221">
        <ele>783</ele>
        <time>2017-11-22T12:21:03Z</time>
      </trkpt>
      <trkpt lat="44.81818" lon="5.75223">
        <ele>783</ele>
        <time>2017-11-22T12:21:08Z</time>
      </trkpt>
      <trkpt lat="44.8184" lon="5.75223">
        <ele>783</ele>
        <time>2017-11-22T12:21:23Z</time>
      </trkpt>
      <trkpt lat="44.81861" lon="5.75224">
        <ele>783</ele>
        <time>2017-11-22T12:21:35Z</time>
      </trkpt>
      <trkpt lat="44.81921" lon="5.75234">
        <ele>781</ele>
        <time>2017-11-22T12:21:40Z</time>
      </trkpt>
      <trkpt lat="44.81964" lon="5.75242">
        <ele>781</ele>
        <time>2017-11-22T12:21:50Z</time>
      </trkpt>
      <trkpt lat="44.8202" lon="5.75257">
        <ele>778</ele>
        <time>2017-11-22T12:22:10Z</time>
      </trkpt>
      <trkpt lat="44.8204" lon="5.75264">
        <ele>776</ele>
        <time>2017-11-22T12:22:14Z</time>
      </trkpt>
      <trkpt lat="44.82075" lon="5.75272">
        <ele>774</ele>
        <time>2017-11-22T12:22:24Z</time>
      </trkpt>
      <trkpt lat="44.82088" lon="5.75273">
        <ele>773</ele>
        <time>2017-11-22T12:22:29Z</time>
      </trkpt>
      <trkpt lat="44.82096" lon="5.75271">
        <ele>773</ele>
        <time>2017-11-22T12:22:43Z</time>
      </trkpt>
      <trkpt lat="44.82105" lon="5.7527">
        <ele>773</ele>
        <time>2017-11-22T12:22:49Z</time>
      </trkpt>
      <trkpt lat="44.82116" lon="5.75263">
        <ele>774</ele>
        <time>2017-11-22T12:23:04Z</time>
      </trkpt>
      <trkpt lat="44.82123" lon="5.75251">
        <ele>774</ele>
        <time>2017-11-22T12:23:21Z</time>
      </trkpt>
      <trkpt lat="44.82126" lon="5.75233">
        <ele>777</ele>
        <time>2017-11-22T12:23:25Z</time>
      </trkpt>
      <trkpt lat="44.82114" lon="5.75136">
        <ele>779</ele>
        <time>2017-11-22T12:23:28Z</time>
      </trkpt>
      <trkpt lat="44.82097" lon="5.75028">
        <ele>780</ele>
        <time>2017-11-22T12:23:47Z</time>
      </trkpt>
      <trkpt lat="44.82093" lon="5.75002">
        <ele>777</ele>
        <time>2017-11-22T12:24:06Z</time>
      </trkpt>
      <trkpt lat="44.82092" lon="5.74963">
        <ele>780</ele>
        <time>2017-11-22T12:24:10Z</time>
      </trkpt>
      <trkpt lat="44.82096" lon="5.74928">
        <ele>779</ele>
        <time>2017-11-22T12:24:29Z</time>
      </trkpt>
      <trkpt lat="44.82103" lon="5.74903">
        <ele>780</ele>
        <time>2017-11-22T12:24:43Z</time>
      </trkpt>
      <trkpt lat="44.82114" lon="5.7487">
        <ele>782</ele>
        <time>2017-11-22T12:24:49Z</time>
      </trkpt>
      <trkpt lat="44.82128" lon="5.74846">
        <ele>783</ele>
        <time>2017-11-22T12:25:01Z</time>
      </trkpt>
      <trkpt lat="44.82145" lon="5.74827">
        <ele>783</ele>
        <time>2017-11-22T12:25:08Z</time>
      </trkpt>
      <trkpt lat="44.82166" lon="5.74811">
        <ele>784</ele>
        <time>2017-11-22T12:25:27Z</time>
      </trkpt>
      <trkpt lat="44.82214" lon="5.74778">
        <ele>787</ele>
        <time>2017-11-22T12:25:38Z</time>
      </trkpt>
      <trkpt lat="44.8224" lon="5.74766">
        <ele>786</ele>
        <time>2017-11-22T12:25:52Z</time>
      </trkpt>
      <trkpt lat="44.82266" lon="5.74762">
        <ele>788</ele>
        <time>2017-11-22T12:26:08Z</time>
      </trkpt>
      <trkpt lat="44.82292" lon="5.74765">
        <ele>789</ele>
        <time>2017-11-22T12:26:14Z</time>
      </trkpt>
      <trkpt lat="44.82316" lon="5.74775">
        <ele>789</ele>
        <time>2017-11-22T12:26:17Z</time>
      </trkpt>
      <trkpt lat="44.82369" lon="5.74799">
        <ele>792</ele>
        <time>2017-11-22T12:26:30Z</time>
      </trkpt>
      <trkpt lat="44.82422" lon="5.74822">
        <ele>795</ele>
        <time>2017-11-22T12:26:38Z</time>
      </trkpt>
      <trkpt lat="44.82449" lon="5.74834">
        <ele>801</ele>
        <time>2017-11-22T12:26:45Z</time>
      </trkpt>
      <trkpt lat="44.82483" lon="5.74846">
        <ele>801</ele>
        <time>2017-11-22T12:26:53Z</time>
      </trkpt>
      <trkpt lat="44.82548" lon="5.74862">
        <ele>803</ele>
        <time>2017-11-22T12:26:59Z</time>
      </trkpt>
      <trkpt lat="44.82576" lon="5.74868">
        <ele>804</ele>
        <time>2017-11-22T12:27:07Z</time>
      </trkpt>
      <trkpt lat="44.82589" lon="5.74873">
        <ele>802</ele>
        <time>2017-11-22T12:27:20Z</time>
      </trkpt>
      <trkpt lat="44.826" lon="5.7488">
        <ele>803</ele>
        <time>2017-11-22T12:27:34Z</time>
      </trkpt>
      <trkpt lat="44.82611" lon="5.74889">
        <ele>803</ele>
        <time>2017-11-22T12:27:44Z</time>
      </trkpt>
      <trkpt lat="44.82624" lon="5.74905">
        <ele>803</ele>
        <time>2017-11-22T12:28:04Z</time>
      </trkpt>
      <trkpt lat="44.82653" lon="5.7495">
        <ele>810</ele>
        <time>2017-11-22T12:28:12Z</time>
      </trkpt>
      <trkpt lat="44.82665" lon="5.74962">
        <ele>811</ele>
        <time>2017-11-22T12:28:15Z</time>
      </trkpt>
      <trkpt lat="44.82683" lon="5.74976">
        <ele>809</ele>
        <time>2017-11-22T12:28:17Z</time>
      </trkpt>
      <trkpt lat="44.82709" lon="5.74993">
        <ele>809</ele>
        <time>2017-11-22T12:28:33Z</time>
      </trkpt>
      <trkpt lat="44.82734" lon="5.75013">
        <ele>813</ele>
        <time>2017-11-22T12:28:49Z</time>
      </trkpt>
      <trkpt lat="44.82745" lon="5.75026">
        <ele>814</ele>
        <time>2017-11-22T12:29:03Z</time>
      </trkpt>
      <trkpt lat="44.82754" lon="5.75042">
        <ele>811</ele>
        <time>2017-11-22T12:29:22Z</time>
      </trkpt>
      <trkpt lat="44.82767" lon="5.75079">
        <ele>813</ele>
        <time>2017-11-22T12:29:30Z</time>
      </trkpt>
      <trkpt lat="44.82771" lon="5.75118">
        <ele>817</ele>
        <time>2017-11-22T12:29:50Z</time>
      </trkpt>
      <trkpt lat="44.82772" lon="5.75139">
        <ele>819</ele>
        <time>2017-11-22T12:29:52Z</time>
      </trkpt>
      <trkpt lat="44.82777" lon="5.75168">
        <ele>825</ele>
        <time>2017-11-22T12:30:11Z</time>
      </trkpt>
      <trkpt lat="44.82785" lon="5.75184">
        <ele>825</ele>
        <time>2017-11-22T12:30:27Z</time>
      </trkpt>
      <trkpt lat="44.82796" lon="5.75198">
        <ele>825</ele>
        <time>2017-11-22T12:30:42Z</time>
      </trkpt>
      <trkpt lat="44.82808" lon="5.75209">
        <ele>825</ele>
        <time>2017-11-22T12:30:45Z</time>
      </trkpt>
      <trkpt lat="44.82822" lon="5.75216">
        <ele>825</ele>
        <time>2017-11-22T12:30:47Z</time>
      </trkpt>
      <trkpt lat="44.82852" lon="5.75225">
        <ele>823</ele>
        <time>2017-11-22T12:31:05Z</time>
      </trkpt>
      <trkpt lat="44.82874" lon="5.75232">
        <ele>823</ele>
        <time>2017-11-22T12:31:08Z</time>
      </trkpt>
      <trkpt lat="44.82897" lon="5.75236">
        <ele>825</ele>
        <time>2017-11-22T12:31:27Z</time>
      </trkpt>
      <trkpt lat="44.82912" lon="5.75236">
        <ele>826</ele>
        <time>2017-11-22T12:31:42Z</time>
      </trkpt>
      <trkpt lat="44.82927" lon="5.75231">
        <ele>829</ele>
        <time>2017-11-22T12:31:53Z</time>
      </trkpt>
      <trkpt lat="44.82941" lon="5.75223">
        <ele>830</ele>
        <time>2017-11-22T12:32:11Z</time>
      </trkpt>
      <trkpt lat="44.82954" lon="5.75211">
        <ele>830</ele>
        <time>2017-11-22T12:32:13Z</time>
      </trkpt>
      <trkpt lat="44.82965" lon="5.75196">
        <ele>830</ele>
        <time>2017-11-22T12:32:18Z</time>
      </trkpt>
      <trkpt lat="44.82976" lon="5.75179">
        <ele>830</ele>
        <time>2017-11-22T12:32:35Z</time>
      </trkpt>
      <trkpt lat="44.82997" lon="5.75146">
        <ele>826</ele>
        <time>2017-11-22T12:32:46Z</time>
      </trkpt>
      <trkpt lat="44.83009" lon="5.75132">
        <ele>830</ele>
        <time>2017-11-22T12:33:05Z</time>
      </trkpt>
      <trkpt lat="44.83023" lon="5.75121">
        <ele>830</ele>
        <time>2017-11-22T12:33:13Z</time>
      </trkpt>
      <trkpt lat="44.83038" lon="5.75113">
        <ele>830</ele>
        <time>2017-11-22T12:33:23Z</time>
      </trkpt>
      <trkpt lat="44.83054" lon="5.75108">
        <ele>831</ele>
        <time>2017-11-22T12:33:35Z</time>
      </trkpt>
      <trkpt lat="44.83069" lon="5.75106">
        <ele>831</ele>
        <time>2017-11-22T12:33:50Z</time>
      </trkpt>
      <trkpt lat="44.83085" lon="5.75107">
        <ele>833</ele>
        <time>2017-11-22T12:34:02Z</time>
      </trkpt>
      <trkpt lat="44.83115" lon="5.75118">
        <ele>835</ele>
        <time>2017-11-22T12:34:06Z</time>
      </trkpt>
      <trkpt lat="44.83141" lon="5.75137">
        <ele>837</ele>
        <time>2017-11-22T12:34:23Z</time>
      </trkpt>
      <trkpt lat="44.83188" lon="5.75184">
        <ele>847</ele>
        <time>2017-11-22T12:34:35Z</time>
      </trkpt>
      <trkpt lat="44.83201" lon="5.75192">
        <ele>847</ele>
        <time>2017-11-22T12:34:54Z</time>
      </trkpt>
      <trkpt lat="44.83215" lon="5.75196">
        <ele>848</ele>
        <time>2017-11-22T12:34:58Z</time>
      </trkpt>
      <trkpt lat="44.83228" lon="5.75194">
        <ele>847</ele>
        <time>2017-11-22T12:35:00Z</time>
      </trkpt>
      <trkpt lat="44.83241" lon="5.75189">
        <ele>847</ele>
        <time>2017-11-22T12:35:20Z</time>
      </trkpt>
      <trkpt lat="44.83255" lon="5.75177">
        <ele>847</ele>
        <time>2017-11-22T12:35:27Z</time>
      </trkpt>
      <trkpt lat="44.83267" lon="5.7516">
        <ele>846</ele>
        <time>2017-11-22T12:35:36Z</time>
      </trkpt>
      <trkpt lat="44.83297" lon="5.75112">
        <ele>849</ele>
        <time>2017-11-22T12:35:43Z</time>
      </trkpt>
      <trkpt lat="44.83303" lon="5.75097">
        <ele>850</ele>
        <time>2017-11-22T12:35:52Z</time>
      </trkpt>
      <trkpt lat="44.83306" lon="5.7508">
        <ele>850</ele>
        <time>2017-11-22T12:36:09Z</time>
      </trkpt>
      <trkpt lat="44.83304" lon="5.75044">
        <ele>849</ele>
        <time>2017-11-22T12:36:18Z</time>
      </trkpt>
      <trkpt lat="44.83293" lon="5.74967">
        <ele>851</ele>
        <time>2017-11-22T12:36:28Z</time>
      </trkpt>
      <trkpt lat="44.83288" lon="5.74919">
        <ele>851</ele>
        <time>2017-11-22T12:36:47Z</time>
      </trkpt>
      <trkpt lat="44.83291" lon="5.74878">
        <ele>853</ele>
        <time>2017-11-22T12:36:58Z</time>
      </trkpt>
      <trkpt lat="44.83295" lon="5.74858">
        <ele>853</ele>
        <time>2017-11-22T12:37:00Z</time>
      </trkpt>
      <trkpt lat="44.83305" lon="5.74822">
        <ele>854</ele>
        <time>2017-11-22T12:37:11Z</time>
      </trkpt>
      <trkpt lat="44.83321" lon="5.74788">
        <ele>855</ele>
        <time>2017-11-22T12:37:13Z</time>
      </trkpt>
      <trkpt lat="44.83336" lon="5.74755">
        <ele>860</ele>
        <time>2017-11-22T12:37:25Z</time>
      </trkpt>
      <trkpt lat="44.83347" lon="5.7472">
        <ele>863</ele>
        <time>2017-11-22T12:37:28Z</time>
      </trkpt>
      <trkpt lat="44.83352" lon="5.74694">
        <ele>864</ele>
        <time>2017-11-22T12:37:30Z</time>
      </trkpt>
      <trkpt lat="44.83358" lon="5.74663">
        <ele>865</ele>
        <time>2017-11-22T12:37:34Z</time>
      </trkpt>
      <trkpt lat="44.83359" lon="5.74641">
        <ele>865</ele>
        <time>2017-11-22T12:37:52Z</time>
      </trkpt>
      <trkpt lat="44.83359" lon="5.74589">
        <ele>865</ele>
        <time>2017-11-22T12:38:12Z</time>
      </trkpt>
      <trkpt lat="44.8336" lon="5.74559">
        <ele>865</ele>
        <time>2017-11-22T12:38:17Z</time>
      </trkpt>
      <trkpt lat="44.83363" lon="5.74533">
        <ele>866</ele>
        <time>2017-11-22T12:38:24Z</time>
      </trkpt>
      <trkpt lat="44.83378" lon="5.74488">
        <ele>866</ele>
        <time>2017-11-22T12:38:26Z</time>
      </trkpt>
      <trkpt lat="44.83389" lon="5.74464">
        <ele>867</ele>
        <time>2017-11-22T12:38:28Z</time>
      </trkpt>
      <trkpt lat="44.83409" lon="5.74436">
        <ele>868</ele>
        <time>2017-11-22T12:38:48Z</time>
      </trkpt>
      <trkpt lat="44.83424" lon="5.74413">
        <ele>872</ele>
        <time>2017-11-22T12:39:00Z</time>
      </trkpt>
      <trkpt lat="44.83434" lon="5.74396">
        <ele>874</ele>
        <time>2017-11-22T12:39:17Z</time>
      </trkpt>
      <trkpt lat="44.83446" lon="5.74359">
        <ele>875</ele>
        <time>2017-11-22T12:39:33Z</time>
      </trkpt>
      <trkpt lat="44.83451" lon="5.74326">
        <ele>876</ele>
        <time>2017-11-22T12:39:43Z</time>
      </trkpt>
      <trkpt lat="44.83451" lon="5.74268">
        <ele>877</ele>
        <time>2017-11-22T12:39:45Z</time>
      </trkpt>
      <trkpt lat="44.83454" lon="5.7422">
        <ele>879</ele>
        <time>2017-11-22T12:40:05Z</time>
      </trkpt>
      <trkpt lat="44.83459" lon="5.74198">
        <ele>879</ele>
        <time>2017-11-22T12:40:07Z</time>
      </trkpt>
      <trkpt lat="44.83469" lon="5.74166">
        <ele>881</ele>
        <time>2017-11-22T12:40:19Z</time>
      </trkpt>
      <trkpt lat="44.83493" lon="5.7411">
        <ele>882</ele>
        <time>2017-11-22T12:40:26Z</time>
      </trkpt>
      <trkpt lat="44.83513" lon="5.74063">
        <ele>885</ele>
        <time>2017-11-22T12:40:46Z</time>
      </trkpt>
      <trkpt lat="44.83523" lon="5.7404">
        <ele>885</ele>
        <time>2017-11-22T12:40:54Z</time>
      </trkpt>
      <trkpt lat="44.83539" lon="5.73992">
        <ele>887</ele>
        <time>2017-11-22T12:41:05Z</time>
      </trkpt>
      <trkpt lat="44.83522" lon="5.7399">
        <ele>886</ele>
        <time>2017-11-22T12:41:16Z</time>
      </trkpt>
      <trkpt lat="44.83501" lon="5.73995">
        <ele>885</ele>
        <time>2017-11-22T12:41:20Z</time>
      </trkpt>
      <trkpt lat="44.83522" lon="5.7399">
        <ele>886</ele>
        <time>2017-11-22T12:41:36Z</time>
      </trkpt>
      <trkpt lat="44.83539" lon="5.73992">
        <ele>887</ele>
        <time>2017-11-22T12:41:41Z</time>
      </trkpt>
      <trkpt lat="44.83548" lon="5.7395">
        <ele>888</ele>
        <time>2017-11-22T12:41:48Z</time>
      </trkpt>
      <trkpt lat="44.83557" lon="5.73897">
        <ele>891</ele>
        <time>2017-11-22T12:41:58Z</time>
      </trkpt>
      <trkpt lat="44.83569" lon="5.73833">
        <ele>893</ele>
        <time>2017-11-22T12:42:15Z</time>
      </trkpt>
      <trkpt lat="44.83578" lon="5.73791">
        <ele>894</ele>
        <time>2017-11-22T12:42:18Z</time>
      </trkpt>
      <trkpt lat="44.83586" lon="5.73772">
        <ele>895</ele>
        <time>2017-11-22T12:42:32Z</time>
      </trkpt>
      <trkpt lat="44.83597" lon="5.73756">
        <ele>895</ele>
        <time>2017-11-22T12:42:38Z</time>
      </trkpt>
      <trkpt lat="44.8361" lon="5.73746">
        <ele>893</ele>
        <time>2017-11-22T12:42:41Z</time>
      </trkpt>
      <trkpt lat="44.83622" lon="5.7374">
        <ele>892</ele>
        <time>2017-11-22T12:42:46Z</time>
      </trkpt>
      <trkpt lat="44.83636" lon="5.73738">
        <ele>891</ele>
        <time>2017-11-22T12:43:02Z</time>
      </trkpt>
      <trkpt lat="44.83649" lon="5.73738">
        <ele>891</ele>
        <time>2017-11-22T12:43:10Z</time>
      </trkpt>
      <trkpt lat="44.83664" lon="5.73744">
        <ele>892</ele>
        <time>2017-11-22T12:43:13Z</time>
      </trkpt>
      <trkpt lat="44.83678" lon="5.73753">
        <ele>892</ele>
        <time>2017-11-22T12:43:32Z</time>
      </trkpt>
      <trkpt lat="44.83715" lon="5.73778">
        <ele>892</ele>
        <time>2017-11-22T12:43:39Z</time>
      </trkpt>
      <trkpt lat="44.8373" lon="5.73786">
        <ele>892</ele>
        <time>2017-11-22T12:43:53Z</time>
      </trkpt>
      <trkpt lat="44.83742" lon="5.73791">
        <ele>892</ele>
        <time>2017-11-22T12:43:56Z</time>
      </trkpt>
      <trkpt lat="44.83737" lon="5.73777">
        <ele>891</ele>
        <time>2017-11-22T12:44:01Z</time>
      </trkpt>
      <trkpt lat="44.83712" lon="5.73759">
        <ele>891</ele>
        <time>2017-11-22T12:44:07Z</time>
      </trkpt>
      <trkpt lat="44.83691" lon="5.73744">
        <ele>886</ele>
        <time>2017-11-22T12:44:18Z</time>
      </trkpt>
      <trkpt lat="44.83662" lon="5.73716">
        <ele>890</ele>
        <time>2017-11-22T12:44:25Z</time>
      </trkpt>
      <trkpt lat="44.83647" lon="5.73695">
        <ele>889</ele>
        <time>2017-11-22T12:44:40Z</time>
      </trkpt>
      <trkpt lat="44.83634" lon="5.7367">
        <ele>889</ele>
        <time>2017-11-22T12:44:43Z</time>
      </trkpt>
      <trkpt lat="44.83622" lon="5.73601">
        <ele>886</ele>
        <time>2017-11-22T12:44:47Z</time>
      </trkpt>
      <trkpt lat="44.83621" lon="5.73571">
        <ele>884</ele>
        <time>2017-11-22T12:45:01Z</time>
      </trkpt>
      <trkpt lat="44.83622" lon="5.73556">
        <ele>884</ele>
        <time>2017-11-22T12:45:09Z</time>
      </trkpt>
      <trkpt lat="44.83625" lon="5.73543">
        <ele>884</ele>
        <time>2017-11-22T12:45:25Z</time>
      </trkpt>
      <trkpt lat="44.83631" lon="5.7353">
        <ele>883</ele>
        <time>2017-11-22T12:45:28Z</time>
      </trkpt>
      <trkpt lat="44.83641" lon="5.73514">
        <ele>883</ele>
        <time>2017-11-22T12:45:40Z</time>
      </trkpt>
      <trkpt lat="44.83707" lon="5.73438">
        <ele>879</ele>
        <time>2017-11-22T12:45:46Z</time>
      </trkpt>
      <trkpt lat="44.83741" lon="5.73397">
        <ele>879</ele>
        <time>2017-11-22T12:46:00Z</time>
      </trkpt>
      <trkpt lat="44.8376" lon="5.73377">
        <ele>876</ele>
        <time>2017-11-22T12:46:14Z</time>
      </trkpt>
      <trkpt lat="44.83788" lon="5.73354">
        <ele>876</ele>
        <time>2017-11-22T12:46:18Z</time>
      </trkpt>
      <trkpt lat="44.83821" lon="5.73335">
        <ele>876</ele>
        <time>2017-11-22T12:46:25Z</time>
      </trkpt>
      <trkpt lat="44.83846" lon="5.73323">
        <ele>878</ele>
        <time>2017-11-22T12:46:29Z</time>
      </trkpt>
      <trkpt lat="44.83861" lon="5.73297">
        <ele>880</ele>
        <time>2017-11-22T12:46:39Z</time>
      </trkpt>
      <trkpt lat="44.83876" lon="5.73271">
        <ele>881</ele>
        <time>2017-11-22T12:46:45Z</time>
      </trkpt>
      <trkpt lat="44.8389" lon="5.73254">
        <ele>881</ele>
        <time>2017-11-22T12:47:03Z</time>
      </trkpt>
      <trkpt lat="44.83919" lon="5.73223">
        <ele>885</ele>
        <time>2017-11-22T12:47:18Z</time>
      </trkpt>
      <trkpt lat="44.83943" lon="5.73191">
        <ele>887</ele>
        <time>2017-11-22T12:47:31Z</time>
      </trkpt>
      <trkpt lat="44.83958" lon="5.73159">
        <ele>891</ele>
        <time>2017-11-22T12:47:44Z</time>
      </trkpt>
      <trkpt lat="44.83966" lon="5.73133">
        <ele>891</ele>
        <time>2017-11-22T12:47:57Z</time>
      </trkpt>
      <trkpt lat="44.8397" lon="5.73096">
        <ele>890</ele>
        <time>2017-11-22T12:48:00Z</time>
      </trkpt>
      <trkpt lat="44.83975" lon="5.73053">
        <ele>892</ele>
        <time>2017-11-22T12:48:09Z</time>
      </trkpt>
      <trkpt lat="44.83986" lon="5.73013">
        <ele>892</ele>
        <time>2017-11-22T12:48:29Z</time>
      </trkpt>
      <trkpt lat="44.84005" lon="5.72947">
        <ele>885</ele>
        <time>2017-11-22T12:48:48Z</time>
      </trkpt>
      <trkpt lat="44.84014" lon="5.72914">
        <ele>886</ele>
        <time>2017-11-22T12:48:58Z</time>
      </trkpt>
      <trkpt lat="44.84021" lon="5.72869">
        <ele>882</ele>
        <time>2017-11-22T12:49:13Z</time>
      </trkpt>
      <trkpt lat="44.84038" lon="5.72757">
        <ele>878</ele>
        <time>2017-11-22T12:49:29Z</time>
      </trkpt>
      <trkpt lat="44.84047" lon="5.72683">
        <ele>874</ele>
        <time>2017-11-22T12:49:48Z</time>
      </trkpt>
      <trkpt lat="44.84051" lon="5.72644">
        <ele>872</ele>
        <time>2017-11-22T12:50:06Z</time>
      </trkpt>
      <trkpt lat="44.84059" lon="5.72575">
        <ele>868</ele>
        <time>2017-11-22T12:50:13Z</time>
      </trkpt>
      <trkpt lat="44.84055" lon="5.72506">
        <ele>866</ele>
        <time>2017-11-22T12:50:19Z</time>
      </trkpt>
      <trkpt lat="44.84043" lon="5.7245">
        <ele>861</ele>
        <time>2017-11-22T12:50:32Z</time>
      </trkpt>
      <trkpt lat="44.84044" lon="5.72426">
        <ele>860</ele>
        <time>2017-11-22T12:50:35Z</time>
      </trkpt>
      <trkpt lat="44.84051" lon="5.72414">
        <ele>856</ele>
        <time>2017-11-22T12:50:55Z</time>
      </trkpt>
      <trkpt lat="44.84043" lon="5.72309">
        <ele>854</ele>
        <time>2017-11-22T12:51:06Z</time>
      </trkpt>
      <trkpt lat="44.84038" lon="5.72195">
        <ele>854</ele>
        <time>2017-11-22T12:51:11Z</time>
      </trkpt>
      <trkpt lat="44.84031" lon="5.7209">
        <ele>855</ele>
        <time>2017-11-22T12:51:16Z</time>
      </trkpt>
      <trkpt lat="44.84026" lon="5.72064">
        <ele>856</ele>
        <time>2017-11-22T12:51:19Z</time>
      </trkpt>
      <trkpt lat="44.83988" lon="5.72012">
        <ele>856</ele>
        <time>2017-11-22T12:51:33Z</time>
      </trkpt>
      <trkpt lat="44.83965" lon="5.71977">
        <ele>856</ele>
        <time>2017-11-22T12:51:36Z</time>
      </trkpt>
      <trkpt lat="44.83998" lon="5.71939">
        <ele>857</ele>
        <time>2017-11-22T12:51:48Z</time>
      </trkpt>
      <trkpt lat="44.84031" lon="5.71873">
        <ele>858</ele>
        <time>2017-11-22T12:52:02Z</time>
      </trkpt>
      <trkpt lat="44.84044" lon="5.71832">
        <ele>860</ele>
        <time>2017-11-22T12:52:22Z</time>
      </trkpt>
      <trkpt lat="44.8405" lon="5.71803">
        <ele>860</ele>
        <time>2017-11-22T12:52:34Z</time>
      </trkpt>
      <trkpt lat="44.84055" lon="5.71763">
        <ele>861</ele>
        <time>2017-11-22T12:52:54Z</time>
      </trkpt>
      <trkpt lat="44.84052" lon="5.71641">
        <ele>867</ele>
        <time>2017-11-22T12:53:07Z</time>
      </trkpt>
      <trkpt lat="44.84045" lon="5.71323">
        <ele>879</ele>
        <time>2017-11-22T12:53:24Z</time>
      </trkpt>
      <trkpt lat="44.84044" lon="5.7124">
        <ele>883</ele>
        <time>2017-11-22T12:53:41Z</time>
      </trkpt>
      <trkpt lat="44.84041" lon="5.71203">
        <ele>883</ele>
        <time>2017-11-22T12:53:59Z</time>
      </trkpt>
      <trkpt lat="44.84033" lon="5.71168">
        <ele>883</ele>
        <time>2017-11-22T12:54:13Z</time>
      </trkpt>
      <trkpt lat="44.8401" lon="5.71086">
        <ele>882</ele>
        <time>2017-11-22T12:54:26Z</time>
      </trkpt>
      <trkpt lat="44.84006" lon="5.71061">
        <ele>883</ele>
        <time>2017-11-22T12:54:32Z</time>
      </trkpt>
      <trkpt lat="44.8401" lon="5.71015">
        <ele>885</ele>
        <time>2017-11-22T12:54:40Z</time>
      </trkpt>
      <trkpt lat="44.84018" lon="5.7099">
        <ele>885</ele>
        <time>2017-11-22T12:54:43Z</time>
      </trkpt>
      <trkpt lat="44.84031" lon="5.70945">
        <ele>884</ele>
        <time>2017-11-22T12:54:50Z</time>
      </trkpt>
      <trkpt lat="44.84035" lon="5.70909">
        <ele>882</ele>
        <time>2017-11-22T12:54:59Z</time>
      </trkpt>
      <trkpt lat="44.84035" lon="5.70877">
        <ele>881</ele>
        <time>2017-11-22T12:55:10Z</time>
      </trkpt>
      <trkpt lat="44.8403" lon="5.70845">
        <ele>882</ele>
        <time>2017-11-22T12:55:30Z</time>
      </trkpt>
      <trkpt lat="44.8401" lon="5.7076">
        <ele>880</ele>
        <time>2017-11-22T12:55:40Z</time>
      </trkpt>
      <trkpt lat="44.84006" lon="5.70713">
        <ele>874</ele>
        <time>2017-11-22T12:55:54Z</time>
      </trkpt>
      <trkpt lat="44.84007" lon="5.70632">
        <ele>870</ele>
        <time>2017-11-22T12:56:00Z</time>
      </trkpt>
      <trkpt lat="44.84008" lon="5.70523">
        <ele>866</ele>
        <time>2017-11-22T12:56:19Z</time>
      </trkpt>
      <trkpt lat="44.84009" lon="5.70488">
        <ele>865</ele>
        <time>2017-11-22T12:56:37Z</time>
      </trkpt>
      <trkpt lat="44.84012" lon="5.70454">
        <ele>861</ele>
        <time>2017-11-22T12:56:44Z</time>
      </trkpt>
      <trkpt lat="44.8402" lon="5.70417">
        <ele>860</ele>
        <time>2017-11-22T12:56:55Z</time>
      </trkpt>
      <trkpt lat="44.84034" lon="5.70379">
        <ele>857</ele>
        <time>2017-11-22T12:57:12Z</time>
      </trkpt>
      <trkpt lat="44.84116" lon="5.70182">
        <ele>852</ele>
        <time>2017-11-22T12:57:32Z</time>
      </trkpt>
      <trkpt lat="44.84171" lon="5.70052">
        <ele>840</ele>
        <time>2017-11-22T12:57:38Z</time>
      </trkpt>
      <trkpt lat="44.84197" lon="5.69986">
        <ele>842</ele>
        <time>2017-11-22T12:57:40Z</time>
      </trkpt>
      <trkpt lat="44.84218" lon="5.69933">
        <ele>840</ele>
        <time>2017-11-22T12:57:55Z</time>
      </trkpt>
      <trkpt lat="44.84233" lon="5.69903">
        <ele>841</ele>
        <time>2017-11-22T12:57:57Z</time>
      </trkpt>
      <trkpt lat="44.84253" lon="5.69872">
        <ele>829</ele>
        <time>2017-11-22T12:58:06Z</time>
      </trkpt>
      <trkpt lat="44.84273" lon="5.69849">
        <ele>829</ele>
        <time>2017-11-22T12:58:25Z</time>
      </trkpt>
      <trkpt lat="44.84296" lon="5.6983">
        <ele>829</ele>
        <time>2017-11-22T12:58:28Z</time>
      </trkpt>
      <trkpt lat="44.84479" lon="5.69692">
        <ele>811</ele>
        <time>2017-11-22T12:58:35Z</time>
      </trkpt>
      <trkpt lat="44.84614" lon="5.69591">
        <ele>799</ele>
        <time>2017-11-22T12:58:47Z</time>
      </trkpt>
      <trkpt lat="44.84668" lon="5.69552">
        <ele>792</ele>
        <time>2017-11-22T12:58:53Z</time>
      </trkpt>
      <trkpt lat="44.84684" lon="5.69538">
        <ele>792</ele>
        <time>2017-11-22T12:58:57Z</time>
      </trkpt>
      <trkpt lat="44.84713" lon="5.69501">
        <ele>790</ele>
        <time>2017-11-22T12:59:12Z</time>
      </trkpt>
      <trkpt lat="44.8475" lon="5.69426">
        <ele>794</ele>
        <time>2017-11-22T12:59:31Z</time>
      </trkpt>
      <trkpt lat="44.84768" lon="5.69396">
        <ele>790</ele>
        <time>2017-11-22T12:59:35Z</time>
      </trkpt>
      <trkpt lat="44.84789" lon="5.69371">
        <ele>790</ele>
        <time>2017-11-22T12:59:54Z</time>
      </trkpt>
      <trkpt lat="44.84939" lon="5.69229">
        <ele>779</ele>
        <time>2017-11-22T13:00:04Z</time>
      </trkpt>
      <trkpt lat="44.84967" lon="5.69209">
        <ele>779</ele>
        <time>2017-11-22T13:00:17Z</time>
      </trkpt>
      <trkpt lat="44.84979" lon="5.69205">
        <ele>779</ele>
        <time>2017-11-22T13:00:26Z</time>
      </trkpt>
      <trkpt lat="44.84996" lon="5.69205">
        <ele>778</ele>
        <time>2017-11-22T13:00:41Z</time>
      </trkpt>
      <trkpt lat="44.85011" lon="5.69211">
        <ele>771</ele>
        <time>2017-11-22T13:00:47Z</time>
      </trkpt>
      <trkpt lat="44.85037" lon="5.69221">
        <ele>769</ele>
        <time>2017-11-22T13:01:05Z</time>
      </trkpt>
      <trkpt lat="44.85056" lon="5.69224">
        <ele>767</ele>
        <time>2017-11-22T13:01:23Z</time>
      </trkpt>
      <trkpt lat="44.85077" lon="5.6922">
        <ele>767</ele>
        <time>2017-11-22T13:01:40Z</time>
      </trkpt>
      <trkpt lat="44.85136" lon="5.69193">
        <ele>759</ele>
        <time>2017-11-22T13:01:58Z</time>
      </trkpt>
      <trkpt lat="44.85153" lon="5.69177">
        <ele>758</ele>
        <time>2017-11-22T13:02:12Z</time>
      </trkpt>
      <trkpt lat="44.85167" lon="5.69157">
        <ele>754</ele>
        <time>2017-11-22T13:02:18Z</time>
      </trkpt>
      <trkpt lat="44.85182" lon="5.69116">
        <ele>754</ele>
        <time>2017-11-22T13:02:37Z</time>
      </trkpt>
      <trkpt lat="44.85198" lon="5.69074">
        <ele>762</ele>
        <time>2017-11-22T13:02:49Z</time>
      </trkpt>
      <trkpt lat="44.85214" lon="5.69043">
        <ele>761</ele>
        <time>2017-11-22T13:03:09Z</time>
      </trkpt>
      <trkpt lat="44.85227" lon="5.69024">
        <ele>760</ele>
        <time>2017-11-22T13:03:27Z</time>
      </trkpt>
      <trkpt lat="44.85245" lon="5.69004">
        <ele>756</ele>
        <time>2017-11-22T13:03:39Z</time>
      </trkpt>
      <trkpt lat="44.85334" lon="5.68913">
        <ele>746</ele>
        <time>2017-11-22T13:03:46Z</time>
      </trkpt>
      <trkpt lat="44.85405" lon="5.68843">
        <ele>746</ele>
        <time>2017-11-22T13:03:53Z</time>
      </trkpt>
      <trkpt lat="44.85431" lon="5.68815">
        <ele>744</ele>
        <time>2017-11-22T13:03:59Z</time>
      </trkpt>
      <trkpt lat="44.85489" lon="5.68757">
        <ele>740</ele>
        <time>2017-11-22T13:04:12Z</time>
      </trkpt>
      <trkpt lat="44.8553" lon="5.68713">
        <ele>737</ele>
        <time>2017-11-22T13:04:18Z</time>
      </trkpt>
      <trkpt lat="44.85571" lon="5.68673">
        <ele>732</ele>
        <time>2017-11-22T13:04:27Z</time>
      </trkpt>
      <trkpt lat="44.85615" lon="5.68622">
        <ele>727</ele>
        <time>2017-11-22T13:04:37Z</time>
      </trkpt>
      <trkpt lat="44.85635" lon="5.68593">
        <ele>725</ele>
        <time>2017-11-22T13:04:48Z</time>
      </trkpt>
      <trkpt lat="44.85661" lon="5.68562">
        <ele>732</ele>
        <time>2017-11-22T13:04:56Z</time>
      </trkpt>
      <trkpt lat="44.85741" lon="5.68467">
        <ele>723</ele>
        <time>2017-11-22T13:05:02Z</time>
      </trkpt>
      <trkpt lat="44.85775" lon="5.68424">
        <ele>707</ele>
        <time>2017-11-22T13:05:06Z</time>
      </trkpt>
      <trkpt lat="44.85791" lon="5.6839">
        <ele>711</ele>
        <time>2017-11-22T13:05:23Z</time>
      </trkpt>
      <trkpt lat="44.85793" lon="5.6838">
        <ele>711</ele>
        <time>2017-11-22T13:05:42Z</time>
      </trkpt>
      <trkpt lat="44.85802" lon="5.68358">
        <ele>710</ele>
        <time>2017-11-22T13:05:57Z</time>
      </trkpt>
      <trkpt lat="44.85819" lon="5.68342">
        <ele>704</ele>
        <time>2017-11-22T13:06:04Z</time>
      </trkpt>
      <trkpt lat="44.85829" lon="5.68339">
        <ele>699</ele>
        <time>2017-11-22T13:06:15Z</time>
      </trkpt>
      <trkpt lat="44.85832" lon="5.68318">
        <ele>708</ele>
        <time>2017-11-22T13:06:31Z</time>
      </trkpt>
      <trkpt lat="44.85837" lon="5.68265">
        <ele>700</ele>
        <time>2017-11-22T13:06:50Z</time>
      </trkpt>
      <trkpt lat="44.85841" lon="5.68224">
        <ele>707</ele>
        <time>2017-11-22T13:06:53Z</time>
      </trkpt>
      <trkpt lat="44.85851" lon="5.68202">
        <ele>709</ele>
        <time>2017-11-22T13:07:10Z</time>
      </trkpt>
      <trkpt lat="44.85862" lon="5.6819">
        <ele>709</ele>
        <time>2017-11-22T13:07:25Z</time>
      </trkpt>
      <trkpt lat="44.85885" lon="5.68178">
        <ele>706</ele>
        <time>2017-11-22T13:07:37Z</time>
      </trkpt>
      <trkpt lat="44.85907" lon="5.68163">
        <ele>708</ele>
        <time>2017-11-22T13:07:53Z</time>
      </trkpt>
      <trkpt lat="44.85917" lon="5.6815">
        <ele>698</ele>
        <time>2017-11-22T13:07:59Z</time>
      </trkpt>
      <trkpt lat="44.85922" lon="5.68133">
        <ele>698</ele>
        <time>2017-11-22T13:08:10Z</time>
      </trkpt>
      <trkpt lat="44.85922" lon="5.68113">
        <ele>701</ele>
        <time>2017-11-22T13:08:18Z</time>
      </trkpt>
      <trkpt lat="44.8592" lon="5.68095">
        <ele>706</ele>
        <time>2017-11-22T13:08:36Z</time>
      </trkpt>
      <trkpt lat="44.85908" lon="5.68013">
        <ele>725</ele>
        <time>2017-11-22T13:08:40Z</time>
      </trkpt>
      <trkpt lat="44.859" lon="5.67954">
        <ele>731</ele>
        <time>2017-11-22T13:08:44Z</time>
      </trkpt>
      <trkpt lat="44.85889" lon="5.67912">
        <ele>727</ele>
        <time>2017-11-22T13:08:52Z</time>
      </trkpt>
      <trkpt lat="44.85866" lon="5.6785">
        <ele>731</ele>
        <time>2017-11-22T13:09:05Z</time>
      </trkpt>
      <trkpt lat="44.8584" lon="5.67779">
        <ele>725</ele>
        <time>2017-11-22T13:09:20Z</time>
      </trkpt>
      <trkpt lat="44.8582" lon="5.67736">
        <ele>729</ele>
        <time>2017-11-22T13:09:25Z</time>
      </trkpt>
      <trkpt lat="44.85804" lon="5.67726">
        <ele>730</ele>
        <time>2017-11-22T13:09:32Z</time>
      </trkpt>
      <trkpt lat="44.85783" lon="5.67713">
        <ele>732</ele>
        <time>2017-11-22T13:09:44Z</time>
      </trkpt>
      <trkpt lat="44.85773" lon="5.67696">
        <ele>731</ele>
        <time>2017-11-22T13:09:50Z</time>
      </trkpt>
      <trkpt lat="44.85769" lon="5.67672">
        <ele>730</ele>
        <time>2017-11-22T13:10:02Z</time>
      </trkpt>
      <trkpt lat="44.85771" lon="5.67641">
        <ele>725</ele>
        <time>2017-11-22T13:10:05Z</time>
      </trkpt>
      <trkpt lat="44.85768" lon="5.67619">
        <ele>724</ele>
        <time>2017-11-22T13:10:16Z</time>
      </trkpt>
      <trkpt lat="44.85762" lon="5.67604">
        <ele>724</ele>
        <time>2017-11-22T13:10:22Z</time>
      </trkpt>
      <trkpt lat="44.85741" lon="5.67578">
        <ele>727</ele>
        <time>2017-11-22T13:10:38Z</time>
      </trkpt>
      <trkpt lat="44.85717" lon="5.67554">
        <ele>731</ele>
        <time>2017-11-22T13:10:58Z</time>
      </trkpt>
      <trkpt lat="44.85682" lon="5.67519">
        <ele>734</ele>
        <time>2017-11-22T13:11:04Z</time>
      </trkpt>
      <trkpt lat="44.85667" lon="5.67501">
        <ele>738</ele>
        <time>2017-11-22T13:11:20Z</time>
      </trkpt>
      <trkpt lat="44.85655" lon="5.67482">
        <ele>742</ele>
        <time>2017-11-22T13:11:37Z</time>
      </trkpt>
      <trkpt lat="44.8564" lon="5.67416">
        <ele>741</ele>
        <time>2017-11-22T13:11:56Z</time>
      </trkpt>
      <trkpt lat="44.85627" lon="5.67376">
        <ele>743</ele>
        <time>2017-11-22T13:12:11Z</time>
      </trkpt>
      <trkpt lat="44.85622" lon="5.67347">
        <ele>744</ele>
        <time>2017-11-22T13:12:13Z</time>
      </trkpt>
      <trkpt lat="44.85622" lon="5.67281">
        <ele>741</ele>
        <time>2017-11-22T13:12:29Z</time>
      </trkpt>
      <trkpt lat="44.85623" lon="5.67228">
        <ele>740</ele>
        <time>2017-11-22T13:12:46Z</time>
      </trkpt>
      <trkpt lat="44.85617" lon="5.67204">
        <ele>740</ele>
        <time>2017-11-22T13:12:54Z</time>
      </trkpt>
      <trkpt lat="44.85613" lon="5.67197">
        <ele>741</ele>
        <time>2017-11-22T13:13:10Z</time>
      </trkpt>
      <trkpt lat="44.85603" lon="5.67183">
        <ele>742</ele>
        <time>2017-11-22T13:13:19Z</time>
      </trkpt>
      <trkpt lat="44.8559" lon="5.67172">
        <ele>744</ele>
        <time>2017-11-22T13:13:33Z</time>
      </trkpt>
      <trkpt lat="44.85564" lon="5.67162">
        <ele>746</ele>
        <time>2017-11-22T13:13:52Z</time>
      </trkpt>
      <trkpt lat="44.8542" lon="5.67131">
        <ele>745</ele>
        <time>2017-11-22T13:14:02Z</time>
      </trkpt>
      <trkpt lat="44.85274" lon="5.67099">
        <ele>741</ele>
        <time>2017-11-22T13:14:16Z</time>
      </trkpt>
      <trkpt lat="44.85231" lon="5.67093">
        <ele>738</ele>
        <time>2017-11-22T13:14:29Z</time>
      </trkpt>
      <trkpt lat="44.85218" lon="5.67094">
        <ele>738</ele>
        <time>2017-11-22T13:14:42Z</time>
      </trkpt>
      <trkpt lat="44.85191" lon="5.67101">
        <ele>736</ele>
        <time>2017-11-22T13:14:51Z</time>
      </trkpt>
      <trkpt lat="44.85148" lon="5.67121">
        <ele>735</ele>
        <time>2017-11-22T13:15:08Z</time>
      </trkpt>
      <trkpt lat="44.85119" lon="5.67126">
        <ele>734</ele>
        <time>2017-11-22T13:15:20Z</time>
      </trkpt>
      <trkpt lat="44.85103" lon="5.67129">
        <ele>734</ele>
        <time>2017-11-22T13:15:39Z</time>
      </trkpt>
      <trkpt lat="44.8502" lon="5.67174">
        <ele>738</ele>
        <time>2017-11-22T13:15:52Z</time>
      </trkpt>
      <trkpt lat="44.8499" lon="5.67188">
        <ele>738</ele>
        <time>2017-11-22T13:16:05Z</time>
      </trkpt>
      <trkpt lat="44.84966" lon="5.67195">
        <ele>738</ele>
        <time>2017-11-22T13:16:25Z</time>
      </trkpt>
      <trkpt lat="44.8494" lon="5.67197">
        <ele>738</ele>
        <time>2017-11-22T13:16:33Z</time>
      </trkpt>
      <trkpt lat="44.84855" lon="5.67185">
        <ele>737</ele>
        <time>2017-11-22T13:16:39Z</time>
      </trkpt>
      <trkpt lat="44.84788" lon="5.67176">
        <ele>733</ele>
        <time>2017-11-22T13:16:42Z</time>
      </trkpt>
      <trkpt lat="44.84541" lon="5.67152">
        <ele>712</ele>
        <time>2017-11-22T13:16:47Z</time>
      </trkpt>
      <trkpt lat="44.84473" lon="5.67147">
        <ele>707</ele>
        <time>2017-11-22T13:17:07Z</time>
      </trkpt>
      <trkpt lat="44.844" lon="5.67138">
        <ele>708</ele>
        <time>2017-11-22T13:17:21Z</time>
      </trkpt>
      <trkpt lat="44.84303" lon="5.67129">
        <ele>707</ele>
        <time>2017-11-22T13:17:32Z</time>
      </trkpt>
      <trkpt lat="44.84238" lon="5.67128">
        <ele>699</ele>
        <time>2017-11-22T13:17:40Z</time>
      </trkpt>
      <trkpt lat="44.84219" lon="5.67132">
        <ele>698</ele>
        <time>2017-11-22T13:17:45Z</time>
      </trkpt>
      <trkpt lat="44.84213" lon="5.67134">
        <ele>698</ele>
        <time>2017-11-22T13:17:55Z</time>
      </trkpt>
      <trkpt lat="44.84201" lon="5.67147">
        <ele>698</ele>
        <time>2017-11-22T13:18:15Z</time>
      </trkpt>
      <trkpt lat="44.84157" lon="5.67218">
        <ele>701</ele>
        <time>2017-11-22T13:18:25Z</time>
      </trkpt>
      <trkpt lat="44.84143" lon="5.67241">
        <ele>703</ele>
        <time>2017-11-22T13:18:27Z</time>
      </trkpt>
      <trkpt lat="44.84126" lon="5.67263">
        <ele>711</ele>
        <time>2017-11-22T13:18:33Z</time>
      </trkpt>
      <trkpt lat="44.8411" lon="5.67278">
        <ele>710</ele>
        <time>2017-11-22T13:18:50Z</time>
      </trkpt>
      <trkpt lat="44.841" lon="5.67283">
        <ele>710</ele>
        <time>2017-11-22T13:18:56Z</time>
      </trkpt>
      <trkpt lat="44.84092" lon="5.67284">
        <ele>710</ele>
        <time>2017-11-22T13:19:09Z</time>
      </trkpt>
      <trkpt lat="44.84086" lon="5.67286">
        <ele>710</ele>
        <time>2017-11-22T13:19:20Z</time>
      </trkpt>
      <trkpt lat="44.84076" lon="5.67285">
        <ele>708</ele>
        <time>2017-11-22T13:19:23Z</time>
      </trkpt>
      <trkpt lat="44.84045" lon="5.67274">
        <ele>708</ele>
        <time>2017-11-22T13:19:40Z</time>
      </trkpt>
      <trkpt lat="44.83954" lon="5.67229">
        <ele>700</ele>
        <time>2017-11-22T13:19:42Z</time>
      </trkpt>
      <trkpt lat="44.83914" lon="5.67215">
        <ele>702</ele>
        <time>2017-11-22T13:19:44Z</time>
      </trkpt>
      <trkpt lat="44.8386" lon="5.67202">
        <ele>701</ele>
        <time>2017-11-22T13:19:58Z</time>
      </trkpt>
      <trkpt lat="44.83836" lon="5.67203">
        <ele>701</ele>
        <time>2017-11-22T13:20:14Z</time>
      </trkpt>
      <trkpt lat="44.83813" lon="5.67212">
        <ele>699</ele>
        <time>2017-11-22T13:20:26Z</time>
      </trkpt>
      <trkpt lat="44.83806" lon="5.67215">
        <ele>699</ele>
        <time>2017-11-22T13:20:44Z</time>
      </trkpt>
      <trkpt lat="44.83798" lon="5.67224">
        <ele>699</ele>
        <time>2017-11-22T13:21:03Z</time>
      </trkpt>
      <trkpt lat="44.83769" lon="5.67251">
        <ele>700</ele>
        <time>2017-11-22T13:21:07Z</time>
      </trkpt>
      <trkpt lat="44.83752" lon="5.67262">
        <ele>699</ele>
        <time>2017-11-22T13:21:21Z</time>
      </trkpt>
      <trkpt lat="44.83735" lon="5.67268">
        <ele>694</ele>
        <time>2017-11-22T13:21:39Z</time>
      </trkpt>
      <trkpt lat="44.83712" lon="5.67267">
        <ele>693</ele>
        <time>2017-11-22T13:21:48Z</time>
      </trkpt>
      <trkpt lat="44.83696" lon="5.67262">
        <ele>692</ele>
        <time>2017-11-22T13:22:04Z</time>
      </trkpt>
      <trkpt lat="44.83662" lon="5.67242">
        <ele>691</ele>
        <time>2017-11-22T13:22:21Z</time>
      </trkpt>
      <trkpt lat="44.83652" lon="5.67241">
        <ele>689</ele>
        <time>2017-11-22T13:22:37Z</time>
      </trkpt>
      <trkpt lat="44.83645" lon="5.67244">
        <ele>688</ele>
        <time>2017-11-22T13:22:40Z</time>
      </trkpt>
      <trkpt lat="44.83636" lon="5.67256">
        <ele>685</ele>
        <time>2017-11-22T13:22:56Z</time>
      </trkpt>
      <trkpt lat="44.83634" lon="5.67266">
        <ele>684</ele>
        <time>2017-11-22T13:23:02Z</time>
      </trkpt>
      <trkpt lat="44.83636" lon="5.67278">
        <ele>684</ele>
        <time>2017-11-22T13:23:21Z</time>
      </trkpt>
      <trkpt lat="44.83641" lon="5.6729">
        <ele>683</ele>
        <time>2017-11-22T13:23:31Z</time>
      </trkpt>
      <trkpt lat="44.83649" lon="5.67296">
        <ele>683</ele>
        <time>2017-11-22T13:23:41Z</time>
      </trkpt>
      <trkpt lat="44.83697" lon="5.67311">
        <ele>690</ele>
        <time>2017-11-22T13:24:01Z</time>
      </trkpt>
      <trkpt lat="44.83724" lon="5.67321">
        <ele>691</ele>
        <time>2017-11-22T13:24:10Z</time>
      </trkpt>
      <trkpt lat="44.83743" lon="5.67334">
        <ele>689</ele>
        <time>2017-11-22T13:24:19Z</time>
      </trkpt>
      <trkpt lat="44.8377" lon="5.67362">
        <ele>694</ele>
        <time>2017-11-22T13:24:28Z</time>
      </trkpt>
      <trkpt lat="44.83789" lon="5.67389">
        <ele>695</ele>
        <time>2017-11-22T13:24:33Z</time>
      </trkpt>
      <trkpt lat="44.83796" lon="5.67404">
        <ele>695</ele>
        <time>2017-11-22T13:24:53Z</time>
      </trkpt>
      <trkpt lat="44.83799" lon="5.67421">
        <ele>692</ele>
        <time>2017-11-22T13:25:00Z</time>
      </trkpt>
      <trkpt lat="44.83798" lon="5.6743">
        <ele>692</ele>
        <time>2017-11-22T13:25:04Z</time>
      </trkpt>
      <trkpt lat="44.83788" lon="5.67443">
        <ele>690</ele>
        <time>2017-11-22T13:25:06Z</time>
      </trkpt>
      <trkpt lat="44.83754" lon="5.67464">
        <ele>687</ele>
        <time>2017-11-22T13:25:13Z</time>
      </trkpt>
      <trkpt lat="44.83728" lon="5.67485">
        <ele>680</ele>
        <time>2017-11-22T13:25:31Z</time>
      </trkpt>
      <trkpt lat="44.83703" lon="5.67496">
        <ele>680</ele>
        <time>2017-11-22T13:25:37Z</time>
      </trkpt>
      <trkpt lat="44.83641" lon="5.67516">
        <ele>685</ele>
        <time>2017-11-22T13:25:43Z</time>
      </trkpt>
      <trkpt lat="44.83612" lon="5.67521">
        <ele>686</ele>
        <time>2017-11-22T13:25:53Z</time>
      </trkpt>
      <trkpt lat="44.83586" lon="5.67521">
        <ele>683</ele>
        <time>2017-11-22T13:26:01Z</time>
      </trkpt>
      <trkpt lat="44.83574" lon="5.6752">
        <ele>684</ele>
        <time>2017-11-22T13:26:03Z</time>
      </trkpt>
      <trkpt lat="44.83561" lon="5.67515">
        <ele>684</ele>
        <time>2017-11-22T13:26:14Z</time>
      </trkpt>
      <trkpt lat="44.83535" lon="5.67509">
        <ele>684</ele>
        <time>2017-11-22T13:26:29Z</time>
      </trkpt>
      <trkpt lat="44.83493" lon="5.67497">
        <ele>669</ele>
        <time>2017-11-22T13:26:40Z</time>
      </trkpt>
      <trkpt lat="44.83447" lon="5.67488">
        <ele>663</ele>
        <time>2017-11-22T13:26:43Z</time>
      </trkpt>
      <trkpt lat="44.83407" lon="5.67483">
        <ele>661</ele>
        <time>2017-11-22T13:26:52Z</time>
      </trkpt>
      <trkpt lat="44.83385" lon="5.67482">
        <ele>658</ele>
        <time>2017-11-22T13:27:00Z</time>
      </trkpt>
      <trkpt lat="44.83369" lon="5.67485">
        <ele>658</ele>
        <time>2017-11-22T13:27:17Z</time>
      </trkpt>
      <trkpt lat="44.83353" lon="5.67488">
        <ele>658</ele>
        <time>2017-11-22T13:27:22Z</time>
      </trkpt>
      <trkpt lat="44.83339" lon="5.67489">
        <ele>658</ele>
        <time>2017-11-22T13:27:39Z</time>
      </trkpt>
      <trkpt lat="44.83325" lon="5.67485">
        <ele>661</ele>
        <time>2017-11-22T13:27:47Z</time>
      </trkpt>
      <trkpt lat="44.83315" lon="5.67478">
        <ele>662</ele>
        <time>2017-11-22T13:27:55Z</time>
      </trkpt>
      <trkpt lat="44.83307" lon="5.67468">
        <ele>663</ele>
        <time>2017-11-22T13:28:07Z</time>
      </trkpt>
      <trkpt lat="44.83298" lon="5.67442">
        <ele>662</ele>
        <time>2017-11-22T13:28:18Z</time>
      </trkpt>
      <trkpt lat="44.83287" lon="5.67373">
        <ele>654</ele>
        <time>2017-11-22T13:28:21Z</time>
      </trkpt>
      <trkpt lat="44.83265" lon="5.673">
        <ele>644</ele>
        <time>2017-11-22T13:28:23Z</time>
      </trkpt>
      <trkpt lat="44.83255" lon="5.67268">
        <ele>640</ele>
        <time>2017-11-22T13:28:27Z</time>
      </trkpt>
      <trkpt lat="44.83244" lon="5.67248">
        <ele>636</ele>
        <time>2017-11-22T13:28:39Z</time>
      </trkpt>
      <trkpt lat="44.83231" lon="5.67232">
        <ele>635</ele>
        <time>2017-11-22T13:28:56Z</time>
      </trkpt>
      <trkpt lat="44.83222" lon="5.67227">
        <ele>635</ele>
        <time>2017-11-22T13:29:13Z</time>
      </trkpt>
      <trkpt lat="44.83203" lon="5.67217">
        <ele>635</ele>
        <time>2017-11-22T13:29:32Z</time>
      </trkpt>
      <trkpt lat="44.83173" lon="5.67205">
        <ele>635</ele>
        <time>2017-11-22T13:29:40Z</time>
      </trkpt>
      <trkpt lat="44.83161" lon="5.67204">
        <ele>637</ele>
        <time>2017-11-22T13:30:00Z</time>
      </trkpt>
      <trkpt lat="44.83145" lon="5.67206">
        <ele>637</ele>
        <time>2017-11-22T13:30:17Z</time>
      </trkpt>
      <trkpt lat="44.83129" lon="5.6721">
        <ele>637</ele>
        <time>2017-11-22T13:30:31Z</time>
      </trkpt>
      <trkpt lat="44.83113" lon="5.67214">
        <ele>638</ele>
        <time>2017-11-22T13:30:40Z</time>
      </trkpt>
      <trkpt lat="44.83097" lon="5.67211">
        <ele>637</ele>
        <time>2017-11-22T13:30:45Z</time>
      </trkpt>
      <trkpt lat="44.83088" lon="5.67208">
        <ele>637</ele>
        <time>2017-11-22T13:31:01Z</time>
      </trkpt>
      <trkpt lat="44.83046" lon="5.67184">
        <ele>631</ele>
        <time>2017-11-22T13:31:14Z</time>
      </trkpt>
      <trkpt lat="44.83032" lon="5.67177">
        <ele>630</ele>
        <time>2017-11-22T13:31:33Z</time>
      </trkpt>
      <trkpt lat="44.83018" lon="5.67177">
        <ele>629</ele>
        <time>2017-11-22T13:31:36Z</time>
      </trkpt>
      <trkpt lat="44.83006" lon="5.67184">
        <ele>629</ele>
        <time>2017-11-22T13:31:48Z</time>
      </trkpt>
      <trkpt lat="44.82991" lon="5.672">
        <ele>622</ele>
        <time>2017-11-22T13:31:50Z</time>
      </trkpt>
      <trkpt lat="44.82966" lon="5.67234">
        <ele>622</ele>
        <time>2017-11-22T13:31:52Z</time>
      </trkpt>
      <trkpt lat="44.82935" lon="5.67284">
        <ele>629</ele>
        <time>2017-11-22T13:32:09Z</time>
      </trkpt>
      <trkpt lat="44.82901" lon="5.67338">
        <ele>630</ele>
        <time>2017-11-22T13:32:12Z</time>
      </trkpt>
      <trkpt lat="44.8289" lon="5.6735">
        <ele>630</ele>
        <time>2017-11-22T13:32:18Z</time>
      </trkpt>
      <trkpt lat="44.82875" lon="5.6736">
        <ele>630</ele>
        <time>2017-11-22T13:32:30Z</time>
      </trkpt>
      <trkpt lat="44.82852" lon="5.67369">
        <ele>629</ele>
        <time>2017-11-22T13:32:43Z</time>
      </trkpt>
      <trkpt lat="44.82831" lon="5.67372">
        <ele>629</ele>
        <time>2017-11-22T13:32:56Z</time>
      </trkpt>
      <trkpt lat="44.82823" lon="5.67368">
        <ele>628</ele>
        <time>2017-11-22T13:32:59Z</time>
      </trkpt>
      <trkpt lat="44.82818" lon="5.67362">
        <ele>628</ele>
        <time>2017-11-22T13:33:06Z</time>
      </trkpt>
      <trkpt lat="44.82807" lon="5.67335">
        <ele>626</ele>
        <time>2017-11-22T13:33:08Z</time>
      </trkpt>
      <trkpt lat="44.8279" lon="5.67288">
        <ele>619</ele>
        <time>2017-11-22T13:33:18Z</time>
      </trkpt>
      <trkpt lat="44.82786" lon="5.67256">
        <ele>618</ele>
        <time>2017-11-22T13:33:38Z</time>
      </trkpt>
      <trkpt lat="44.82784" lon="5.67234">
        <ele>609</ele>
        <time>2017-11-22T13:33:42Z</time>
      </trkpt>
      <trkpt lat="44.82778" lon="5.67215">
        <ele>607</ele>
        <time>2017-11-22T13:34:02Z</time>
      </trkpt>
      <trkpt lat="44.8277" lon="5.67204">
        <ele>606</ele>
        <time>2017-11-22T13:34:10Z</time>
      </trkpt>
      <trkpt lat="44.82758" lon="5.67193">
        <ele>605</ele>
        <time>2017-11-22T13:34:20Z</time>
      </trkpt>
      <trkpt lat="44.82749" lon="5.67188">
        <ele>610</ele>
        <time>2017-11-22T13:34:37Z</time>
      </trkpt>
      <trkpt lat="44.82737" lon="5.67185">
        <ele>610</ele>
        <time>2017-11-22T13:34:54Z</time>
      </trkpt>
      <trkpt lat="44.82718" lon="5.67187">
        <ele>612</ele>
        <time>2017-11-22T13:35:01Z</time>
      </trkpt>
      <trkpt lat="44.82701" lon="5.67187">
        <ele>613</ele>
        <time>2017-11-22T13:35:18Z</time>
      </trkpt>
      <trkpt lat="44.82686" lon="5.6718">
        <ele>613</ele>
        <time>2017-11-22T13:35:24Z</time>
      </trkpt>
      <trkpt lat="44.82657" lon="5.67159">
        <ele>609</ele>
        <time>2017-11-22T13:35:40Z</time>
      </trkpt>
      <trkpt lat="44.82647" lon="5.67146">
        <ele>608</ele>
        <time>2017-11-22T13:36:00Z</time>
      </trkpt>
      <trkpt lat="44.82639" lon="5.67131">
        <ele>607</ele>
        <time>2017-11-22T13:36:03Z</time>
      </trkpt>
      <trkpt lat="44.82626" lon="5.67079">
        <ele>598</ele>
        <time>2017-11-22T13:36:06Z</time>
      </trkpt>
      <trkpt lat="44.82619" lon="5.67057">
        <ele>597</ele>
        <time>2017-11-22T13:36:09Z</time>
      </trkpt>
      <trkpt lat="44.82605" lon="5.67032">
        <ele>597</ele>
        <time>2017-11-22T13:36:28Z</time>
      </trkpt>
      <trkpt lat="44.82554" lon="5.6695">
        <ele>592</ele>
        <time>2017-11-22T13:36:43Z</time>
      </trkpt>
      <trkpt lat="44.8255" lon="5.66939">
        <ele>591</ele>
        <time>2017-11-22T13:36:53Z</time>
      </trkpt>
      <trkpt lat="44.82545" lon="5.6694">
        <ele>592</ele>
        <time>2017-11-22T13:37:05Z</time>
      </trkpt>
      <trkpt lat="44.82522" lon="5.6694">
        <ele>592</ele>
        <time>2017-11-22T13:37:20Z</time>
      </trkpt>
      <trkpt lat="44.82511" lon="5.66938">
        <ele>591</ele>
        <time>2017-11-22T13:37:38Z</time>
      </trkpt>
      <trkpt lat="44.82498" lon="5.6694">
        <ele>591</ele>
        <time>2017-11-22T13:37:52Z</time>
      </trkpt>
      <trkpt lat="44.82476" lon="5.66948">
        <ele>592</ele>
        <time>2017-11-22T13:37:54Z</time>
      </trkpt>
      <trkpt lat="44.82453" lon="5.66965">
        <ele>592</ele>
        <time>2017-11-22T13:38:06Z</time>
      </trkpt>
      <trkpt lat="44.82432" lon="5.66987">
        <ele>593</ele>
        <time>2017-11-22T13:38:10Z</time>
      </trkpt>
      <trkpt lat="44.82378" lon="5.67065">
        <ele>595</ele>
        <time>2017-11-22T13:38:22Z</time>
      </trkpt>
      <trkpt lat="44.82295" lon="5.67177">
        <ele>595</ele>
        <time>2017-11-22T13:38:41Z</time>
      </trkpt>
      <trkpt lat="44.82275" lon="5.672">
        <ele>593</ele>
        <time>2017-11-22T13:39:01Z</time>
      </trkpt>
      <trkpt lat="44.82258" lon="5.67225">
        <ele>593</ele>
        <time>2017-11-22T13:39:05Z</time>
      </trkpt>
      <trkpt lat="44.8225" lon="5.67244">
        <ele>589</ele>
        <time>2017-11-22T13:39:14Z</time>
      </trkpt>
      <trkpt lat="44.82248" lon="5.67258">
        <ele>589</ele>
        <time>2017-11-22T13:39:26Z</time>
      </trkpt>
      <trkpt lat="44.8225" lon="5.67283">
        <ele>590</ele>
        <time>2017-11-22T13:39:34Z</time>
      </trkpt>
      <trkpt lat="44.82253" lon="5.67305">
        <ele>599</ele>
        <time>2017-11-22T13:39:47Z</time>
      </trkpt>
      <trkpt lat="44.82251" lon="5.67321">
        <ele>597</ele>
        <time>2017-11-22T13:40:05Z</time>
      </trkpt>
      <trkpt lat="44.82243" lon="5.67336">
        <ele>594</ele>
        <time>2017-11-22T13:40:16Z</time>
      </trkpt>
      <trkpt lat="44.82224" lon="5.67352">
        <ele>595</ele>
        <time>2017-11-22T13:40:30Z</time>
      </trkpt>
      <trkpt lat="44.82191" lon="5.67375">
        <ele>594</ele>
        <time>2017-11-22T13:40:36Z</time>
      </trkpt>
      <trkpt lat="44.82178" lon="5.67384">
        <ele>594</ele>
        <time>2017-11-22T13:40:54Z</time>
      </trkpt>
      <trkpt lat="44.82169" lon="5.67354">
        <ele>592</ele>
        <time>2017-11-22T13:41:12Z</time>
      </trkpt>
      <trkpt lat="44.82158" lon="5.67314">
        <ele>591</ele>
        <time>2017-11-22T13:41:29Z</time>
      </trkpt>
      <trkpt lat="44.82159" lon="5.67306">
        <ele>592</ele>
        <time>2017-11-22T13:41:36Z</time>
      </trkpt>
      <trkpt lat="44.82165" lon="5.67296">
        <ele>592</ele>
        <time>2017-11-22T13:41:41Z</time>
      </trkpt>
      <trkpt lat="44.82173" lon="5.67284">
        <ele>590</ele>
        <time>2017-11-22T13:41:44Z</time>
      </trkpt>
      <trkpt lat="44.82177" lon="5.67272">
        <ele>590</ele>
        <time>2017-11-22T13:41:54Z</time>
      </trkpt>
      <trkpt lat="44.82183" lon="5.67236">
        <ele>589</ele>
        <time>2017-11-22T13:42:11Z</time>
      </trkpt>
      <trkpt lat="44.82183" lon="5.67218">
        <ele>588</ele>
        <time>2017-11-22T13:42:16Z</time>
      </trkpt>
      <trkpt lat="44.82179" lon="5.67205">
        <ele>588</ele>
        <time>2017-11-22T13:42:28Z</time>
      </trkpt>
      <trkpt lat="44.82171" lon="5.67193">
        <ele>587</ele>
        <time>2017-11-22T13:42:30Z</time>
      </trkpt>
      <trkpt lat="44.82152" lon="5.67182">
        <ele>591</ele>
        <time>2017-11-22T13:42:34Z</time>
      </trkpt>
      <trkpt lat="44.82132" lon="5.67175">
        <ele>593</ele>
        <time>2017-11-22T13:42:36Z</time>
      </trkpt>
      <trkpt lat="44.82108" lon="5.67165">
        <ele>593</ele>
        <time>2017-11-22T13:42:48Z</time>
      </trkpt>
      <trkpt lat="44.82102" lon="5.67158">
        <ele>594</ele>
        <time>2017-11-22T13:42:57Z</time>
      </trkpt>
      <trkpt lat="44.82093" lon="5.67144">
        <ele>594</ele>
        <time>2017-11-22T13:43:09Z</time>
      </trkpt>
      <trkpt lat="44.8209" lon="5.67126">
        <ele>593</ele>
        <time>2017-11-22T13:43:24Z</time>
      </trkpt>
      <trkpt lat="44.82089" lon="5.67111">
        <ele>593</ele>
        <time>2017-11-22T13:43:31Z</time>
      </trkpt>
      <trkpt lat="44.82098" lon="5.67078">
        <ele>598</ele>
        <time>2017-11-22T13:43:43Z</time>
      </trkpt>
      <trkpt lat="44.82105" lon="5.67069">
        <ele>599</ele>
        <time>2017-11-22T13:43:53Z</time>
      </trkpt>
      <trkpt lat="44.82119" lon="5.67067">
        <ele>600</ele>
        <time>2017-11-22T13:44:07Z</time>
      </trkpt>
      <trkpt lat="44.82133" lon="5.67067">
        <ele>599</ele>
        <time>2017-11-22T13:44:24Z</time>
      </trkpt>
      <trkpt lat="44.82142" lon="5.67063">
        <ele>599</ele>
        <time>2017-11-22T13:44:33Z</time>
      </trkpt>
      <trkpt lat="44.82149" lon="5.67051">
        <ele>600</ele>
        <time>2017-11-22T13:44:49Z</time>
      </trkpt>
      <trkpt lat="44.82154" lon="5.67036">
        <ele>602</ele>
        <time>2017-11-22T13:44:52Z</time>
      </trkpt>
      <trkpt lat="44.8216" lon="5.67025">
        <ele>603</ele>
        <time>2017-11-22T13:45:10Z</time>
      </trkpt>
      <trkpt lat="44.82171" lon="5.67016">
        <ele>599</ele>
        <time>2017-11-22T13:45:17Z</time>
      </trkpt>
      <trkpt lat="44.82181" lon="5.67009">
        <ele>599</ele>
        <time>2017-11-22T13:45:25Z</time>
      </trkpt>
      <trkpt lat="44.82186" lon="5.67004">
        <ele>599</ele>
        <time>2017-11-22T13:45:34Z</time>
      </trkpt>
      <trkpt lat="44.8219" lon="5.66996">
        <ele>605</ele>
        <time>2017-11-22T13:45:43Z</time>
      </trkpt>
      <trkpt lat="44.82191" lon="5.66982">
        <ele>606</ele>
        <time>2017-11-22T13:46:00Z</time>
      </trkpt>
      <trkpt lat="44.82185" lon="5.66967">
        <ele>607</ele>
        <time>2017-11-22T13:46:12Z</time>
      </trkpt>
      <trkpt lat="44.82179" lon="5.66954">
        <ele>609</ele>
        <time>2017-11-22T13:46:17Z</time>
      </trkpt>
      <trkpt lat="44.82176" lon="5.66938">
        <ele>612</ele>
        <time>2017-11-22T13:46:32Z</time>
      </trkpt>
      <trkpt lat="44.82177" lon="5.6693">
        <ele>614</ele>
        <time>2017-11-22T13:46:50Z</time>
      </trkpt>
      <trkpt lat="44.82183" lon="5.66913">
        <ele>621</ele>
        <time>2017-11-22T13:47:03Z</time>
      </trkpt>
      <trkpt lat="44.822" lon="5.66873">
        <ele>623</ele>
        <time>2017-11-22T13:47:15Z</time>
      </trkpt>
      <trkpt lat="44.82214" lon="5.66842">
        <ele>623</ele>
        <time>2017-11-22T13:47:30Z</time>
      </trkpt>
      <trkpt lat="44.82224" lon="5.6683">
        <ele>631</ele>
        <time>2017-11-22T13:47:37Z</time>
      </trkpt>
      <trkpt lat="44.82239" lon="5.6682">
        <ele>629</ele>
        <time>2017-11-22T13:47:46Z</time>
      </trkpt>
      <trkpt lat="44.82263" lon="5.66805">
        <ele>620</ele>
        <time>2017-11-22T13:48:04Z</time>
      </trkpt>
      <trkpt lat="44.82293" lon="5.66792">
        <ele>618</ele>
        <time>2017-11-22T13:48:24Z</time>
      </trkpt>
      <trkpt lat="44.8232" lon="5.66785">
        <ele>616</ele>
        <time>2017-11-22T13:48:26Z</time>
      </trkpt>
      <trkpt lat="44.82337" lon="5.66784">
        <ele>605</ele>
        <time>2017-11-22T13:48:31Z</time>
      </trkpt>
      <trkpt lat="44.82347" lon="5.66785">
        <ele>604</ele>
        <time>2017-11-22T13:48:34Z</time>
      </trkpt>
      <trkpt lat="44.82353" lon="5.66779">
        <ele>604</ele>
        <time>2017-11-22T13:48:45Z</time>
      </trkpt>
      <trkpt lat="44.82351" lon="5.66774">
        <ele>604</ele>
        <time>2017-11-22T13:48:50Z</time>
      </trkpt>
      <trkpt lat="44.82346" lon="5.66772">
        <ele>605</ele>
        <time>2017-11-22T13:49:05Z</time>
      </trkpt>
      <trkpt lat="44.82329" lon="5.66773">
        <ele>615</ele>
        <time>2017-11-22T13:49:10Z</time>
      </trkpt>
      <trkpt lat="44.82317" lon="5.66772">
        <ele>616</ele>
        <time>2017-11-22T13:49:17Z</time>
      </trkpt>
      <trkpt lat="44.82309" lon="5.66767">
        <ele>617</ele>
        <time>2017-11-22T13:49:29Z</time>
      </trkpt>
      <trkpt lat="44.82293" lon="5.66754">
        <ele>620</ele>
        <time>2017-11-22T13:49:46Z</time>
      </trkpt>
      <trkpt lat="44.82284" lon="5.66748">
        <ele>624</ele>
        <time>2017-11-22T13:50:06Z</time>
      </trkpt>
      <trkpt lat="44.82264" lon="5.66741">
        <ele>629</ele>
        <time>2017-11-22T13:50:13Z</time>
      </trkpt>
      <trkpt lat="44.82245" lon="5.66744">
        <ele>639</ele>
        <time>2017-11-22T13:50:27Z</time>
      </trkpt>
      <trkpt lat="44.82232" lon="5.6675">
        <ele>638</ele>
        <time>2017-11-22T13:50:42Z</time>
      </trkpt>
      <trkpt lat="44.82227" lon="5.66749">
        <ele>643</ele>
        <time>2017-11-22T13:50:59Z</time>
      </trkpt>
      <trkpt lat="44.82225" lon="5.66741">
        <ele>644</ele>
        <time>2017-11-22T13:51:18Z</time>
      </trkpt>
      <trkpt lat="44.82231" lon="5.66734">
        <ele>643</ele>
        <time>2017-11-22T13:51:21Z</time>
      </trkpt>
      <trkpt lat="44.82241" lon="5.66722">
        <ele>643</ele>
        <time>2017-11-22T13:51:23Z</time>
      </trkpt>
      <trkpt lat="44.82246" lon="5.66706">
        <ele>643</ele>
        <time>2017-11-22T13:51:27Z</time>
      </trkpt>
      <trkpt lat="44.82245" lon="5.66674">
        <ele>639</ele>
        <time>2017-11-22T13:51:38Z</time>
      </trkpt>
      <trkpt lat="44.82237" lon="5.6664">
        <ele>639</ele>
        <time>2017-11-22T13:51:56Z</time>
      </trkpt>
      <trkpt lat="44.8223" lon="5.66623">
        <ele>639</ele>
        <time>2017-11-22T13:52:00Z</time>
      </trkpt>
      <trkpt lat="44.82217" lon="5.66609">
        <ele>639</ele>
        <time>2017-11-22T13:52:13Z</time>
      </trkpt>
      <trkpt lat="44.82205" lon="5.66606">
        <ele>641</ele>
        <time>2017-11-22T13:52:32Z</time>
      </trkpt>
      <trkpt lat="44.82196" lon="5.66606">
        <ele>642</ele>
        <time>2017-11-22T13:52:36Z</time>
      </trkpt>
      <trkpt lat="44.82175" lon="5.66609">
        <ele>644</ele>
        <time>2017-11-22T13:52:49Z</time>
      </trkpt>
      <trkpt lat="44.82172" lon="5.6661">
        <ele>645</ele>
        <time>2017-11-22T13:53:09Z</time>
      </trkpt>
      <trkpt lat="44.82156" lon="5.6661">
        <ele>655</ele>
        <time>2017-11-22T13:53:19Z</time>
      </trkpt>
      <trkpt lat="44.8214" lon="5.66605">
        <ele>656</ele>
        <time>2017-11-22T13:53:33Z</time>
      </trkpt>
      <trkpt lat="44.82129" lon="5.66598">
        <ele>657</ele>
        <time>2017-11-22T13:53:39Z</time>
      </trkpt>
      <trkpt lat="44.82123" lon="5.66591">
        <ele>658</ele>
        <time>2017-11-22T13:53:44Z</time>
      </trkpt>
      <trkpt lat="44.82109" lon="5.66573">
        <ele>654</ele>
        <time>2017-11-22T13:53:48Z</time>
      </trkpt>
      <trkpt lat="44.82099" lon="5.66558">
        <ele>654</ele>
        <time>2017-11-22T13:54:03Z</time>
      </trkpt>
      <trkpt lat="44.82089" lon="5.66535">
        <ele>654</ele>
        <time>2017-11-22T13:54:19Z</time>
      </trkpt>
      <trkpt lat="44.82085" lon="5.66528">
        <ele>654</ele>
        <time>2017-11-22T13:54:27Z</time>
      </trkpt>
      <trkpt lat="44.82075" lon="5.66517">
        <ele>664</ele>
        <time>2017-11-22T13:54:43Z</time>
      </trkpt>
      <trkpt lat="44.82069" lon="5.6651">
        <ele>664</ele>
        <time>2017-11-22T13:54:50Z</time>
      </trkpt>
      <trkpt lat="44.82064" lon="5.66501">
        <ele>664</ele>
        <time>2017-11-22T13:54:54Z</time>
      </trkpt>
      <trkpt lat="44.82062" lon="5.66485">
        <ele>666</ele>
        <time>2017-11-22T13:55:14Z</time>
      </trkpt>
      <trkpt lat="44.82063" lon="5.66471">
        <ele>667</ele>
        <time>2017-11-22T13:55:25Z</time>
      </trkpt>
      <trkpt lat="44.82064" lon="5.66461">
        <ele>667</ele>
        <time>2017-11-22T13:55:36Z</time>
      </trkpt>
      <trkpt lat="44.82067" lon="5.6645">
        <ele>666</ele>
        <time>2017-11-22T13:55:47Z</time>
      </trkpt>
      <trkpt lat="44.82068" lon="5.66422">
        <ele>663</ele>
        <time>2017-11-22T13:55:55Z</time>
      </trkpt>
      <trkpt lat="44.82062" lon="5.66387">
        <ele>666</ele>
        <time>2017-11-22T13:56:09Z</time>
      </trkpt>
      <trkpt lat="44.82044" lon="5.66341">
        <ele>668</ele>
        <time>2017-11-22T13:56:25Z</time>
      </trkpt>
      <trkpt lat="44.82021" lon="5.66293">
        <ele>669</ele>
        <time>2017-11-22T13:56:35Z</time>
      </trkpt>
      <trkpt lat="44.82002" lon="5.66245">
        <ele>674</ele>
        <time>2017-11-22T13:56:43Z</time>
      </trkpt>
      <trkpt lat="44.8199" lon="5.66228">
        <ele>675</ele>
        <time>2017-11-22T13:57:00Z</time>
      </trkpt>
      <trkpt lat="44.81972" lon="5.66213">
        <ele>673</ele>
        <time>2017-11-22T13:57:08Z</time>
      </trkpt>
      <trkpt lat="44.81958" lon="5.66202">
        <ele>672</ele>
        <time>2017-11-22T13:57:17Z</time>
      </trkpt>
      <trkpt lat="44.81949" lon="5.66199">
        <ele>672</ele>
        <time>2017-11-22T13:57:28Z</time>
      </trkpt>
      <trkpt lat="44.81936" lon="5.66201">
        <ele>673</ele>
        <time>2017-11-22T13:57:39Z</time>
      </trkpt>
      <trkpt lat="44.81904" lon="5.6623">
        <ele>680</ele>
        <time>2017-11-22T13:57:45Z</time>
      </trkpt>
      <trkpt lat="44.81887" lon="5.66242">
        <ele>680</ele>
        <time>2017-11-22T13:58:03Z</time>
      </trkpt>
      <trkpt lat="44.8187" lon="5.66247">
        <ele>680</ele>
        <time>2017-11-22T13:58:22Z</time>
      </trkpt>
      <trkpt lat="44.81838" lon="5.66248">
        <ele>683</ele>
        <time>2017-11-22T13:58:41Z</time>
      </trkpt>
      <trkpt lat="44.81813" lon="5.66248">
        <ele>683</ele>
        <time>2017-11-22T13:58:43Z</time>
      </trkpt>
      <trkpt lat="44.8179" lon="5.66245">
        <ele>683</ele>
        <time>2017-11-22T13:58:51Z</time>
      </trkpt>
      <trkpt lat="44.81731" lon="5.66239">
        <ele>689</ele>
        <time>2017-11-22T13:59:10Z</time>
      </trkpt>
      <trkpt lat="44.81707" lon="5.66237">
        <ele>691</ele>
        <time>2017-11-22T13:59:27Z</time>
      </trkpt>
      <trkpt lat="44.81695" lon="5.66232">
        <ele>692</ele>
        <time>2017-11-22T13:59:30Z</time>
      </trkpt>
      <trkpt lat="44.81679" lon="5.66214">
        <ele>693</ele>
        <time>2017-11-22T13:59:47Z</time>
      </trkpt>
      <trkpt lat="44.81668" lon="5.66184">
        <ele>694</ele>
        <time>2017-11-22T14:00:02Z</time>
      </trkpt>
      <trkpt lat="44.81663" lon="5.6617">
        <ele>698</ele>
        <time>2017-11-22T14:00:17Z</time>
      </trkpt>
      <trkpt lat="44.8166" lon="5.66151">
        <ele>700</ele>
        <time>2017-11-22T14:00:28Z</time>
      </trkpt>
      <trkpt lat="44.81657" lon="5.66107">
        <ele>702</ele>
        <time>2017-11-22T14:00:44Z</time>
      </trkpt>
      <trkpt lat="44.81656" lon="5.66088">
        <ele>700</ele>
        <time>2017-11-22T14:00:48Z</time>
      </trkpt>
      <trkpt lat="44.8165" lon="5.6607">
        <ele>701</ele>
        <time>2017-11-22T14:01:07Z</time>
      </trkpt>
      <trkpt lat="44.81631" lon="5.6604">
        <ele>702</ele>
        <time>2017-11-22T14:01:10Z</time>
      </trkpt>
      <trkpt lat="44.81617" lon="5.66025">
        <ele>703</ele>
        <time>2017-11-22T14:01:13Z</time>
      </trkpt>
      <trkpt lat="44.81605" lon="5.66016">
        <ele>704</ele>
        <time>2017-11-22T14:01:17Z</time>
      </trkpt>
      <trkpt lat="44.81592" lon="5.66012">
        <ele>705</ele>
        <time>2017-11-22T14:01:19Z</time>
      </trkpt>
      <trkpt lat="44.81518" lon="5.66036">
        <ele>711</ele>
        <time>2017-11-22T14:01:34Z</time>
      </trkpt>
      <trkpt lat="44.81468" lon="5.66056">
        <ele>714</ele>
        <time>2017-11-22T14:01:42Z</time>
      </trkpt>
      <trkpt lat="44.81443" lon="5.66063">
        <ele>715</ele>
        <time>2017-11-22T14:01:49Z</time>
      </trkpt>
      <trkpt lat="44.81432" lon="5.66064">
        <ele>716</ele>
        <time>2017-11-22T14:02:02Z</time>
      </trkpt>
      <trkpt lat="44.81408" lon="5.66056">
        <ele>717</ele>
        <time>2017-11-22T14:02:14Z</time>
      </trkpt>
      <trkpt lat="44.81367" lon="5.66036">
        <ele>717</ele>
        <time>2017-11-22T14:02:28Z</time>
      </trkpt>
      <trkpt lat="44.81346" lon="5.66029">
        <ele>717</ele>
        <time>2017-11-22T14:02:35Z</time>
      </trkpt>
      <trkpt lat="44.81334" lon="5.6603">
        <ele>717</ele>
        <time>2017-11-22T14:02:37Z</time>
      </trkpt>
      <trkpt lat="44.81313" lon="5.66036">
        <ele>719</ele>
        <time>2017-11-22T14:02:45Z</time>
      </trkpt>
      <trkpt lat="44.81266" lon="5.66054">
        <ele>721</ele>
        <time>2017-11-22T14:02:49Z</time>
      </trkpt>
      <trkpt lat="44.81224" lon="5.66071">
        <ele>721</ele>
        <time>2017-11-22T14:03:00Z</time>
      </trkpt>
      <trkpt lat="44.81195" lon="5.66077">
        <ele>721</ele>
        <time>2017-11-22T14:03:20Z</time>
      </trkpt>
      <trkpt lat="44.8117" lon="5.66075">
        <ele>723</ele>
        <time>2017-11-22T14:03:29Z</time>
      </trkpt>
      <trkpt lat="44.81088" lon="5.66056">
        <ele>726</ele>
        <time>2017-11-22T14:03:43Z</time>
      </trkpt>
      <trkpt lat="44.81053" lon="5.66044">
        <ele>730</ele>
        <time>2017-11-22T14:03:54Z</time>
      </trkpt>
      <trkpt lat="44.81038" lon="5.66034">
        <ele>730</ele>
        <time>2017-11-22T14:03:58Z</time>
      </trkpt>
      <trkpt lat="44.81006" lon="5.66008">
        <ele>729</ele>
        <time>2017-11-22T14:04:09Z</time>
      </trkpt>
      <trkpt lat="44.80979" lon="5.6599">
        <ele>729</ele>
        <time>2017-11-22T14:04:11Z</time>
      </trkpt>
      <trkpt lat="44.80887" lon="5.65956">
        <ele>732</ele>
        <time>2017-11-22T14:04:29Z</time>
      </trkpt>
      <trkpt lat="44.80802" lon="5.65932">
        <ele>736</ele>
        <time>2017-11-22T14:04:41Z</time>
      </trkpt>
      <trkpt lat="44.80784" lon="5.65926">
        <ele>736</ele>
        <time>2017-11-22T14:04:47Z</time>
      </trkpt>
      <trkpt lat="44.80762" lon="5.65913">
        <ele>736</ele>
        <time>2017-11-22T14:05:04Z</time>
      </trkpt>
      <trkpt lat="44.80744" lon="5.65897">
        <ele>737</ele>
        <time>2017-11-22T14:05:23Z</time>
      </trkpt>
      <trkpt lat="44.80733" lon="5.65884">
        <ele>737</ele>
        <time>2017-11-22T14:05:32Z</time>
      </trkpt>
      <trkpt lat="44.80695" lon="5.65831">
        <ele>736</ele>
        <time>2017-11-22T14:05:51Z</time>
      </trkpt>
      <trkpt lat="44.80669" lon="5.65794">
        <ele>735</ele>
        <time>2017-11-22T14:05:53Z</time>
      </trkpt>
      <trkpt lat="44.80648" lon="5.65767">
        <ele>738</ele>
        <time>2017-11-22T14:06:02Z</time>
      </trkpt>
      <trkpt lat="44.80623" lon="5.65747">
        <ele>738</ele>
        <time>2017-11-22T14:06:19Z</time>
      </trkpt>
      <trkpt lat="44.80594" lon="5.65725">
        <ele>739</ele>
        <time>2017-11-22T14:06:30Z</time>
      </trkpt>
      <trkpt lat="44.80535" lon="5.65685">
        <ele>744</ele>
        <time>2017-11-22T14:06:42Z</time>
      </trkpt>
      <trkpt lat="44.80505" lon="5.65662">
        <ele>745</ele>
        <time>2017-11-22T14:07:02Z</time>
      </trkpt>
      <trkpt lat="44.80487" lon="5.6564">
        <ele>745</ele>
        <time>2017-11-22T14:07:04Z</time>
      </trkpt>
      <trkpt lat="44.80452" lon="5.65588">
        <ele>746</ele>
        <time>2017-11-22T14:07:13Z</time>
      </trkpt>
      <trkpt lat="44.80427" lon="5.65546">
        <ele>748</ele>
        <time>2017-11-22T14:07:21Z</time>
      </trkpt>
      <trkpt lat="44.80411" lon="5.65502">
        <ele>751</ele>
        <time>2017-11-22T14:07:39Z</time>
      </trkpt>
      <trkpt lat="44.80387" lon="5.65415">
        <ele>758</ele>
        <time>2017-11-22T14:07:48Z</time>
      </trkpt>
      <trkpt lat="44.80373" lon="5.65379">
        <ele>759</ele>
        <time>2017-11-22T14:07:54Z</time>
      </trkpt>
      <trkpt lat="44.80362" lon="5.65361">
        <ele>760</ele>
        <time>2017-11-22T14:07:59Z</time>
      </trkpt>
      <trkpt lat="44.80354" lon="5.6535">
        <ele>761</ele>
        <time>2017-11-22T14:08:02Z</time>
      </trkpt>
      <trkpt lat="44.80323" lon="5.65327">
        <ele>766</ele>
        <time>2017-11-22T14:08:05Z</time>
      </trkpt>
      <trkpt lat="44.80226" lon="5.65269">
        <ele>769</ele>
        <time>2017-11-22T14:08:18Z</time>
      </trkpt>
      <trkpt lat="44.80212" lon="5.65259">
        <ele>769</ele>
        <time>2017-11-22T14:08:31Z</time>
      </trkpt>
      <trkpt lat="44.80201" lon="5.65241">
        <ele>774</ele>
        <time>2017-11-22T14:08:49Z</time>
      </trkpt>
      <trkpt lat="44.80194" lon="5.65212">
        <ele>774</ele>
        <time>2017-11-22T14:08:57Z</time>
      </trkpt>
      <trkpt lat="44.80193" lon="5.65181">
        <ele>776</ele>
        <time>2017-11-22T14:09:10Z</time>
      </trkpt>
      <trkpt lat="44.80203" lon="5.65116">
        <ele>779</ele>
        <time>2017-11-22T14:09:13Z</time>
      </trkpt>
      <trkpt lat="44.80213" lon="5.65024">
        <ele>783</ele>
        <time>2017-11-22T14:09:27Z</time>
      </trkpt>
      <trkpt lat="44.80213" lon="5.64984">
        <ele>786</ele>
        <time>2017-11-22T14:09:45Z</time>
      </trkpt>
      <trkpt lat="44.8021" lon="5.64936">
        <ele>788</ele>
        <time>2017-11-22T14:09:58Z</time>
      </trkpt>
      <trkpt lat="44.80192" lon="5.64826">
        <ele>789</ele>
        <time>2017-11-22T14:10:00Z</time>
      </trkpt>
      <trkpt lat="44.80182" lon="5.64787">
        <ele>788</ele>
        <time>2017-11-22T14:10:14Z</time>
      </trkpt>
      <trkpt lat="44.80171" lon="5.64769">
        <ele>788</ele>
        <time>2017-11-22T14:10:31Z</time>
      </trkpt>
      <trkpt lat="44.80122" lon="5.64704">
        <ele>788</ele>
        <time>2017-11-22T14:10:45Z</time>
      </trkpt>
      <trkpt lat="44.80101" lon="5.64678">
        <ele>787</ele>
        <time>2017-11-22T14:10:59Z</time>
      </trkpt>
      <trkpt lat="44.80083" lon="5.64659">
        <ele>785</ele>
        <time>2017-11-22T14:11:10Z</time>
      </trkpt>
      <trkpt lat="44.80045" lon="5.64627">
        <ele>783</ele>
        <time>2017-11-22T14:11:20Z</time>
      </trkpt>
      <trkpt lat="44.80017" lon="5.64585">
        <ele>783</ele>
        <time>2017-11-22T14:11:25Z</time>
      </trkpt>
      <trkpt lat="44.80005" lon="5.64561">
        <ele>782</ele>
        <time>2017-11-22T14:11:40Z</time>
      </trkpt>
      <trkpt lat="44.79999" lon="5.6455">
        <ele>786</ele>
        <time>2017-11-22T14:11:45Z</time>
      </trkpt>
      <trkpt lat="44.79998" lon="5.64561">
        <ele>786</ele>
        <time>2017-11-22T14:11:50Z</time>
      </trkpt>
      <trkpt lat="44.79995" lon="5.64578">
        <ele>785</ele>
        <time>2017-11-22T14:11:56Z</time>
      </trkpt>
      <trkpt lat="44.79991" lon="5.6459">
        <ele>783</ele>
        <time>2017-11-22T14:12:15Z</time>
      </trkpt>
      <trkpt lat="44.79989" lon="5.64598">
        <ele>782</ele>
        <time>2017-11-22T14:12:23Z</time>
      </trkpt>
      <trkpt lat="44.79977" lon="5.64602">
        <ele>782</ele>
        <time>2017-11-22T14:12:29Z</time>
      </trkpt>
      <trkpt lat="44.79939" lon="5.64602">
        <ele>781</ele>
        <time>2017-11-22T14:12:43Z</time>
      </trkpt>
      <trkpt lat="44.7989" lon="5.64594">
        <ele>777</ele>
        <time>2017-11-22T14:12:58Z</time>
      </trkpt>
      <trkpt lat="44.79867" lon="5.64587">
        <ele>775</ele>
        <time>2017-11-22T14:13:10Z</time>
      </trkpt>
      <trkpt lat="44.79857" lon="5.6458">
        <ele>782</ele>
        <time>2017-11-22T14:13:14Z</time>
      </trkpt>
      <trkpt lat="44.79867" lon="5.64587">
        <ele>775</ele>
        <time>2017-11-22T14:13:21Z</time>
      </trkpt>
      <trkpt lat="44.7989" lon="5.64594">
        <ele>777</ele>
        <time>2017-11-22T14:13:33Z</time>
      </trkpt>
      <trkpt lat="44.79939" lon="5.64602">
        <ele>781</ele>
        <time>2017-11-22T14:13:51Z</time>
      </trkpt>
      <trkpt lat="44.79977" lon="5.64602">
        <ele>782</ele>
        <time>2017-11-22T14:14:00Z</time>
      </trkpt>
      <trkpt lat="44.80017" lon="5.64585">
        <ele>783</ele>
        <time>2017-11-22T14:14:12Z</time>
      </trkpt>
      <trkpt lat="44.80005" lon="5.64561">
        <ele>782</ele>
        <time>2017-11-22T14:14:18Z</time>
      </trkpt>
      <trkpt lat="44.79999" lon="5.6455">
        <ele>786</ele>
        <time>2017-11-22T14:14:26Z</time>
      </trkpt>
      <trkpt lat="44.79995" lon="5.64531">
        <ele>786</ele>
        <time>2017-11-22T14:14:44Z</time>
      </trkpt>
      <trkpt lat="44.79984" lon="5.6447">
        <ele>788</ele>
        <time>2017-11-22T14:14:52Z</time>
      </trkpt>
      <trkpt lat="44.79963" lon="5.6435">
        <ele>789</ele>
        <time>2017-11-22T14:15:06Z</time>
      </trkpt>
      <trkpt lat="44.79951" lon="5.64303">
        <ele>790</ele>
        <time>2017-11-22T14:15:09Z</time>
      </trkpt>
      <trkpt lat="44.79926" lon="5.64229">
        <ele>791</ele>
        <time>2017-11-22T14:15:13Z</time>
      </trkpt>
      <trkpt lat="44.79895" lon="5.64147">
        <ele>796</ele>
        <time>2017-11-22T14:15:21Z</time>
      </trkpt>
      <trkpt lat="44.79884" lon="5.64123">
        <ele>797</ele>
        <time>2017-11-22T14:15:41Z</time>
      </trkpt>
      <trkpt lat="44.79865" lon="5.64096">
        <ele>799</ele>
        <time>2017-11-22T14:16:00Z</time>
      </trkpt>
      <trkpt lat="44.79849" lon="5.64082">
        <ele>803</ele>
        <time>2017-11-22T14:16:10Z</time>
      </trkpt>
      <trkpt lat="44.79838" lon="5.64075">
        <ele>803</ele>
        <time>2017-11-22T14:16:28Z</time>
      </trkpt>
      <trkpt lat="44.79778" lon="5.6405">
        <ele>810</ele>
        <time>2017-11-22T14:16:43Z</time>
      </trkpt>
      <trkpt lat="44.79759" lon="5.64043">
        <ele>811</ele>
        <time>2017-11-22T14:17:02Z</time>
      </trkpt>
      <trkpt lat="44.79713" lon="5.64035">
        <ele>815</ele>
        <time>2017-11-22T14:17:12Z</time>
      </trkpt>
      <trkpt lat="44.79675" lon="5.64025">
        <ele>817</ele>
        <time>2017-11-22T14:17:31Z</time>
      </trkpt>
      <trkpt lat="44.79657" lon="5.64013">
        <ele>819</ele>
        <time>2017-11-22T14:17:46Z</time>
      </trkpt>
      <trkpt lat="44.79637" lon="5.6399">
        <ele>823</ele>
        <time>2017-11-22T14:17:58Z</time>
      </trkpt>
      <trkpt lat="44.79616" lon="5.63957">
        <ele>823</ele>
        <time>2017-11-22T14:18:09Z</time>
      </trkpt>
      <trkpt lat="44.79605" lon="5.63933">
        <ele>824</ele>
        <time>2017-11-22T14:18:22Z</time>
      </trkpt>
      <trkpt lat="44.79602" lon="5.63909">
        <ele>827</ele>
        <time>2017-11-22T14:18:25Z</time>
      </trkpt>
      <trkpt lat="44.79606" lon="5.63886">
        <ele>829</ele>
        <time>2017-11-22T14:18:31Z</time>
      </trkpt>
      <trkpt lat="44.79616" lon="5.63868">
        <ele>830</ele>
        <time>2017-11-22T14:18:35Z</time>
      </trkpt>
      <trkpt lat="44.79656" lon="5.63828">
        <ele>837</ele>
        <time>2017-11-22T14:18:37Z</time>
      </trkpt>
      <trkpt lat="44.79668" lon="5.63814">
        <ele>836</ele>
        <time>2017-11-22T14:18:44Z</time>
      </trkpt>
      <trkpt lat="44.79675" lon="5.63801">
        <ele>835</ele>
        <time>2017-11-22T14:18:59Z</time>
      </trkpt>
      <trkpt lat="44.79688" lon="5.63771">
        <ele>836</ele>
        <time>2017-11-22T14:19:16Z</time>
      </trkpt>
      <trkpt lat="44.79695" lon="5.63729">
        <ele>838</ele>
        <time>2017-11-22T14:19:29Z</time>
      </trkpt>
      <trkpt lat="44.79699" lon="5.63701">
        <ele>838</ele>
        <time>2017-11-22T14:19:38Z</time>
      </trkpt>
      <trkpt lat="44.79709" lon="5.63663">
        <ele>839</ele>
        <time>2017-11-22T14:19:40Z</time>
      </trkpt>
      <trkpt lat="44.79719" lon="5.6363">
        <ele>838</ele>
        <time>2017-11-22T14:19:46Z</time>
      </trkpt>
      <trkpt lat="44.79724" lon="5.636">
        <ele>838</ele>
        <time>2017-11-22T14:19:52Z</time>
      </trkpt>
      <trkpt lat="44.79725" lon="5.63586">
        <ele>838</ele>
        <time>2017-11-22T14:20:01Z</time>
      </trkpt>
      <trkpt lat="44.79724" lon="5.63569">
        <ele>842</ele>
        <time>2017-11-22T14:20:16Z</time>
      </trkpt>
      <trkpt lat="44.79686" lon="5.63588">
        <ele>844</ele>
        <time>2017-11-22T14:20:32Z</time>
      </trkpt>
      <trkpt lat="44.79682" lon="5.63593">
        <ele>844</ele>
        <time>2017-11-22T14:20:38Z</time>
      </trkpt>
      <trkpt lat="44.79674" lon="5.63596">
        <ele>845</ele>
        <time>2017-11-22T14:20:40Z</time>
      </trkpt>
      <trkpt lat="44.79638" lon="5.63606">
        <ele>849</ele>
        <time>2017-11-22T14:20:54Z</time>
      </trkpt>
      <trkpt lat="44.79621" lon="5.63608">
        <ele>849</ele>
        <time>2017-11-22T14:21:00Z</time>
      </trkpt>
      <trkpt lat="44.79589" lon="5.63609">
        <ele>849</ele>
        <time>2017-11-22T14:21:14Z</time>
      </trkpt>
      <trkpt lat="44.79556" lon="5.63603">
        <ele>846</ele>
        <time>2017-11-22T14:21:32Z</time>
      </trkpt>
      <trkpt lat="44.79522" lon="5.63593">
        <ele>844</ele>
        <time>2017-11-22T14:21:41Z</time>
      </trkpt>
      <trkpt lat="44.79486" lon="5.63574">
        <ele>840</ele>
        <time>2017-11-22T14:21:54Z</time>
      </trkpt>
      <trkpt lat="44.79449" lon="5.63551">
        <ele>838</ele>
        <time>2017-11-22T14:21:58Z</time>
      </trkpt>
      <trkpt lat="44.79412" lon="5.63524">
        <ele>835</ele>
        <time>2017-11-22T14:22:05Z</time>
      </trkpt>
      <trkpt lat="44.79355" lon="5.63484">
        <ele>837</ele>
        <time>2017-11-22T14:22:13Z</time>
      </trkpt>
      <trkpt lat="44.79271" lon="5.63425">
        <ele>835</ele>
        <time>2017-11-22T14:22:30Z</time>
      </trkpt>
      <trkpt lat="44.7923" lon="5.634">
        <ele>834</ele>
        <time>2017-11-22T14:22:42Z</time>
      </trkpt>
      <trkpt lat="44.79192" lon="5.63383">
        <ele>832</ele>
        <time>2017-11-22T14:22:55Z</time>
      </trkpt>
      <trkpt lat="44.79145" lon="5.6337">
        <ele>828</ele>
        <time>2017-11-22T14:23:05Z</time>
      </trkpt>
      <trkpt lat="44.79111" lon="5.63368">
        <ele>828</ele>
        <time>2017-11-22T14:23:13Z</time>
      </trkpt>
      <trkpt lat="44.7907" lon="5.63369">
        <ele>828</ele>
        <time>2017-11-22T14:23:32Z</time>
      </trkpt>
      <trkpt lat="44.79013" lon="5.63382">
        <ele>828</ele>
        <time>2017-11-22T14:23:46Z</time>
      </trkpt>
      <trkpt lat="44.7896" lon="5.63408">
        <ele>824</ele>
        <time>2017-11-22T14:24:03Z</time>
      </trkpt>
      <trkpt lat="44.78943" lon="5.63419">
        <ele>815</ele>
        <time>2017-11-22T14:24:15Z</time>
      </trkpt>
      <trkpt lat="44.78916" lon="5.63441">
        <ele>809</ele>
        <time>2017-11-22T14:24:18Z</time>
      </trkpt>
      <trkpt lat="44.78888" lon="5.63468">
        <ele>806</ele>
        <time>2017-11-22T14:24:26Z</time>
      </trkpt>
      <trkpt lat="44.78856" lon="5.63505">
        <ele>802</ele>
        <time>2017-11-22T14:24:44Z</time>
      </trkpt>
      <trkpt lat="44.78827" lon="5.63549">
        <ele>808</ele>
        <time>2017-11-22T14:24:47Z</time>
      </trkpt>
      <trkpt lat="44.78817" lon="5.63567">
        <ele>808</ele>
        <time>2017-11-22T14:24:59Z</time>
      </trkpt>
      <trkpt lat="44.78811" lon="5.63573">
        <ele>809</ele>
        <time>2017-11-22T14:25:08Z</time>
      </trkpt>
      <trkpt lat="44.78784" lon="5.63632">
        <ele>815</ele>
        <time>2017-11-22T14:25:25Z</time>
      </trkpt>
      <trkpt lat="44.78769" lon="5.63673">
        <ele>819</ele>
        <time>2017-11-22T14:25:32Z</time>
      </trkpt>
      <trkpt lat="44.78759" lon="5.63711">
        <ele>818</ele>
        <time>2017-11-22T14:25:46Z</time>
      </trkpt>
      <trkpt lat="44.78746" lon="5.63778">
        <ele>828</ele>
        <time>2017-11-22T14:26:05Z</time>
      </trkpt>
      <trkpt lat="44.78741" lon="5.6384">
        <ele>826</ele>
        <time>2017-11-22T14:26:13Z</time>
      </trkpt>
      <trkpt lat="44.7874" lon="5.6388">
        <ele>828</ele>
        <time>2017-11-22T14:26:19Z</time>
      </trkpt>
      <trkpt lat="44.78743" lon="5.63923">
        <ele>824</ele>
        <time>2017-11-22T14:26:31Z</time>
      </trkpt>
      <trkpt lat="44.78751" lon="5.63986">
        <ele>820</ele>
        <time>2017-11-22T14:26:36Z</time>
      </trkpt>
      <trkpt lat="44.78764" lon="5.64072">
        <ele>821</ele>
        <time>2017-11-22T14:26:53Z</time>
      </trkpt>
      <trkpt lat="44.78769" lon="5.64107">
        <ele>821</ele>
        <time>2017-11-22T14:27:04Z</time>
      </trkpt>
      <trkpt lat="44.7877" lon="5.64136">
        <ele>821</ele>
        <time>2017-11-22T14:27:24Z</time>
      </trkpt>
      <trkpt lat="44.78772" lon="5.64181">
        <ele>824</ele>
        <time>2017-11-22T14:27:29Z</time>
      </trkpt>
      <trkpt lat="44.78771" lon="5.64226">
        <ele>824</ele>
        <time>2017-11-22T14:27:45Z</time>
      </trkpt>
      <trkpt lat="44.78765" lon="5.64295">
        <ele>825</ele>
        <time>2017-11-22T14:27:53Z</time>
      </trkpt>
      <trkpt lat="44.78757" lon="5.64342">
        <ele>825</ele>
        <time>2017-11-22T14:28:09Z</time>
      </trkpt>
      <trkpt lat="44.78745" lon="5.64388">
        <ele>823</ele>
        <time>2017-11-22T14:28:18Z</time>
      </trkpt>
      <trkpt lat="44.78731" lon="5.64431">
        <ele>822</ele>
        <time>2017-11-22T14:28:20Z</time>
      </trkpt>
      <trkpt lat="44.78719" lon="5.64463">
        <ele>822</ele>
        <time>2017-11-22T14:28:40Z</time>
      </trkpt>
      <trkpt lat="44.78692" lon="5.64527">
        <ele>823</ele>
        <time>2017-11-22T14:28:59Z</time>
      </trkpt>
      <trkpt lat="44.7867" lon="5.64565">
        <ele>825</ele>
        <time>2017-11-22T14:29:09Z</time>
      </trkpt>
      <trkpt lat="44.7865" lon="5.64591">
        <ele>829</ele>
        <time>2017-11-22T14:29:19Z</time>
      </trkpt>
      <trkpt lat="44.78619" lon="5.64623">
        <ele>830</ele>
        <time>2017-11-22T14:29:28Z</time>
      </trkpt>
      <trkpt lat="44.78589" lon="5.64649">
        <ele>831</ele>
        <time>2017-11-22T14:29:48Z</time>
      </trkpt>
      <trkpt lat="44.78558" lon="5.6467">
        <ele>834</ele>
        <time>2017-11-22T14:29:52Z</time>
      </trkpt>
      <trkpt lat="44.78529" lon="5.64685">
        <ele>835</ele>
        <time>2017-11-22T14:30:11Z</time>
      </trkpt>
      <trkpt lat="44.78495" lon="5.64698">
        <ele>837</ele>
        <time>2017-11-22T14:30:24Z</time>
      </trkpt>
      <trkpt lat="44.78463" lon="5.64706">
        <ele>837</ele>
        <time>2017-11-22T14:30:32Z</time>
      </trkpt>
      <trkpt lat="44.78433" lon="5.6471">
        <ele>836</ele>
        <time>2017-11-22T14:30:48Z</time>
      </trkpt>
      <trkpt lat="44.7839" lon="5.64709">
        <ele>835</ele>
        <time>2017-11-22T14:31:03Z</time>
      </trkpt>
      <trkpt lat="44.78361" lon="5.64705">
        <ele>835</ele>
        <time>2017-11-22T14:31:07Z</time>
      </trkpt>
      <trkpt lat="44.78313" lon="5.6469">
        <ele>834</ele>
        <time>2017-11-22T14:31:10Z</time>
      </trkpt>
      <trkpt lat="44.78277" lon="5.64674">
        <ele>834</ele>
        <time>2017-11-22T14:31:26Z</time>
      </trkpt>
      <trkpt lat="44.78231" lon="5.64651">
        <ele>844</ele>
        <time>2017-11-22T14:31:28Z</time>
      </trkpt>
      <trkpt lat="44.78186" lon="5.64634">
        <ele>845</ele>
        <time>2017-11-22T14:31:44Z</time>
      </trkpt>
      <trkpt lat="44.78129" lon="5.64615">
        <ele>843</ele>
        <time>2017-11-22T14:32:02Z</time>
      </trkpt>
      <trkpt lat="44.78084" lon="5.64599">
        <ele>844</ele>
        <time>2017-11-22T14:32:09Z</time>
      </trkpt>
      <trkpt lat="44.78048" lon="5.64581">
        <ele>850</ele>
        <time>2017-11-22T14:32:22Z</time>
      </trkpt>
      <trkpt lat="44.78006" lon="5.64562">
        <ele>847</ele>
        <time>2017-11-22T14:32:31Z</time>
      </trkpt>
      <trkpt lat="44.77976" lon="5.64538">
        <ele>846</ele>
        <time>2017-11-22T14:32:37Z</time>
      </trkpt>
      <trkpt lat="44.77953" lon="5.64512">
        <ele>847</ele>
        <time>2017-11-22T14:32:51Z</time>
      </trkpt>
      <trkpt lat="44.77932" lon="5.64477">
        <ele>853</ele>
        <time>2017-11-22T14:32:58Z</time>
      </trkpt>
      <trkpt lat="44.77919" lon="5.64463">
        <ele>854</ele>
        <time>2017-11-22T14:33:02Z</time>
      </trkpt>
      <trkpt lat="44.77908" lon="5.6446">
        <ele>856</ele>
        <time>2017-11-22T14:33:09Z</time>
      </trkpt>
      <trkpt lat="44.77901" lon="5.6446">
        <ele>856</ele>
        <time>2017-11-22T14:33:13Z</time>
      </trkpt>
      <trkpt lat="44.77893" lon="5.64465">
        <ele>857</ele>
        <time>2017-11-22T14:33:19Z</time>
      </trkpt>
      <trkpt lat="44.77881" lon="5.64485">
        <ele>858</ele>
        <time>2017-11-22T14:33:25Z</time>
      </trkpt>
      <trkpt lat="44.77878" lon="5.64519">
        <ele>858</ele>
        <time>2017-11-22T14:33:42Z</time>
      </trkpt>
      <trkpt lat="44.7788" lon="5.64542">
        <ele>858</ele>
        <time>2017-11-22T14:33:54Z</time>
      </trkpt>
      <trkpt lat="44.77885" lon="5.64566">
        <ele>856</ele>
        <time>2017-11-22T14:34:10Z</time>
      </trkpt>
      <trkpt lat="44.77894" lon="5.64597">
        <ele>854</ele>
        <time>2017-11-22T14:34:12Z</time>
      </trkpt>
      <trkpt lat="44.77906" lon="5.64624">
        <ele>855</ele>
        <time>2017-11-22T14:34:17Z</time>
      </trkpt>
      <trkpt lat="44.77932" lon="5.64678">
        <ele>845</ele>
        <time>2017-11-22T14:34:21Z</time>
      </trkpt>
      <trkpt lat="44.77963" lon="5.64726">
        <ele>844</ele>
        <time>2017-11-22T14:34:27Z</time>
      </trkpt>
      <trkpt lat="44.77983" lon="5.64748">
        <ele>842</ele>
        <time>2017-11-22T14:34:36Z</time>
      </trkpt>
      <trkpt lat="44.78007" lon="5.64769">
        <ele>839</ele>
        <time>2017-11-22T14:34:48Z</time>
      </trkpt>
      <trkpt lat="44.78048" lon="5.64805">
        <ele>838</ele>
        <time>2017-11-22T14:34:52Z</time>
      </trkpt>
      <trkpt lat="44.78058" lon="5.64817">
        <ele>838</ele>
        <time>2017-11-22T14:35:06Z</time>
      </trkpt>
      <trkpt lat="44.78065" lon="5.64829">
        <ele>837</ele>
        <time>2017-11-22T14:35:13Z</time>
      </trkpt>
      <trkpt lat="44.78069" lon="5.64842">
        <ele>841</ele>
        <time>2017-11-22T14:35:16Z</time>
      </trkpt>
      <trkpt lat="44.78074" lon="5.64856">
        <ele>842</ele>
        <time>2017-11-22T14:35:33Z</time>
      </trkpt>
      <trkpt lat="44.78079" lon="5.64882">
        <ele>843</ele>
        <time>2017-11-22T14:35:36Z</time>
      </trkpt>
      <trkpt lat="44.78081" lon="5.6492">
        <ele>843</ele>
        <time>2017-11-22T14:35:56Z</time>
      </trkpt>
      <trkpt lat="44.78069" lon="5.65019">
        <ele>846</ele>
        <time>2017-11-22T14:36:00Z</time>
      </trkpt>
      <trkpt lat="44.78059" lon="5.65082">
        <ele>845</ele>
        <time>2017-11-22T14:36:05Z</time>
      </trkpt>
      <trkpt lat="44.78048" lon="5.65122">
        <ele>844</ele>
        <time>2017-11-22T14:36:14Z</time>
      </trkpt>
      <trkpt lat="44.78033" lon="5.65158">
        <ele>844</ele>
        <time>2017-11-22T14:36:30Z</time>
      </trkpt>
      <trkpt lat="44.78003" lon="5.65201">
        <ele>841</ele>
        <time>2017-11-22T14:36:37Z</time>
      </trkpt>
      <trkpt lat="44.77987" lon="5.65218">
        <ele>846</ele>
        <time>2017-11-22T14:36:53Z</time>
      </trkpt>
      <trkpt lat="44.7794" lon="5.65251">
        <ele>842</ele>
        <time>2017-11-22T14:37:08Z</time>
      </trkpt>
      <trkpt lat="44.77886" lon="5.6528">
        <ele>843</ele>
        <time>2017-11-22T14:37:14Z</time>
      </trkpt>
      <trkpt lat="44.77866" lon="5.65288">
        <ele>843</ele>
        <time>2017-11-22T14:37:24Z</time>
      </trkpt>
      <trkpt lat="44.77846" lon="5.65291">
        <ele>843</ele>
        <time>2017-11-22T14:37:28Z</time>
      </trkpt>
      <trkpt lat="44.77788" lon="5.65288">
        <ele>845</ele>
        <time>2017-11-22T14:37:39Z</time>
      </trkpt>
      <trkpt lat="44.77719" lon="5.65278">
        <ele>847</ele>
        <time>2017-11-22T14:37:59Z</time>
      </trkpt>
      <trkpt lat="44.77639" lon="5.6526">
        <ele>850</ele>
        <time>2017-11-22T14:38:12Z</time>
      </trkpt>
      <trkpt lat="44.7757" lon="5.65258">
        <ele>852</ele>
        <time>2017-11-22T14:38:16Z</time>
      </trkpt>
      <trkpt lat="44.77515" lon="5.6526">
        <ele>854</ele>
        <time>2017-11-22T14:38:18Z</time>
      </trkpt>
      <trkpt lat="44.77506" lon="5.65265">
        <ele>854</ele>
        <time>2017-11-22T14:38:30Z</time>
      </trkpt>
      <trkpt lat="44.77497" lon="5.65278">
        <ele>861</ele>
        <time>2017-11-22T14:38:39Z</time>
      </trkpt>
      <trkpt lat="44.77493" lon="5.65295">
        <ele>862</ele>
        <time>2017-11-22T14:38:58Z</time>
      </trkpt>
      <trkpt lat="44.77493" lon="5.65309">
        <ele>862</ele>
        <time>2017-11-22T14:39:12Z</time>
      </trkpt>
      <trkpt lat="44.77497" lon="5.65322">
        <ele>861</ele>
        <time>2017-11-22T14:39:30Z</time>
      </trkpt>
      <trkpt lat="44.77526" lon="5.65363">
        <ele>858</ele>
        <time>2017-11-22T14:39:47Z</time>
      </trkpt>
      <trkpt lat="44.77582" lon="5.65433">
        <ele>860</ele>
        <time>2017-11-22T14:40:00Z</time>
      </trkpt>
      <trkpt lat="44.77612" lon="5.65469">
        <ele>854</ele>
        <time>2017-11-22T14:40:18Z</time>
      </trkpt>
      <trkpt lat="44.77634" lon="5.6551">
        <ele>857</ele>
        <time>2017-11-22T14:40:26Z</time>
      </trkpt>
      <trkpt lat="44.77647" lon="5.65549">
        <ele>858</ele>
        <time>2017-11-22T14:40:30Z</time>
      </trkpt>
      <trkpt lat="44.77661" lon="5.65604">
        <ele>859</ele>
        <time>2017-11-22T14:40:37Z</time>
      </trkpt>
      <trkpt lat="44.77687" lon="5.65709">
        <ele>856</ele>
        <time>2017-11-22T14:40:48Z</time>
      </trkpt>
      <trkpt lat="44.7771" lon="5.65811">
        <ele>856</ele>
        <time>2017-11-22T14:40:59Z</time>
      </trkpt>
      <trkpt lat="44.77717" lon="5.65855">
        <ele>856</ele>
        <time>2017-11-22T14:41:08Z</time>
      </trkpt>
      <trkpt lat="44.77718" lon="5.6589">
        <ele>856</ele>
        <time>2017-11-22T14:41:21Z</time>
      </trkpt>
      <trkpt lat="44.77714" lon="5.65921">
        <ele>856</ele>
        <time>2017-11-22T14:41:29Z</time>
      </trkpt>
      <trkpt lat="44.77707" lon="5.65951">
        <ele>857</ele>
        <time>2017-11-22T14:41:48Z</time>
      </trkpt>
      <trkpt lat="44.77694" lon="5.6598">
        <ele>857</ele>
        <time>2017-11-22T14:41:52Z</time>
      </trkpt>
      <trkpt lat="44.77675" lon="5.66006">
        <ele>858</ele>
        <time>2017-11-22T14:42:07Z</time>
      </trkpt>
      <trkpt lat="44.77656" lon="5.66024">
        <ele>859</ele>
        <time>2017-11-22T14:42:09Z</time>
      </trkpt>
      <trkpt lat="44.77641" lon="5.66034">
        <ele>859</ele>
        <time>2017-11-22T14:42:26Z</time>
      </trkpt>
      <trkpt lat="44.77616" lon="5.66042">
        <ele>859</ele>
        <time>2017-11-22T14:42:40Z</time>
      </trkpt>
      <trkpt lat="44.77586" lon="5.66042">
        <ele>859</ele>
        <time>2017-11-22T14:42:47Z</time>
      </trkpt>
      <trkpt lat="44.7757" lon="5.66039">
        <ele>858</ele>
        <time>2017-11-22T14:42:52Z</time>
      </trkpt>
      <trkpt lat="44.7755" lon="5.66031">
        <ele>858</ele>
        <time>2017-11-22T14:42:55Z</time>
      </trkpt>
      <trkpt lat="44.77519" lon="5.66014">
        <ele>859</ele>
        <time>2017-11-22T14:43:14Z</time>
      </trkpt>
      <trkpt lat="44.77464" lon="5.65982">
        <ele>865</ele>
        <time>2017-11-22T14:43:30Z</time>
      </trkpt>
      <trkpt lat="44.77413" lon="5.65954">
        <ele>867</ele>
        <time>2017-11-22T14:43:50Z</time>
      </trkpt>
      <trkpt lat="44.77396" lon="5.65948">
        <ele>867</ele>
        <time>2017-11-22T14:44:09Z</time>
      </trkpt>
      <trkpt lat="44.77379" lon="5.65947">
        <ele>867</ele>
        <time>2017-11-22T14:44:26Z</time>
      </trkpt>
      <trkpt lat="44.77366" lon="5.65948">
        <ele>868</ele>
        <time>2017-11-22T14:44:29Z</time>
      </trkpt>
      <trkpt lat="44.77351" lon="5.65955">
        <ele>867</ele>
        <time>2017-11-22T14:44:46Z</time>
      </trkpt>
      <trkpt lat="44.77338" lon="5.65963">
        <ele>866</ele>
        <time>2017-11-22T14:45:00Z</time>
      </trkpt>
      <trkpt lat="44.77322" lon="5.65979">
        <ele>868</ele>
        <time>2017-11-22T14:45:13Z</time>
      </trkpt>
      <trkpt lat="44.773" lon="5.66013">
        <ele>863</ele>
        <time>2017-11-22T14:45:18Z</time>
      </trkpt>
      <trkpt lat="44.77278" lon="5.66049">
        <ele>863</ele>
        <time>2017-11-22T14:45:31Z</time>
      </trkpt>
      <trkpt lat="44.77251" lon="5.66082">
        <ele>865</ele>
        <time>2017-11-22T14:45:36Z</time>
      </trkpt>
      <trkpt lat="44.77212" lon="5.66123">
        <ele>866</ele>
        <time>2017-11-22T14:45:39Z</time>
      </trkpt>
      <trkpt lat="44.77205" lon="5.6613">
        <ele>866</ele>
        <time>2017-11-22T14:45:58Z</time>
      </trkpt>
      <trkpt lat="44.77197" lon="5.66131">
        <ele>867</ele>
        <time>2017-11-22T14:46:11Z</time>
      </trkpt>
      <trkpt lat="44.7717" lon="5.66156">
        <ele>866</ele>
        <time>2017-11-22T14:46:14Z</time>
      </trkpt>
      <trkpt lat="44.77118" lon="5.66193">
        <ele>866</ele>
        <time>2017-11-22T14:46:29Z</time>
      </trkpt>
      <trkpt lat="44.77089" lon="5.66211">
        <ele>866</ele>
        <time>2017-11-22T14:46:32Z</time>
      </trkpt>
      <trkpt lat="44.77089" lon="5.66222">
        <ele>865</ele>
        <time>2017-11-22T14:46:47Z</time>
      </trkpt>
      <trkpt lat="44.7708" lon="5.66239">
        <ele>865</ele>
        <time>2017-11-22T14:47:06Z</time>
      </trkpt>
      <trkpt lat="44.77073" lon="5.66245">
        <ele>865</ele>
        <time>2017-11-22T14:47:16Z</time>
      </trkpt>
      <trkpt lat="44.77038" lon="5.66264">
        <ele>859</ele>
        <time>2017-11-22T14:47:23Z</time>
      </trkpt>
      <trkpt lat="44.77018" lon="5.66273">
        <ele>859</ele>
        <time>2017-11-22T14:47:38Z</time>
      </trkpt>
      <trkpt lat="44.7699" lon="5.66282">
        <ele>859</ele>
        <time>2017-11-22T14:47:47Z</time>
      </trkpt>
      <trkpt lat="44.76924" lon="5.66298">
        <ele>856</ele>
        <time>2017-11-22T14:47:58Z</time>
      </trkpt>
      <trkpt lat="44.76898" lon="5.66304">
        <ele>853</ele>
        <time>2017-11-22T14:48:06Z</time>
      </trkpt>
      <trkpt lat="44.76876" lon="5.66301">
        <ele>853</ele>
        <time>2017-11-22T14:48:14Z</time>
      </trkpt>
      <trkpt lat="44.76844" lon="5.66292">
        <ele>853</ele>
        <time>2017-11-22T14:48:27Z</time>
      </trkpt>
      <trkpt lat="44.76828" lon="5.66276">
        <ele>849</ele>
        <time>2017-11-22T14:48:45Z</time>
      </trkpt>
      <trkpt lat="44.76816" lon="5.66258">
        <ele>851</ele>
        <time>2017-11-22T14:49:03Z</time>
      </trkpt>
      <trkpt lat="44.76803" lon="5.66245">
        <ele>860</ele>
        <time>2017-11-22T14:49:07Z</time>
      </trkpt>
      <trkpt lat="44.76764" lon="5.66215">
        <ele>858</ele>
        <time>2017-11-22T14:49:09Z</time>
      </trkpt>
      <trkpt lat="44.76737" lon="5.66193">
        <ele>852</ele>
        <time>2017-11-22T14:49:12Z</time>
      </trkpt>
      <trkpt lat="44.76706" lon="5.66181">
        <ele>849</ele>
        <time>2017-11-22T14:49:16Z</time>
      </trkpt>
      <trkpt lat="44.76633" lon="5.6615">
        <ele>852</ele>
        <time>2017-11-22T14:49:36Z</time>
      </trkpt>
      <trkpt lat="44.7662" lon="5.66147">
        <ele>852</ele>
        <time>2017-11-22T14:49:50Z</time>
      </trkpt>
      <trkpt lat="44.76609" lon="5.66148">
        <ele>851</ele>
        <time>2017-11-22T14:50:00Z</time>
      </trkpt>
      <trkpt lat="44.76592" lon="5.66158">
        <ele>846</ele>
        <time>2017-11-22T14:50:15Z</time>
      </trkpt>
      <trkpt lat="44.7658" lon="5.66175">
        <ele>841</ele>
        <time>2017-11-22T14:50:19Z</time>
      </trkpt>
      <trkpt lat="44.76568" lon="5.66219">
        <ele>839</ele>
        <time>2017-11-22T14:50:30Z</time>
      </trkpt>
      <trkpt lat="44.7656" lon="5.66248">
        <ele>838</ele>
        <time>2017-11-22T14:50:46Z</time>
      </trkpt>
      <trkpt lat="44.76554" lon="5.66263">
        <ele>837</ele>
        <time>2017-11-22T14:50:54Z</time>
      </trkpt>
      <trkpt lat="44.76538" lon="5.6628">
        <ele>838</ele>
        <time>2017-11-22T14:51:06Z</time>
      </trkpt>
      <trkpt lat="44.76523" lon="5.66292">
        <ele>838</ele>
        <time>2017-11-22T14:51:10Z</time>
      </trkpt>
      <trkpt lat="44.76509" lon="5.66306">
        <ele>838</ele>
        <time>2017-11-22T14:51:19Z</time>
      </trkpt>
      <trkpt lat="44.76502" lon="5.66321">
        <ele>839</ele>
        <time>2017-11-22T14:51:34Z</time>
      </trkpt>
      <trkpt lat="44.76493" lon="5.66347">
        <ele>841</ele>
        <time>2017-11-22T14:51:36Z</time>
      </trkpt>
      <trkpt lat="44.7649" lon="5.66355">
        <ele>841</ele>
        <time>2017-11-22T14:51:47Z</time>
      </trkpt>
      <trkpt lat="44.76481" lon="5.66368">
        <ele>841</ele>
        <time>2017-11-22T14:52:03Z</time>
      </trkpt>
      <trkpt lat="44.76452" lon="5.66404">
        <ele>842</ele>
        <time>2017-11-22T14:52:12Z</time>
      </trkpt>
      <trkpt lat="44.7643" lon="5.66431">
        <ele>840</ele>
        <time>2017-11-22T14:52:28Z</time>
      </trkpt>
      <trkpt lat="44.76418" lon="5.6644">
        <ele>840</ele>
        <time>2017-11-22T14:52:35Z</time>
      </trkpt>
      <trkpt lat="44.76403" lon="5.66456">
        <ele>842</ele>
        <time>2017-11-22T14:52:39Z</time>
      </trkpt>
      <trkpt lat="44.76388" lon="5.66481">
        <ele>842</ele>
        <time>2017-11-22T14:52:50Z</time>
      </trkpt>
      <trkpt lat="44.76375" lon="5.66502">
        <ele>839</ele>
        <time>2017-11-22T14:53:10Z</time>
      </trkpt>
      <trkpt lat="44.76362" lon="5.6653">
        <ele>839</ele>
        <time>2017-11-22T14:53:28Z</time>
      </trkpt>
      <trkpt lat="44.76345" lon="5.66566">
        <ele>839</ele>
        <time>2017-11-22T14:53:46Z</time>
      </trkpt>
      <trkpt lat="44.76337" lon="5.66581">
        <ele>839</ele>
        <time>2017-11-22T14:53:59Z</time>
      </trkpt>
      <trkpt lat="44.76331" lon="5.66589">
        <ele>839</ele>
        <time>2017-11-22T14:54:18Z</time>
      </trkpt>
      <trkpt lat="44.7633" lon="5.66604">
        <ele>839</ele>
        <time>2017-11-22T14:54:37Z</time>
      </trkpt>
      <trkpt lat="44.76312" lon="5.66642">
        <ele>839</ele>
        <time>2017-11-22T14:54:53Z</time>
      </trkpt>
      <trkpt lat="44.763" lon="5.66662">
        <ele>839</ele>
        <time>2017-11-22T14:55:03Z</time>
      </trkpt>
      <trkpt lat="44.76312" lon="5.66642">
        <ele>839</ele>
        <time>2017-11-22T14:55:19Z</time>
      </trkpt>
      <trkpt lat="44.7633" lon="5.66604">
        <ele>839</ele>
        <time>2017-11-22T14:55:39Z</time>
      </trkpt>
      <trkpt lat="44.76331" lon="5.66589">
        <ele>839</ele>
        <time>2017-11-22T14:55:47Z</time>
      </trkpt>
      <trkpt lat="44.76317" lon="5.666">
        <ele>840</ele>
        <time>2017-11-22T14:56:07Z</time>
      </trkpt>
      <trkpt lat="44.76289" lon="5.66619">
        <ele>840</ele>
        <time>2017-11-22T14:56:16Z</time>
      </trkpt>
      <trkpt lat="44.76274" lon="5.66632">
        <ele>840</ele>
        <time>2017-11-22T14:56:18Z</time>
      </trkpt>
      <trkpt lat="44.7624" lon="5.6668">
        <ele>846</ele>
        <time>2017-11-22T14:56:33Z</time>
      </trkpt>
      <trkpt lat="44.76216" lon="5.66715">
        <ele>849</ele>
        <time>2017-11-22T14:56:51Z</time>
      </trkpt>
      <trkpt lat="44.76203" lon="5.6674">
        <ele>850</ele>
        <time>2017-11-22T14:57:02Z</time>
      </trkpt>
      <trkpt lat="44.76192" lon="5.66783">
        <ele>852</ele>
        <time>2017-11-22T14:57:17Z</time>
      </trkpt>
      <trkpt lat="44.76191" lon="5.66801">
        <ele>853</ele>
        <time>2017-11-22T14:57:26Z</time>
      </trkpt>
      <trkpt lat="44.76196" lon="5.66819">
        <ele>853</ele>
        <time>2017-11-22T14:57:33Z</time>
      </trkpt>
      <trkpt lat="44.76209" lon="5.66855">
        <ele>853</ele>
        <time>2017-11-22T14:57:48Z</time>
      </trkpt>
      <trkpt lat="44.76213" lon="5.66883">
        <ele>853</ele>
        <time>2017-11-22T14:57:50Z</time>
      </trkpt>
      <trkpt lat="44.76211" lon="5.66912">
        <ele>853</ele>
        <time>2017-11-22T14:58:09Z</time>
      </trkpt>
      <trkpt lat="44.76216" lon="5.66931">
        <ele>855</ele>
        <time>2017-11-22T14:58:23Z</time>
      </trkpt>
      <trkpt lat="44.76233" lon="5.66957">
        <ele>854</ele>
        <time>2017-11-22T14:58:32Z</time>
      </trkpt>
      <trkpt lat="44.76244" lon="5.66997">
        <ele>854</ele>
        <time>2017-11-22T14:58:47Z</time>
      </trkpt>
      <trkpt lat="44.76247" lon="5.67029">
        <ele>857</ele>
        <time>2017-11-22T14:59:03Z</time>
      </trkpt>
      <trkpt lat="44.76245" lon="5.6704">
        <ele>858</ele>
        <time>2017-11-22T14:59:11Z</time>
      </trkpt>
      <trkpt lat="44.76239" lon="5.67049">
        <ele>858</ele>
        <time>2017-11-22T14:59:18Z</time>
      </trkpt>
      <trkpt lat="44.76233" lon="5.67052">
        <ele>858</ele>
        <time>2017-11-22T14:59:38Z</time>
      </trkpt>
      <trkpt lat="44.76224" lon="5.67052">
        <ele>858</ele>
        <time>2017-11-22T14:59:45Z</time>
      </trkpt>
      <trkpt lat="44.76199" lon="5.67051">
        <ele>859</ele>
        <time>2017-11-22T14:59:51Z</time>
      </trkpt>
      <trkpt lat="44.76178" lon="5.6705">
        <ele>859</ele>
        <time>2017-11-22T15:00:00Z</time>
      </trkpt>
      <trkpt lat="44.7617" lon="5.67051">
        <ele>859</ele>
        <time>2017-11-22T15:00:03Z</time>
      </trkpt>
      <trkpt lat="44.7615" lon="5.67045">
        <ele>857</ele>
        <time>2017-11-22T15:00:20Z</time>
      </trkpt>
      <trkpt lat="44.76129" lon="5.67034">
        <ele>857</ele>
        <time>2017-11-22T15:00:34Z</time>
      </trkpt>
      <trkpt lat="44.76114" lon="5.67019">
        <ele>856</ele>
        <time>2017-11-22T15:00:41Z</time>
      </trkpt>
      <trkpt lat="44.76094" lon="5.6699">
        <ele>860</ele>
        <time>2017-11-22T15:00:44Z</time>
      </trkpt>
      <trkpt lat="44.76073" lon="5.66974">
        <ele>860</ele>
        <time>2017-11-22T15:01:00Z</time>
      </trkpt>
      <trkpt lat="44.76043" lon="5.66964">
        <ele>860</ele>
        <time>2017-11-22T15:01:11Z</time>
      </trkpt>
      <trkpt lat="44.7601" lon="5.66964">
        <ele>858</ele>
        <time>2017-11-22T15:01:23Z</time>
      </trkpt>
      <trkpt lat="44.75989" lon="5.66971">
        <ele>857</ele>
        <time>2017-11-22T15:01:29Z</time>
      </trkpt>
      <trkpt lat="44.75978" lon="5.6698">
        <ele>857</ele>
        <time>2017-11-22T15:01:33Z</time>
      </trkpt>
      <trkpt lat="44.7597" lon="5.66996">
        <ele>857</ele>
        <time>2017-11-22T15:01:52Z</time>
      </trkpt>
      <trkpt lat="44.75957" lon="5.67066">
        <ele>855</ele>
        <time>2017-11-22T15:01:55Z</time>
      </trkpt>
      <trkpt lat="44.75947" lon="5.67142">
        <ele>854</ele>
        <time>2017-11-22T15:02:11Z</time>
      </trkpt>
      <trkpt lat="44.75947" lon="5.67217">
        <ele>852</ele>
        <time>2017-11-22T15:02:26Z</time>
      </trkpt>
      <trkpt lat="44.75945" lon="5.67288">
        <ele>848</ele>
        <time>2017-11-22T15:02:33Z</time>
      </trkpt>
      <trkpt lat="44.75937" lon="5.67345">
        <ele>847</ele>
        <time>2017-11-22T15:02:47Z</time>
      </trkpt>
      <trkpt lat="44.75934" lon="5.6738">
        <ele>845</ele>
        <time>2017-11-22T15:02:51Z</time>
      </trkpt>
      <trkpt lat="44.75934" lon="5.6741">
        <ele>846</ele>
        <time>2017-11-22T15:03:04Z</time>
      </trkpt>
      <trkpt lat="44.75942" lon="5.67473">
        <ele>840</ele>
        <time>2017-11-22T15:03:11Z</time>
      </trkpt>
      <trkpt lat="44.75954" lon="5.67528">
        <ele>836</ele>
        <time>2017-11-22T15:03:31Z</time>
      </trkpt>
      <trkpt lat="44.75954" lon="5.67557">
        <ele>836</ele>
        <time>2017-11-22T15:03:40Z</time>
      </trkpt>
      <trkpt lat="44.75947" lon="5.67576">
        <ele>837</ele>
        <time>2017-11-22T15:03:43Z</time>
      </trkpt>
      <trkpt lat="44.75921" lon="5.67594">
        <ele>838</ele>
        <time>2017-11-22T15:03:56Z</time>
      </trkpt>
      <trkpt lat="44.75901" lon="5.67605">
        <ele>841</ele>
        <time>2017-11-22T15:04:02Z</time>
      </trkpt>
      <trkpt lat="44.75885" lon="5.67612">
        <ele>841</ele>
        <time>2017-11-22T15:04:16Z</time>
      </trkpt>
      <trkpt lat="44.75817" lon="5.67623">
        <ele>844</ele>
        <time>2017-11-22T15:04:18Z</time>
      </trkpt>
      <trkpt lat="44.75802" lon="5.67631">
        <ele>844</ele>
        <time>2017-11-22T15:04:21Z</time>
      </trkpt>
      <trkpt lat="44.75799" lon="5.67653">
        <ele>844</ele>
        <time>2017-11-22T15:04:39Z</time>
      </trkpt>
      <trkpt lat="44.75794" lon="5.67677">
        <ele>841</ele>
        <time>2017-11-22T15:04:53Z</time>
      </trkpt>
      <trkpt lat="44.75788" lon="5.67707">
        <ele>840</ele>
        <time>2017-11-22T15:05:07Z</time>
      </trkpt>
      <trkpt lat="44.75786" lon="5.67736">
        <ele>840</ele>
        <time>2017-11-22T15:05:12Z</time>
      </trkpt>
      <trkpt lat="44.75784" lon="5.67821">
        <ele>835</ele>
        <time>2017-11-22T15:05:21Z</time>
      </trkpt>
      <trkpt lat="44.75779" lon="5.67845">
        <ele>832</ele>
        <time>2017-11-22T15:05:37Z</time>
      </trkpt>
      <trkpt lat="44.75752" lon="5.67902">
        <ele>831</ele>
        <time>2017-11-22T15:05:45Z</time>
      </trkpt>
      <trkpt lat="44.75725" lon="5.67962">
        <ele>829</ele>
        <time>2017-11-22T15:06:00Z</time>
      </trkpt>
      <trkpt lat="44.75709" lon="5.67996">
        <ele>829</ele>
        <time>2017-11-22T15:06:07Z</time>
      </trkpt>
      <trkpt lat="44.75693" lon="5.68021">
        <ele>824</ele>
        <time>2017-11-22T15:06:14Z</time>
      </trkpt>
      <trkpt lat="44.75686" lon="5.68031">
        <ele>823</ele>
        <time>2017-11-22T15:06:34Z</time>
      </trkpt>
      <trkpt lat="44.75666" lon="5.68039">
        <ele>820</ele>
        <time>2017-11-22T15:06:46Z</time>
      </trkpt>
      <trkpt lat="44.75653" lon="5.68041">
        <ele>819</ele>
        <time>2017-11-22T15:07:04Z</time>
      </trkpt>
      <trkpt lat="44.75637" lon="5.68038">
        <ele>819</ele>
        <time>2017-11-22T15:07:17Z</time>
      </trkpt>
      <trkpt lat="44.75598" lon="5.68026">
        <ele>819</ele>
        <time>2017-11-22T15:07:30Z</time>
      </trkpt>
      <trkpt lat="44.75581" lon="5.68022">
        <ele>817</ele>
        <time>2017-11-22T15:07:38Z</time>
      </trkpt>
      <trkpt lat="44.7556" lon="5.68021">
        <ele>816</ele>
        <time>2017-11-22T15:07:54Z</time>
      </trkpt>
      <trkpt lat="44.75525" lon="5.68031">
        <ele>815</ele>
        <time>2017-11-22T15:08:10Z</time>
      </trkpt>
      <trkpt lat="44.75506" lon="5.68032">
        <ele>815</ele>
        <time>2017-11-22T15:08:18Z</time>
      </trkpt>
      <trkpt lat="44.75479" lon="5.68017">
        <ele>815</ele>
        <time>2017-11-22T15:08:34Z</time>
      </trkpt>
      <trkpt lat="44.75443" lon="5.67993">
        <ele>822</ele>
        <time>2017-11-22T15:08:49Z</time>
      </trkpt>
      <trkpt lat="44.75427" lon="5.67991">
        <ele>820</ele>
        <time>2017-11-22T15:09:00Z</time>
      </trkpt>
      <trkpt lat="44.75417" lon="5.67994">
        <ele>817</ele>
        <time>2017-11-22T15:09:09Z</time>
      </trkpt>
      <trkpt lat="44.75406" lon="5.68007">
        <ele>815</ele>
        <time>2017-11-22T15:09:19Z</time>
      </trkpt>
      <trkpt lat="44.75401" lon="5.68016">
        <ele>815</ele>
        <time>2017-11-22T15:09:23Z</time>
      </trkpt>
      <trkpt lat="44.75399" lon="5.68023">
        <ele>815</ele>
        <time>2017-11-22T15:09:28Z</time>
      </trkpt>
      <trkpt lat="44.75399" lon="5.68045">
        <ele>815</ele>
        <time>2017-11-22T15:09:34Z</time>
      </trkpt>
      <trkpt lat="44.75402" lon="5.68057">
        <ele>814</ele>
        <time>2017-11-22T15:09:53Z</time>
      </trkpt>
      <trkpt lat="44.75416" lon="5.6808">
        <ele>812</ele>
        <time>2017-11-22T15:10:03Z</time>
      </trkpt>
      <trkpt lat="44.75462" lon="5.68129">
        <ele>817</ele>
        <time>2017-11-22T15:10:12Z</time>
      </trkpt>
      <trkpt lat="44.75493" lon="5.68157">
        <ele>817</ele>
        <time>2017-11-22T15:10:17Z</time>
      </trkpt>
      <trkpt lat="44.75509" lon="5.68168">
        <ele>818</ele>
        <time>2017-11-22T15:10:35Z</time>
      </trkpt>
      <trkpt lat="44.75549" lon="5.68189">
        <ele>819</ele>
        <time>2017-11-22T15:10:38Z</time>
      </trkpt>
      <trkpt lat="44.75591" lon="5.68215">
        <ele>813</ele>
        <time>2017-11-22T15:10:43Z</time>
      </trkpt>
      <trkpt lat="44.75638" lon="5.6824">
        <ele>811</ele>
        <time>2017-11-22T15:10:56Z</time>
      </trkpt>
      <trkpt lat="44.75663" lon="5.68259">
        <ele>815</ele>
        <time>2017-11-22T15:10:58Z</time>
      </trkpt>
      <trkpt lat="44.75677" lon="5.68276">
        <ele>810</ele>
        <time>2017-11-22T15:11:07Z</time>
      </trkpt>
      <trkpt lat="44.75697" lon="5.68326">
        <ele>814</ele>
        <time>2017-11-22T15:11:19Z</time>
      </trkpt>
      <trkpt lat="44.75716" lon="5.68356">
        <ele>823</ele>
        <time>2017-11-22T15:11:21Z</time>
      </trkpt>
      <trkpt lat="44.75727" lon="5.6837">
        <ele>823</ele>
        <time>2017-11-22T15:11:34Z</time>
      </trkpt>
      <trkpt lat="44.75753" lon="5.68386">
        <ele>812</ele>
        <time>2017-11-22T15:11:44Z</time>
      </trkpt>
      <trkpt lat="44.75783" lon="5.68397">
        <ele>811</ele>
        <time>2017-11-22T15:11:59Z</time>
      </trkpt>
      <trkpt lat="44.7581" lon="5.68411">
        <ele>808</ele>
        <time>2017-11-22T15:12:01Z</time>
      </trkpt>
      <trkpt lat="44.75826" lon="5.68425">
        <ele>814</ele>
        <time>2017-11-22T15:12:13Z</time>
      </trkpt>
      <trkpt lat="44.75846" lon="5.68451">
        <ele>805</ele>
        <time>2017-11-22T15:12:31Z</time>
      </trkpt>
      <trkpt lat="44.7586" lon="5.68472">
        <ele>806</ele>
        <time>2017-11-22T15:12:38Z</time>
      </trkpt>
      <trkpt lat="44.7587" lon="5.68496">
        <ele>806</ele>
        <time>2017-11-22T15:12:47Z</time>
      </trkpt>
      <trkpt lat="44.75898" lon="5.68563">
        <ele>811</ele>
        <time>2017-11-22T15:13:01Z</time>
      </trkpt>
      <trkpt lat="44.75909" lon="5.68591">
        <ele>811</ele>
        <time>2017-11-22T15:13:08Z</time>
      </trkpt>
      <trkpt lat="44.75915" lon="5.68617">
        <ele>815</ele>
        <time>2017-11-22T15:13:20Z</time>
      </trkpt>
      <trkpt lat="44.75918" lon="5.68663">
        <ele>808</ele>
        <time>2017-11-22T15:13:30Z</time>
      </trkpt>
      <trkpt lat="44.75916" lon="5.68736">
        <ele>818</ele>
        <time>2017-11-22T15:13:49Z</time>
      </trkpt>
      <trkpt lat="44.7592" lon="5.68781">
        <ele>810</ele>
        <time>2017-11-22T15:14:06Z</time>
      </trkpt>
      <trkpt lat="44.75935" lon="5.68836">
        <ele>810</ele>
        <time>2017-11-22T15:14:17Z</time>
      </trkpt>
      <trkpt lat="44.75945" lon="5.6888">
        <ele>809</ele>
        <time>2017-11-22T15:14:28Z</time>
      </trkpt>
      <trkpt lat="44.75949" lon="5.68913">
        <ele>809</ele>
        <time>2017-11-22T15:14:34Z</time>
      </trkpt>
      <trkpt lat="44.75964" lon="5.68974">
        <ele>809</ele>
        <time>2017-11-22T15:14:49Z</time>
      </trkpt>
      <trkpt lat="44.75981" lon="5.69025">
        <ele>809</ele>
        <time>2017-11-22T15:15:07Z</time>
      </trkpt>
      <trkpt lat="44.75999" lon="5.69078">
        <ele>807</ele>
        <time>2017-11-22T15:15:27Z</time>
      </trkpt>
      <trkpt lat="44.76019" lon="5.69123">
        <ele>807</ele>
        <time>2017-11-22T15:15:43Z</time>
      </trkpt>
      <trkpt lat="44.76042" lon="5.69151">
        <ele>806</ele>
        <time>2017-11-22T15:15:57Z</time>
      </trkpt>
      <trkpt lat="44.76063" lon="5.69174">
        <ele>809</ele>
        <time>2017-11-22T15:16:14Z</time>
      </trkpt>
      <trkpt lat="44.76092" lon="5.6922">
        <ele>804</ele>
        <time>2017-11-22T15:16:33Z</time>
      </trkpt>
      <trkpt lat="44.76096" lon="5.69228">
        <ele>805</ele>
        <time>2017-11-22T15:16:39Z</time>
      </trkpt>
      <trkpt lat="44.76112" lon="5.69276">
        <ele>808</ele>
        <time>2017-11-22T15:16:57Z</time>
      </trkpt>
      <trkpt lat="44.76141" lon="5.69366">
        <ele>812</ele>
        <time>2017-11-22T15:17:16Z</time>
      </trkpt>
      <trkpt lat="44.7615" lon="5.69392">
        <ele>812</ele>
        <time>2017-11-22T15:17:28Z</time>
      </trkpt>
      <trkpt lat="44.76161" lon="5.69415">
        <ele>810</ele>
        <time>2017-11-22T15:17:42Z</time>
      </trkpt>
      <trkpt lat="44.76175" lon="5.69436">
        <ele>808</ele>
        <time>2017-11-22T15:17:49Z</time>
      </trkpt>
      <trkpt lat="44.7623" lon="5.69496">
        <ele>807</ele>
        <time>2017-11-22T15:18:02Z</time>
      </trkpt>
      <trkpt lat="44.76268" lon="5.69535">
        <ele>807</ele>
        <time>2017-11-22T15:18:05Z</time>
      </trkpt>
      <trkpt lat="44.76304" lon="5.6957">
        <ele>806</ele>
        <time>2017-11-22T15:18:07Z</time>
      </trkpt>
      <trkpt lat="44.76327" lon="5.69589">
        <ele>808</ele>
        <time>2017-11-22T15:18:22Z</time>
      </trkpt>
      <trkpt lat="44.76357" lon="5.69616">
        <ele>805</ele>
        <time>2017-11-22T15:18:24Z</time>
      </trkpt>
      <trkpt lat="44.76367" lon="5.6963">
        <ele>806</ele>
        <time>2017-11-22T15:18:29Z</time>
      </trkpt>
      <trkpt lat="44.76381" lon="5.69654">
        <ele>806</ele>
        <time>2017-11-22T15:18:45Z</time>
      </trkpt>
      <trkpt lat="44.76403" lon="5.69696">
        <ele>810</ele>
        <time>2017-11-22T15:18:52Z</time>
      </trkpt>
      <trkpt lat="44.76423" lon="5.69725">
        <ele>805</ele>
        <time>2017-11-22T15:19:08Z</time>
      </trkpt>
      <trkpt lat="44.76451" lon="5.69755">
        <ele>806</ele>
        <time>2017-11-22T15:19:19Z</time>
      </trkpt>
      <trkpt lat="44.76469" lon="5.69767">
        <ele>805</ele>
        <time>2017-11-22T15:19:35Z</time>
      </trkpt>
      <trkpt lat="44.76482" lon="5.69776">
        <ele>805</ele>
        <time>2017-11-22T15:19:49Z</time>
      </trkpt>
      <trkpt lat="44.76496" lon="5.69781">
        <ele>805</ele>
        <time>2017-11-22T15:20:07Z</time>
      </trkpt>
      <trkpt lat="44.76524" lon="5.69788">
        <ele>801</ele>
        <time>2017-11-22T15:20:13Z</time>
      </trkpt>
      <trkpt lat="44.76551" lon="5.6979">
        <ele>800</ele>
        <time>2017-11-22T15:20:27Z</time>
      </trkpt>
      <trkpt lat="44.7661" lon="5.69778">
        <ele>796</ele>
        <time>2017-11-22T15:20:38Z</time>
      </trkpt>
      <trkpt lat="44.76641" lon="5.69776">
        <ele>796</ele>
        <time>2017-11-22T15:20:53Z</time>
      </trkpt>
      <trkpt lat="44.76715" lon="5.69779">
        <ele>795</ele>
        <time>2017-11-22T15:21:02Z</time>
      </trkpt>
      <trkpt lat="44.76801" lon="5.69781">
        <ele>794</ele>
        <time>2017-11-22T15:21:08Z</time>
      </trkpt>
      <trkpt lat="44.76842" lon="5.698">
        <ele>793</ele>
        <time>2017-11-22T15:21:21Z</time>
      </trkpt>
      <trkpt lat="44.76903" lon="5.69832">
        <ele>793</ele>
        <time>2017-11-22T15:21:25Z</time>
      </trkpt>
      <trkpt lat="44.76946" lon="5.69856">
        <ele>791</ele>
        <time>2017-11-22T15:21:37Z</time>
      </trkpt>
      <trkpt lat="44.76966" lon="5.69876">
        <ele>790</ele>
        <time>2017-11-22T15:21:49Z</time>
      </trkpt>
      <trkpt lat="44.76972" lon="5.69885">
        <ele>790</ele>
        <time>2017-11-22T15:22:04Z</time>
      </trkpt>
      <trkpt lat="44.76977" lon="5.69897">
        <ele>790</ele>
        <time>2017-11-22T15:22:18Z</time>
      </trkpt>
      <trkpt lat="44.76983" lon="5.6993">
        <ele>790</ele>
        <time>2017-11-22T15:22:37Z</time>
      </trkpt>
      <trkpt lat="44.76988" lon="5.69983">
        <ele>789</ele>
        <time>2017-11-22T15:22:55Z</time>
      </trkpt>
      <trkpt lat="44.76991" lon="5.70075">
        <ele>789</ele>
        <time>2017-11-22T15:23:14Z</time>
      </trkpt>
      <trkpt lat="44.7702" lon="5.7026">
        <ele>790</ele>
        <time>2017-11-22T15:23:30Z</time>
      </trkpt>
      <trkpt lat="44.77025" lon="5.703">
        <ele>789</ele>
        <time>2017-11-22T15:23:35Z</time>
      </trkpt>
      <trkpt lat="44.77028" lon="5.7034">
        <ele>789</ele>
        <time>2017-11-22T15:23:39Z</time>
      </trkpt>
      <trkpt lat="44.77026" lon="5.70379">
        <ele>788</ele>
        <time>2017-11-22T15:23:49Z</time>
      </trkpt>
      <trkpt lat="44.7702" lon="5.70429">
        <ele>787</ele>
        <time>2017-11-22T15:23:54Z</time>
      </trkpt>
      <trkpt lat="44.77017" lon="5.70448">
        <ele>786</ele>
        <time>2017-11-22T15:24:05Z</time>
      </trkpt>
      <trkpt lat="44.77017" lon="5.70468">
        <ele>785</ele>
        <time>2017-11-22T15:24:12Z</time>
      </trkpt>
      <trkpt lat="44.77019" lon="5.70514">
        <ele>782</ele>
        <time>2017-11-22T15:24:29Z</time>
      </trkpt>
      <trkpt lat="44.77023" lon="5.7061">
        <ele>780</ele>
        <time>2017-11-22T15:24:34Z</time>
      </trkpt>
      <trkpt lat="44.77023" lon="5.70655">
        <ele>780</ele>
        <time>2017-11-22T15:24:51Z</time>
      </trkpt>
      <trkpt lat="44.7702" lon="5.70673">
        <ele>779</ele>
        <time>2017-11-22T15:25:04Z</time>
      </trkpt>
      <trkpt lat="44.77015" lon="5.70691">
        <ele>778</ele>
        <time>2017-11-22T15:25:18Z</time>
      </trkpt>
      <trkpt lat="44.76999" lon="5.70743">
        <ele>780</ele>
        <time>2017-11-22T15:25:28Z</time>
      </trkpt>
      <trkpt lat="44.7699" lon="5.70781">
        <ele>780</ele>
        <time>2017-11-22T15:25:44Z</time>
      </trkpt>
      <trkpt lat="44.7699" lon="5.70819">
        <ele>778</ele>
        <time>2017-11-22T15:25:56Z</time>
      </trkpt>
      <trkpt lat="44.76995" lon="5.70856">
        <ele>775</ele>
        <time>2017-11-22T15:26:16Z</time>
      </trkpt>
      <trkpt lat="44.76998" lon="5.7092">
        <ele>767</ele>
        <time>2017-11-22T15:26:29Z</time>
      </trkpt>
      <trkpt lat="44.77001" lon="5.71009">
        <ele>757</ele>
        <time>2017-11-22T15:26:32Z</time>
      </trkpt>
      <trkpt lat="44.77001" lon="5.71052">
        <ele>753</ele>
        <time>2017-11-22T15:26:36Z</time>
      </trkpt>
      <trkpt lat="44.76998" lon="5.71106">
        <ele>761</ele>
        <time>2017-11-22T15:26:53Z</time>
      </trkpt>
      <trkpt lat="44.76998" lon="5.71145">
        <ele>759</ele>
        <time>2017-11-22T15:26:55Z</time>
      </trkpt>
      <trkpt lat="44.77003" lon="5.71158">
        <ele>750</ele>
        <time>2017-11-22T15:27:15Z</time>
      </trkpt>
      <trkpt lat="44.7701" lon="5.7117">
        <ele>748</ele>
        <time>2017-11-22T15:27:28Z</time>
      </trkpt>
      <trkpt lat="44.77021" lon="5.71177">
        <ele>746</ele>
        <time>2017-11-22T15:27:48Z</time>
      </trkpt>
      <trkpt lat="44.77032" lon="5.7118">
        <ele>744</ele>
        <time>2017-11-22T15:27:54Z</time>
      </trkpt>
      <trkpt lat="44.77044" lon="5.71178">
        <ele>743</ele>
        <time>2017-11-22T15:28:00Z</time>
      </trkpt>
      <trkpt lat="44.77056" lon="5.71173">
        <ele>742</ele>
        <time>2017-11-22T15:28:08Z</time>
      </trkpt>
      <trkpt lat="44.77115" lon="5.71131">
        <ele>737</ele>
        <time>2017-11-22T15:28:14Z</time>
      </trkpt>
      <trkpt lat="44.77142" lon="5.71113">
        <ele>736</ele>
        <time>2017-11-22T15:28:23Z</time>
      </trkpt>
      <trkpt lat="44.77158" lon="5.71105">
        <ele>736</ele>
        <time>2017-11-22T15:28:36Z</time>
      </trkpt>
      <trkpt lat="44.77173" lon="5.71105">
        <ele>733</ele>
        <time>2017-11-22T15:28:44Z</time>
      </trkpt>
      <trkpt lat="44.77185" lon="5.7111">
        <ele>733</ele>
        <time>2017-11-22T15:28:50Z</time>
      </trkpt>
      <trkpt lat="44.77194" lon="5.71119">
        <ele>733</ele>
        <time>2017-11-22T15:28:59Z</time>
      </trkpt>
      <trkpt lat="44.77206" lon="5.71137">
        <ele>733</ele>
        <time>2017-11-22T15:29:06Z</time>
      </trkpt>
      <trkpt lat="44.77217" lon="5.71155">
        <ele>734</ele>
        <time>2017-11-22T15:29:25Z</time>
      </trkpt>
      <trkpt lat="44.77223" lon="5.71164">
        <ele>735</ele>
        <time>2017-11-22T15:29:30Z</time>
      </trkpt>
      <trkpt lat="44.77232" lon="5.71175">
        <ele>739</ele>
        <time>2017-11-22T15:29:36Z</time>
      </trkpt>
      <trkpt lat="44.77227" lon="5.71185">
        <ele>739</ele>
        <time>2017-11-22T15:29:55Z</time>
      </trkpt>
      <trkpt lat="44.7722" lon="5.71203">
        <ele>740</ele>
        <time>2017-11-22T15:30:10Z</time>
      </trkpt>
      <trkpt lat="44.77204" lon="5.71241">
        <ele>740</ele>
        <time>2017-11-22T15:30:20Z</time>
      </trkpt>
      <trkpt lat="44.77195" lon="5.71256">
        <ele>746</ele>
        <time>2017-11-22T15:30:38Z</time>
      </trkpt>
      <trkpt lat="44.77183" lon="5.7127">
        <ele>745</ele>
        <time>2017-11-22T15:30:52Z</time>
      </trkpt>
      <trkpt lat="44.77157" lon="5.71293">
        <ele>739</ele>
        <time>2017-11-22T15:31:10Z</time>
      </trkpt>
      <trkpt lat="44.77145" lon="5.71308">
        <ele>740</ele>
        <time>2017-11-22T15:31:21Z</time>
      </trkpt>
      <trkpt lat="44.77135" lon="5.7133">
        <ele>740</ele>
        <time>2017-11-22T15:31:41Z</time>
      </trkpt>
      <trkpt lat="44.77129" lon="5.71353">
        <ele>745</ele>
        <time>2017-11-22T15:32:00Z</time>
      </trkpt>
      <trkpt lat="44.77127" lon="5.71371">
        <ele>746</ele>
        <time>2017-11-22T15:32:08Z</time>
      </trkpt>
      <trkpt lat="44.77127" lon="5.7141">
        <ele>749</ele>
        <time>2017-11-22T15:32:10Z</time>
      </trkpt>
      <trkpt lat="44.77121" lon="5.71457">
        <ele>755</ele>
        <time>2017-11-22T15:32:23Z</time>
      </trkpt>
      <trkpt lat="44.77111" lon="5.71515">
        <ele>759</ele>
        <time>2017-11-22T15:32:42Z</time>
      </trkpt>
      <trkpt lat="44.77102" lon="5.71571">
        <ele>761</ele>
        <time>2017-11-22T15:32:50Z</time>
      </trkpt>
      <trkpt lat="44.77091" lon="5.71607">
        <ele>765</ele>
        <time>2017-11-22T15:32:55Z</time>
      </trkpt>
      <trkpt lat="44.77087" lon="5.71627">
        <ele>767</ele>
        <time>2017-11-22T15:33:13Z</time>
      </trkpt>
      <trkpt lat="44.77084" lon="5.71647">
        <ele>766</ele>
        <time>2017-11-22T15:33:18Z</time>
      </trkpt>
      <trkpt lat="44.77082" lon="5.71711">
        <ele>758</ele>
        <time>2017-11-22T15:33:25Z</time>
      </trkpt>
      <trkpt lat="44.77081" lon="5.71747">
        <ele>764</ele>
        <time>2017-11-22T15:33:39Z</time>
      </trkpt>
      <trkpt lat="44.77082" lon="5.71759">
        <ele>764</ele>
        <time>2017-11-22T15:33:53Z</time>
      </trkpt>
      <trkpt lat="44.77088" lon="5.71764">
        <ele>771</ele>
        <time>2017-11-22T15:33:57Z</time>
      </trkpt>
      <trkpt lat="44.77093" lon="5.7176">
        <ele>771</ele>
        <time>2017-11-22T15:34:15Z</time>
      </trkpt>
      <trkpt lat="44.77094" lon="5.7175">
        <ele>770</ele>
        <time>2017-11-22T15:34:29Z</time>
      </trkpt>
      <trkpt lat="44.77096" lon="5.71714">
        <ele>772</ele>
        <time>2017-11-22T15:34:32Z</time>
      </trkpt>
      <trkpt lat="44.77097" lon="5.71694">
        <ele>771</ele>
        <time>2017-11-22T15:34:45Z</time>
      </trkpt>
      <trkpt lat="44.77101" lon="5.7167">
        <ele>770</ele>
        <time>2017-11-22T15:35:05Z</time>
      </trkpt>
      <trkpt lat="44.77112" lon="5.71634">
        <ele>770</ele>
        <time>2017-11-22T15:35:21Z</time>
      </trkpt>
      <trkpt lat="44.77119" lon="5.71619">
        <ele>770</ele>
        <time>2017-11-22T15:35:35Z</time>
      </trkpt>
      <trkpt lat="44.77129" lon="5.71606">
        <ele>771</ele>
        <time>2017-11-22T15:35:52Z</time>
      </trkpt>
      <trkpt lat="44.77152" lon="5.71584">
        <ele>776</ele>
        <time>2017-11-22T15:35:55Z</time>
      </trkpt>
      <trkpt lat="44.77162" lon="5.71568">
        <ele>773</ele>
        <time>2017-11-22T15:36:01Z</time>
      </trkpt>
      <trkpt lat="44.77173" lon="5.71545">
        <ele>784</ele>
        <time>2017-11-22T15:36:11Z</time>
      </trkpt>
      <trkpt lat="44.7719" lon="5.71506">
        <ele>782</ele>
        <time>2017-11-22T15:36:14Z</time>
      </trkpt>
      <trkpt lat="44.77197" lon="5.71495">
        <ele>778</ele>
        <time>2017-11-22T15:36:23Z</time>
      </trkpt>
      <trkpt lat="44.77204" lon="5.7149">
        <ele>779</ele>
        <time>2017-11-22T15:36:34Z</time>
      </trkpt>
      <trkpt lat="44.77211" lon="5.71488">
        <ele>780</ele>
        <time>2017-11-22T15:36:44Z</time>
      </trkpt>
      <trkpt lat="44.77215" lon="5.7149">
        <ele>781</ele>
        <time>2017-11-22T15:36:54Z</time>
      </trkpt>
      <trkpt lat="44.77217" lon="5.71497">
        <ele>781</ele>
        <time>2017-11-22T15:37:13Z</time>
      </trkpt>
      <trkpt lat="44.77215" lon="5.71507">
        <ele>786</ele>
        <time>2017-11-22T15:37:25Z</time>
      </trkpt>
      <trkpt lat="44.77211" lon="5.71521">
        <ele>786</ele>
        <time>2017-11-22T15:37:43Z</time>
      </trkpt>
      <trkpt lat="44.77206" lon="5.71557">
        <ele>787</ele>
        <time>2017-11-22T15:37:45Z</time>
      </trkpt>
      <trkpt lat="44.77202" lon="5.71701">
        <ele>799</ele>
        <time>2017-11-22T15:37:58Z</time>
      </trkpt>
      <trkpt lat="44.77205" lon="5.71741">
        <ele>799</ele>
        <time>2017-11-22T15:38:12Z</time>
      </trkpt>
      <trkpt lat="44.77217" lon="5.71784">
        <ele>799</ele>
        <time>2017-11-22T15:38:24Z</time>
      </trkpt>
      <trkpt lat="44.77223" lon="5.71795">
        <ele>800</ele>
        <time>2017-11-22T15:38:33Z</time>
      </trkpt>
      <trkpt lat="44.7723" lon="5.71803">
        <ele>800</ele>
        <time>2017-11-22T15:38:39Z</time>
      </trkpt>
      <trkpt lat="44.7724" lon="5.7181">
        <ele>801</ele>
        <time>2017-11-22T15:38:51Z</time>
      </trkpt>
      <trkpt lat="44.77243" lon="5.71812">
        <ele>802</ele>
        <time>2017-11-22T15:39:07Z</time>
      </trkpt>
      <trkpt lat="44.77244" lon="5.71806">
        <ele>802</ele>
        <time>2017-11-22T15:39:20Z</time>
      </trkpt>
      <trkpt lat="44.77243" lon="5.71801">
        <ele>802</ele>
        <time>2017-11-22T15:39:37Z</time>
      </trkpt>
      <trkpt lat="44.7724" lon="5.71795">
        <ele>801</ele>
        <time>2017-11-22T15:39:41Z</time>
      </trkpt>
      <trkpt lat="44.77238" lon="5.71778">
        <ele>803</ele>
        <time>2017-11-22T15:39:43Z</time>
      </trkpt>
      <trkpt lat="44.77242" lon="5.71757">
        <ele>808</ele>
        <time>2017-11-22T15:39:57Z</time>
      </trkpt>
      <trkpt lat="44.77251" lon="5.71737">
        <ele>814</ele>
        <time>2017-11-22T15:40:00Z</time>
      </trkpt>
      <trkpt lat="44.77258" lon="5.71729">
        <ele>815</ele>
        <time>2017-11-22T15:40:09Z</time>
      </trkpt>
      <trkpt lat="44.77267" lon="5.71724">
        <ele>816</ele>
        <time>2017-11-22T15:40:25Z</time>
      </trkpt>
      <trkpt lat="44.77274" lon="5.71725">
        <ele>816</ele>
        <time>2017-11-22T15:40:42Z</time>
      </trkpt>
      <trkpt lat="44.77282" lon="5.71731">
        <ele>817</ele>
        <time>2017-11-22T15:40:55Z</time>
      </trkpt>
      <trkpt lat="44.77274" lon="5.71725">
        <ele>816</ele>
        <time>2017-11-22T15:41:10Z</time>
      </trkpt>
      <trkpt lat="44.77267" lon="5.71724">
        <ele>816</ele>
        <time>2017-11-22T15:41:18Z</time>
      </trkpt>
      <trkpt lat="44.77258" lon="5.71729">
        <ele>815</ele>
        <time>2017-11-22T15:41:21Z</time>
      </trkpt>
      <trkpt lat="44.77251" lon="5.71737">
        <ele>814</ele>
        <time>2017-11-22T15:41:29Z</time>
      </trkpt>
      <trkpt lat="44.77242" lon="5.71757">
        <ele>808</ele>
        <time>2017-11-22T15:41:34Z</time>
      </trkpt>
      <trkpt lat="44.77238" lon="5.71778">
        <ele>803</ele>
        <time>2017-11-22T15:41:53Z</time>
      </trkpt>
      <trkpt lat="44.7724" lon="5.71795">
        <ele>801</ele>
        <time>2017-11-22T15:42:02Z</time>
      </trkpt>
      <trkpt lat="44.77244" lon="5.71806">
        <ele>802</ele>
        <time>2017-11-22T15:42:17Z</time>
      </trkpt>
      <trkpt lat="44.77243" lon="5.71812">
        <ele>802</ele>
        <time>2017-11-22T15:42:36Z</time>
      </trkpt>
      <trkpt lat="44.77245" lon="5.71813">
        <ele>802</ele>
        <time>2017-11-22T15:42:46Z</time>
      </trkpt>
      <trkpt lat="44.77252" lon="5.7182">
        <ele>811</ele>
        <time>2017-11-22T15:42:52Z</time>
      </trkpt>
      <trkpt lat="44.77259" lon="5.7183">
        <ele>810</ele>
        <time>2017-11-22T15:43:10Z</time>
      </trkpt>
      <trkpt lat="44.77264" lon="5.71844">
        <ele>812</ele>
        <time>2017-11-22T15:43:13Z</time>
      </trkpt>
      <trkpt lat="44.77272" lon="5.71876">
        <ele>814</ele>
        <time>2017-11-22T15:43:30Z</time>
      </trkpt>
      <trkpt lat="44.77276" lon="5.71906">
        <ele>813</ele>
        <time>2017-11-22T15:43:40Z</time>
      </trkpt>
      <trkpt lat="44.77274" lon="5.71947">
        <ele>816</ele>
        <time>2017-11-22T15:43:42Z</time>
      </trkpt>
      <trkpt lat="44.77267" lon="5.71994">
        <ele>816</ele>
        <time>2017-11-22T15:43:49Z</time>
      </trkpt>
      <trkpt lat="44.77258" lon="5.72037">
        <ele>821</ele>
        <time>2017-11-22T15:44:05Z</time>
      </trkpt>
      <trkpt lat="44.77246" lon="5.72075">
        <ele>814</ele>
        <time>2017-11-22T15:44:22Z</time>
      </trkpt>
      <trkpt lat="44.77215" lon="5.72155">
        <ele>817</ele>
        <time>2017-11-22T15:44:24Z</time>
      </trkpt>
      <trkpt lat="44.77207" lon="5.72188">
        <ele>820</ele>
        <time>2017-11-22T15:44:32Z</time>
      </trkpt>
      <trkpt lat="44.77207" lon="5.7222">
        <ele>821</ele>
        <time>2017-11-22T15:44:35Z</time>
      </trkpt>
      <trkpt lat="44.77211" lon="5.72279">
        <ele>826</ele>
        <time>2017-11-22T15:44:39Z</time>
      </trkpt>
      <trkpt lat="44.7721" lon="5.72317">
        <ele>827</ele>
        <time>2017-11-22T15:44:42Z</time>
      </trkpt>
      <trkpt lat="44.77203" lon="5.72353">
        <ele>829</ele>
        <time>2017-11-22T15:44:59Z</time>
      </trkpt>
      <trkpt lat="44.772" lon="5.72368">
        <ele>829</ele>
        <time>2017-11-22T15:45:04Z</time>
      </trkpt>
      <trkpt lat="44.772" lon="5.72381">
        <ele>830</ele>
        <time>2017-11-22T15:45:15Z</time>
      </trkpt>
      <trkpt lat="44.77208" lon="5.72402">
        <ele>831</ele>
        <time>2017-11-22T15:45:17Z</time>
      </trkpt>
      <trkpt lat="44.77221" lon="5.72424">
        <ele>835</ele>
        <time>2017-11-22T15:45:33Z</time>
      </trkpt>
      <trkpt lat="44.77231" lon="5.72448">
        <ele>835</ele>
        <time>2017-11-22T15:45:48Z</time>
      </trkpt>
      <trkpt lat="44.77261" lon="5.7253">
        <ele>850</ele>
        <time>2017-11-22T15:45:57Z</time>
      </trkpt>
      <trkpt lat="44.77278" lon="5.72579">
        <ele>850</ele>
        <time>2017-11-22T15:46:08Z</time>
      </trkpt>
      <trkpt lat="44.77293" lon="5.72639">
        <ele>851</ele>
        <time>2017-11-22T15:46:28Z</time>
      </trkpt>
      <trkpt lat="44.77304" lon="5.72697">
        <ele>852</ele>
        <time>2017-11-22T15:46:44Z</time>
      </trkpt>
      <trkpt lat="44.77316" lon="5.72778">
        <ele>857</ele>
        <time>2017-11-22T15:47:04Z</time>
      </trkpt>
      <trkpt lat="44.77318" lon="5.72809">
        <ele>859</ele>
        <time>2017-11-22T15:47:16Z</time>
      </trkpt>
      <trkpt lat="44.77315" lon="5.72855">
        <ele>863</ele>
        <time>2017-11-22T15:47:30Z</time>
      </trkpt>
      <trkpt lat="44.77309" lon="5.72903">
        <ele>864</ele>
        <time>2017-11-22T15:47:48Z</time>
      </trkpt>
      <trkpt lat="44.77303" lon="5.72934">
        <ele>869</ele>
        <time>2017-11-22T15:47:54Z</time>
      </trkpt>
      <trkpt lat="44.77284" lon="5.7299">
        <ele>871</ele>
        <time>2017-11-22T15:48:14Z</time>
      </trkpt>
      <trkpt lat="44.77261" lon="5.73031">
        <ele>879</ele>
        <time>2017-11-22T15:48:22Z</time>
      </trkpt>
      <trkpt lat="44.77242" lon="5.73053">
        <ele>875</ele>
        <time>2017-11-22T15:48:38Z</time>
      </trkpt>
      <trkpt lat="44.77217" lon="5.73071">
        <ele>876</ele>
        <time>2017-11-22T15:48:42Z</time>
      </trkpt>
      <trkpt lat="44.77196" lon="5.73085">
        <ele>883</ele>
        <time>2017-11-22T15:48:51Z</time>
      </trkpt>
      <trkpt lat="44.77187" lon="5.73095">
        <ele>883</ele>
        <time>2017-11-22T15:49:00Z</time>
      </trkpt>
      <trkpt lat="44.77185" lon="5.73104">
        <ele>884</ele>
        <time>2017-11-22T15:49:19Z</time>
      </trkpt>
      <trkpt lat="44.77191" lon="5.7311">
        <ele>885</ele>
        <time>2017-11-22T15:49:25Z</time>
      </trkpt>
      <trkpt lat="44.77205" lon="5.73104">
        <ele>885</ele>
        <time>2017-11-22T15:49:32Z</time>
      </trkpt>
      <trkpt lat="44.77229" lon="5.73096">
        <ele>885</ele>
        <time>2017-11-22T15:49:42Z</time>
      </trkpt>
      <trkpt lat="44.77251" lon="5.73094">
        <ele>887</ele>
        <time>2017-11-22T15:49:59Z</time>
      </trkpt>
      <trkpt lat="44.7728" lon="5.73087">
        <ele>892</ele>
        <time>2017-11-22T15:50:14Z</time>
      </trkpt>
      <trkpt lat="44.77299" lon="5.73079">
        <ele>886</ele>
        <time>2017-11-22T15:50:24Z</time>
      </trkpt>
      <trkpt lat="44.77317" lon="5.7307">
        <ele>888</ele>
        <time>2017-11-22T15:50:37Z</time>
      </trkpt>
      <trkpt lat="44.77333" lon="5.73058">
        <ele>888</ele>
        <time>2017-11-22T15:50:40Z</time>
      </trkpt>
      <trkpt lat="44.77372" lon="5.7302">
        <ele>894</ele>
        <time>2017-11-22T15:50:55Z</time>
      </trkpt>
      <trkpt lat="44.77394" lon="5.72998">
        <ele>892</ele>
        <time>2017-11-22T15:50:59Z</time>
      </trkpt>
      <trkpt lat="44.77449" lon="5.72949">
        <ele>897</ele>
        <time>2017-11-22T15:51:11Z</time>
      </trkpt>
      <trkpt lat="44.77455" lon="5.7295">
        <ele>897</ele>
        <time>2017-11-22T15:51:31Z</time>
      </trkpt>
      <trkpt lat="44.77462" lon="5.72953">
        <ele>897</ele>
        <time>2017-11-22T15:51:42Z</time>
      </trkpt>
      <trkpt lat="44.77467" lon="5.72961">
        <ele>897</ele>
        <time>2017-11-22T15:52:02Z</time>
      </trkpt>
      <trkpt lat="44.77472" lon="5.72989">
        <ele>897</ele>
        <time>2017-11-22T15:52:10Z</time>
      </trkpt>
      <trkpt lat="44.77478" lon="5.73051">
        <ele>897</ele>
        <time>2017-11-22T15:52:13Z</time>
      </trkpt>
      <trkpt lat="44.77489" lon="5.73092">
        <ele>896</ele>
        <time>2017-11-22T15:52:22Z</time>
      </trkpt>
      <trkpt lat="44.77504" lon="5.73133">
        <ele>889</ele>
        <time>2017-11-22T15:52:31Z</time>
      </trkpt>
      <trkpt lat="44.77523" lon="5.73166">
        <ele>889</ele>
        <time>2017-11-22T15:52:51Z</time>
      </trkpt>
      <trkpt lat="44.77548" lon="5.7321">
        <ele>885</ele>
        <time>2017-11-22T15:52:54Z</time>
      </trkpt>
      <trkpt lat="44.77567" lon="5.73258">
        <ele>881</ele>
        <time>2017-11-22T15:53:07Z</time>
      </trkpt>
      <trkpt lat="44.77571" lon="5.73279">
        <ele>882</ele>
        <time>2017-11-22T15:53:11Z</time>
      </trkpt>
      <trkpt lat="44.77572" lon="5.73299">
        <ele>882</ele>
        <time>2017-11-22T15:53:31Z</time>
      </trkpt>
      <trkpt lat="44.77568" lon="5.73329">
        <ele>879</ele>
        <time>2017-11-22T15:53:35Z</time>
      </trkpt>
      <trkpt lat="44.77558" lon="5.73378">
        <ele>881</ele>
        <time>2017-11-22T15:53:53Z</time>
      </trkpt>
      <trkpt lat="44.77555" lon="5.73407">
        <ele>880</ele>
        <time>2017-11-22T15:53:59Z</time>
      </trkpt>
      <trkpt lat="44.77558" lon="5.73427">
        <ele>878</ele>
        <time>2017-11-22T15:54:04Z</time>
      </trkpt>
      <trkpt lat="44.77576" lon="5.73482">
        <ele>877</ele>
        <time>2017-11-22T15:54:20Z</time>
      </trkpt>
      <trkpt lat="44.77605" lon="5.73558">
        <ele>867</ele>
        <time>2017-11-22T15:54:33Z</time>
      </trkpt>
      <trkpt lat="44.7763" lon="5.73618">
        <ele>864</ele>
        <time>2017-11-22T15:54:49Z</time>
      </trkpt>
      <trkpt lat="44.77652" lon="5.73666">
        <ele>860</ele>
        <time>2017-11-22T15:54:59Z</time>
      </trkpt>
      <trkpt lat="44.77675" lon="5.73709">
        <ele>852</ele>
        <time>2017-11-22T15:55:08Z</time>
      </trkpt>
      <trkpt lat="44.77704" lon="5.73758">
        <ele>851</ele>
        <time>2017-11-22T15:55:13Z</time>
      </trkpt>
      <trkpt lat="44.77737" lon="5.73801">
        <ele>848</ele>
        <time>2017-11-22T15:55:30Z</time>
      </trkpt>
      <trkpt lat="44.7775" lon="5.73822">
        <ele>843</ele>
        <time>2017-11-22T15:55:35Z</time>
      </trkpt>
      <trkpt lat="44.77753" lon="5.73832">
        <ele>844</ele>
        <time>2017-11-22T15:55:54Z</time>
      </trkpt>
      <trkpt lat="44.77754" lon="5.73844">
        <ele>843</ele>
        <time>2017-11-22T15:56:11Z</time>
      </trkpt>
      <trkpt lat="44.77752" lon="5.73874">
        <ele>842</ele>
        <time>2017-11-22T15:56:18Z</time>
      </trkpt>
      <trkpt lat="44.77753" lon="5.73888">
        <ele>843</ele>
        <time>2017-11-22T15:56:33Z</time>
      </trkpt>
      <trkpt lat="44.77761" lon="5.73907">
        <ele>844</ele>
        <time>2017-11-22T15:56:43Z</time>
      </trkpt>
      <trkpt lat="44.77804" lon="5.73949">
        <ele>840</ele>
        <time>2017-11-22T15:56:58Z</time>
      </trkpt>
      <trkpt lat="44.7785" lon="5.73996">
        <ele>832</ele>
        <time>2017-11-22T15:57:01Z</time>
      </trkpt>
      <trkpt lat="44.77872" lon="5.74023">
        <ele>830</ele>
        <time>2017-11-22T15:57:06Z</time>
      </trkpt>
      <trkpt lat="44.7789" lon="5.74056">
        <ele>829</ele>
        <time>2017-11-22T15:57:19Z</time>
      </trkpt>
      <trkpt lat="44.77899" lon="5.74077">
        <ele>829</ele>
        <time>2017-11-22T15:57:38Z</time>
      </trkpt>
      <trkpt lat="44.77914" lon="5.74041">
        <ele>829</ele>
        <time>2017-11-22T15:57:53Z</time>
      </trkpt>
      <trkpt lat="44.77968" lon="5.73904">
        <ele>823</ele>
        <time>2017-11-22T15:58:04Z</time>
      </trkpt>
      <trkpt lat="44.77977" lon="5.7388">
        <ele>823</ele>
        <time>2017-11-22T15:58:23Z</time>
      </trkpt>
      <trkpt lat="44.7799" lon="5.73837">
        <ele>821</ele>
        <time>2017-11-22T15:58:31Z</time>
      </trkpt>
      <trkpt lat="44.78014" lon="5.73686">
        <ele>814</ele>
        <time>2017-11-22T15:58:45Z</time>
      </trkpt>
      <trkpt lat="44.78021" lon="5.73654">
        <ele>812</ele>
        <time>2017-11-22T15:58:51Z</time>
      </trkpt>
      <trkpt lat="44.7803" lon="5.73637">
        <ele>811</ele>
        <time>2017-11-22T15:59:02Z</time>
      </trkpt>
      <trkpt lat="44.78098" lon="5.73552">
        <ele>803</ele>
        <time>2017-11-22T15:59:19Z</time>
      </trkpt>
      <trkpt lat="44.78107" lon="5.73535">
        <ele>803</ele>
        <time>2017-11-22T15:59:30Z</time>
      </trkpt>
      <trkpt lat="44.78114" lon="5.73509">
        <ele>803</ele>
        <time>2017-11-22T15:59:45Z</time>
      </trkpt>
      <trkpt lat="44.78129" lon="5.73443">
        <ele>802</ele>
        <time>2017-11-22T15:59:48Z</time>
      </trkpt>
      <trkpt lat="44.78145" lon="5.73349">
        <ele>800</ele>
        <time>2017-11-22T15:59:53Z</time>
      </trkpt>
      <trkpt lat="44.78154" lon="5.73277">
        <ele>797</ele>
        <time>2017-11-22T16:00:01Z</time>
      </trkpt>
      <trkpt lat="44.78161" lon="5.73275">
        <ele>796</ele>
        <time>2017-11-22T16:00:06Z</time>
      </trkpt>
      <trkpt lat="44.78174" lon="5.73278">
        <ele>794</ele>
        <time>2017-11-22T16:00:22Z</time>
      </trkpt>
      <trkpt lat="44.78206" lon="5.73289">
        <ele>793</ele>
        <time>2017-11-22T16:00:40Z</time>
      </trkpt>
      <trkpt lat="44.78234" lon="5.733">
        <ele>792</ele>
        <time>2017-11-22T16:00:52Z</time>
      </trkpt>
      <trkpt lat="44.78251" lon="5.73309">
        <ele>789</ele>
        <time>2017-11-22T16:01:11Z</time>
      </trkpt>
      <trkpt lat="44.7826" lon="5.73315">
        <ele>789</ele>
        <time>2017-11-22T16:01:24Z</time>
      </trkpt>
      <trkpt lat="44.78289" lon="5.73345">
        <ele>792</ele>
        <time>2017-11-22T16:01:32Z</time>
      </trkpt>
      <trkpt lat="44.783" lon="5.73355">
        <ele>793</ele>
        <time>2017-11-22T16:01:49Z</time>
      </trkpt>
      <trkpt lat="44.7831" lon="5.73359">
        <ele>793</ele>
        <time>2017-11-22T16:01:53Z</time>
      </trkpt>
      <trkpt lat="44.78337" lon="5.73358">
        <ele>794</ele>
        <time>2017-11-22T16:02:07Z</time>
      </trkpt>
      <trkpt lat="44.78363" lon="5.73356">
        <ele>794</ele>
        <time>2017-11-22T16:02:10Z</time>
      </trkpt>
      <trkpt lat="44.78402" lon="5.73361">
        <ele>794</ele>
        <time>2017-11-22T16:02:23Z</time>
      </trkpt>
      <trkpt lat="44.78451" lon="5.73374">
        <ele>792</ele>
        <time>2017-11-22T16:02:40Z</time>
      </trkpt>
      <trkpt lat="44.78473" lon="5.73382">
        <ele>791</ele>
        <time>2017-11-22T16:02:57Z</time>
      </trkpt>
      <trkpt lat="44.78495" lon="5.73394">
        <ele>790</ele>
        <time>2017-11-22T16:03:02Z</time>
      </trkpt>
      <trkpt lat="44.78516" lon="5.73407">
        <ele>786</ele>
        <time>2017-11-22T16:03:13Z</time>
      </trkpt>
      <trkpt lat="44.7853" lon="5.73417">
        <ele>788</ele>
        <time>2017-11-22T16:03:19Z</time>
      </trkpt>
      <trkpt lat="44.78545" lon="5.73431">
        <ele>788</ele>
        <time>2017-11-22T16:03:25Z</time>
      </trkpt>
      <trkpt lat="44.78554" lon="5.73437">
        <ele>787</ele>
        <time>2017-11-22T16:03:43Z</time>
      </trkpt>
      <trkpt lat="44.78576" lon="5.73439">
        <ele>785</ele>
        <time>2017-11-22T16:03:51Z</time>
      </trkpt>
      <trkpt lat="44.78603" lon="5.73439">
        <ele>779</ele>
        <time>2017-11-22T16:04:11Z</time>
      </trkpt>
      <trkpt lat="44.7862" lon="5.73436">
        <ele>778</ele>
        <time>2017-11-22T16:04:15Z</time>
      </trkpt>
      <trkpt lat="44.78631" lon="5.7343">
        <ele>777</ele>
        <time>2017-11-22T16:04:18Z</time>
      </trkpt>
      <trkpt lat="44.78641" lon="5.73422">
        <ele>776</ele>
        <time>2017-11-22T16:04:25Z</time>
      </trkpt>
      <trkpt lat="44.78651" lon="5.73409">
        <ele>774</ele>
        <time>2017-11-22T16:04:27Z</time>
      </trkpt>
      <trkpt lat="44.78662" lon="5.73386">
        <ele>774</ele>
        <time>2017-11-22T16:04:35Z</time>
      </trkpt>
      <trkpt lat="44.78678" lon="5.7335">
        <ele>770</ele>
        <time>2017-11-22T16:04:40Z</time>
      </trkpt>
      <trkpt lat="44.78702" lon="5.7331">
        <ele>769</ele>
        <time>2017-11-22T16:04:55Z</time>
      </trkpt>
      <trkpt lat="44.78719" lon="5.73271">
        <ele>768</ele>
        <time>2017-11-22T16:05:08Z</time>
      </trkpt>
      <trkpt lat="44.78726" lon="5.73262">
        <ele>768</ele>
        <time>2017-11-22T16:05:10Z</time>
      </trkpt>
      <trkpt lat="44.78731" lon="5.73259">
        <ele>768</ele>
        <time>2017-11-22T16:05:25Z</time>
      </trkpt>
      <trkpt lat="44.78741" lon="5.73256">
        <ele>767</ele>
        <time>2017-11-22T16:05:28Z</time>
      </trkpt>
      <trkpt lat="44.78773" lon="5.73254">
        <ele>764</ele>
        <time>2017-11-22T16:05:46Z</time>
      </trkpt>
      <trkpt lat="44.78858" lon="5.73249">
        <ele>759</ele>
        <time>2017-11-22T16:05:54Z</time>
      </trkpt>
      <trkpt lat="44.78887" lon="5.73248">
        <ele>759</ele>
        <time>2017-11-22T16:06:00Z</time>
      </trkpt>
      <trkpt lat="44.78911" lon="5.73252">
        <ele>760</ele>
        <time>2017-11-22T16:06:18Z</time>
      </trkpt>
      <trkpt lat="44.78926" lon="5.73257">
        <ele>761</ele>
        <time>2017-11-22T16:06:34Z</time>
      </trkpt>
      <trkpt lat="44.78931" lon="5.73254">
        <ele>761</ele>
        <time>2017-11-22T16:06:43Z</time>
      </trkpt>
      <trkpt lat="44.78936" lon="5.73247">
        <ele>760</ele>
        <time>2017-11-22T16:06:53Z</time>
      </trkpt>
      <trkpt lat="44.7894" lon="5.73237">
        <ele>759</ele>
        <time>2017-11-22T16:07:10Z</time>
      </trkpt>
      <trkpt lat="44.78943" lon="5.73222">
        <ele>759</ele>
        <time>2017-11-22T16:07:14Z</time>
      </trkpt>
      <trkpt lat="44.78945" lon="5.7319">
        <ele>758</ele>
        <time>2017-11-22T16:07:27Z</time>
      </trkpt>
      <trkpt lat="44.78952" lon="5.73105">
        <ele>754</ele>
        <time>2017-11-22T16:07:38Z</time>
      </trkpt>
      <trkpt lat="44.7896" lon="5.73063">
        <ele>751</ele>
        <time>2017-11-22T16:07:43Z</time>
      </trkpt>
      <trkpt lat="44.78971" lon="5.73039">
        <ele>750</ele>
        <time>2017-11-22T16:07:50Z</time>
      </trkpt>
      <trkpt lat="44.78991" lon="5.73012">
        <ele>748</ele>
        <time>2017-11-22T16:07:55Z</time>
      </trkpt>
      <trkpt lat="44.79001" lon="5.73">
        <ele>746</ele>
        <time>2017-11-22T16:08:07Z</time>
      </trkpt>
      <trkpt lat="44.79015" lon="5.72989">
        <ele>745</ele>
        <time>2017-11-22T16:08:20Z</time>
      </trkpt>
      <trkpt lat="44.79048" lon="5.72968">
        <ele>744</ele>
        <time>2017-11-22T16:08:33Z</time>
      </trkpt>
      <trkpt lat="44.79059" lon="5.72965">
        <ele>744</ele>
        <time>2017-11-22T16:08:36Z</time>
      </trkpt>
      <trkpt lat="44.79068" lon="5.72965">
        <ele>744</ele>
        <time>2017-11-22T16:08:43Z</time>
      </trkpt>
      <trkpt lat="44.79097" lon="5.7298">
        <ele>742</ele>
        <time>2017-11-22T16:08:55Z</time>
      </trkpt>
      <trkpt lat="44.79129" lon="5.7299">
        <ele>741</ele>
        <time>2017-11-22T16:09:06Z</time>
      </trkpt>
      <trkpt lat="44.79139" lon="5.72994">
        <ele>740</ele>
        <time>2017-11-22T16:09:10Z</time>
      </trkpt>
      <trkpt lat="44.79146" lon="5.73">
        <ele>741</ele>
        <time>2017-11-22T16:09:26Z</time>
      </trkpt>
      <trkpt lat="44.79156" lon="5.73017">
        <ele>741</ele>
        <time>2017-11-22T16:09:46Z</time>
      </trkpt>
      <trkpt lat="44.79168" lon="5.73039">
        <ele>743</ele>
        <time>2017-11-22T16:09:57Z</time>
      </trkpt>
      <trkpt lat="44.79176" lon="5.7305">
        <ele>743</ele>
        <time>2017-11-22T16:10:16Z</time>
      </trkpt>
      <trkpt lat="44.79184" lon="5.73057">
        <ele>744</ele>
        <time>2017-11-22T16:10:18Z</time>
      </trkpt>
      <trkpt lat="44.79195" lon="5.7306">
        <ele>744</ele>
        <time>2017-11-22T16:10:35Z</time>
      </trkpt>
      <trkpt lat="44.79204" lon="5.7306">
        <ele>745</ele>
        <time>2017-11-22T16:10:46Z</time>
      </trkpt>
      <trkpt lat="44.79212" lon="5.73058">
        <ele>745</ele>
        <time>2017-11-22T16:10:57Z</time>
      </trkpt>
      <trkpt lat="44.79221" lon="5.7305">
        <ele>745</ele>
        <time>2017-11-22T16:11:14Z</time>
      </trkpt>
      <trkpt lat="44.79248" lon="5.73012">
        <ele>743</ele>
        <time>2017-11-22T16:11:33Z</time>
      </trkpt>
      <trkpt lat="44.79267" lon="5.72989">
        <ele>746</ele>
        <time>2017-11-22T16:11:35Z</time>
      </trkpt>
      <trkpt lat="44.79287" lon="5.72971">
        <ele>748</ele>
        <time>2017-11-22T16:11:53Z</time>
      </trkpt>
      <trkpt lat="44.79293" lon="5.72963">
        <ele>749</ele>
        <time>2017-11-22T16:11:59Z</time>
      </trkpt>
      <trkpt lat="44.79299" lon="5.72952">
        <ele>749</ele>
        <time>2017-11-22T16:12:19Z</time>
      </trkpt>
      <trkpt lat="44.7934" lon="5.72866">
        <ele>750</ele>
        <time>2017-11-22T16:12:39Z</time>
      </trkpt>
      <trkpt lat="44.7936" lon="5.72835">
        <ele>749</ele>
        <time>2017-11-22T16:12:41Z</time>
      </trkpt>
      <trkpt lat="44.79368" lon="5.7283">
        <ele>743</ele>
        <time>2017-11-22T16:12:45Z</time>
      </trkpt>
      <trkpt lat="44.7938" lon="5.72828">
        <ele>744</ele>
        <time>2017-11-22T16:13:01Z</time>
      </trkpt>
      <trkpt lat="44.79405" lon="5.72827">
        <ele>748</ele>
        <time>2017-11-22T16:13:13Z</time>
      </trkpt>
      <trkpt lat="44.79421" lon="5.72822">
        <ele>749</ele>
        <time>2017-11-22T16:13:17Z</time>
      </trkpt>
      <trkpt lat="44.79442" lon="5.72809">
        <ele>747</ele>
        <time>2017-11-22T16:13:33Z</time>
      </trkpt>
      <trkpt lat="44.79461" lon="5.728">
        <ele>747</ele>
        <time>2017-11-22T16:13:43Z</time>
      </trkpt>
      <trkpt lat="44.79475" lon="5.72794">
        <ele>747</ele>
        <time>2017-11-22T16:14:03Z</time>
      </trkpt>
      <trkpt lat="44.79487" lon="5.72794">
        <ele>747</ele>
        <time>2017-11-22T16:14:17Z</time>
      </trkpt>
      <trkpt lat="44.795" lon="5.72798">
        <ele>748</ele>
        <time>2017-11-22T16:14:24Z</time>
      </trkpt>
      <trkpt lat="44.79509" lon="5.72806">
        <ele>749</ele>
        <time>2017-11-22T16:14:29Z</time>
      </trkpt>
      <trkpt lat="44.79518" lon="5.72816">
        <ele>749</ele>
        <time>2017-11-22T16:14:41Z</time>
      </trkpt>
      <trkpt lat="44.79554" lon="5.72877">
        <ele>752</ele>
        <time>2017-11-22T16:14:53Z</time>
      </trkpt>
      <trkpt lat="44.7958" lon="5.72916">
        <ele>751</ele>
        <time>2017-11-22T16:15:03Z</time>
      </trkpt>
      <trkpt lat="44.79587" lon="5.72923">
        <ele>751</ele>
        <time>2017-11-22T16:15:13Z</time>
      </trkpt>
      <trkpt lat="44.7959" lon="5.72933">
        <ele>751</ele>
        <time>2017-11-22T16:15:15Z</time>
      </trkpt>
      <trkpt lat="44.79594" lon="5.72948">
        <ele>752</ele>
        <time>2017-11-22T16:15:32Z</time>
      </trkpt>
      <trkpt lat="44.796" lon="5.7296">
        <ele>752</ele>
        <time>2017-11-22T16:15:34Z</time>
      </trkpt>
      <trkpt lat="44.79651" lon="5.73005">
        <ele>755</ele>
        <time>2017-11-22T16:15:49Z</time>
      </trkpt>
      <trkpt lat="44.79707" lon="5.73054">
        <ele>757</ele>
        <time>2017-11-22T16:15:55Z</time>
      </trkpt>
      <trkpt lat="44.79732" lon="5.7308">
        <ele>757</ele>
        <time>2017-11-22T16:16:06Z</time>
      </trkpt>
      <trkpt lat="44.79738" lon="5.73093">
        <ele>759</ele>
        <time>2017-11-22T16:16:20Z</time>
      </trkpt>
      <trkpt lat="44.79739" lon="5.73111">
        <ele>761</ele>
        <time>2017-11-22T16:16:31Z</time>
      </trkpt>
      <trkpt lat="44.7973" lon="5.73186">
        <ele>767</ele>
        <time>2017-11-22T16:16:44Z</time>
      </trkpt>
      <trkpt lat="44.79728" lon="5.73214">
        <ele>769</ele>
        <time>2017-11-22T16:16:52Z</time>
      </trkpt>
      <trkpt lat="44.79729" lon="5.7323">
        <ele>770</ele>
        <time>2017-11-22T16:17:11Z</time>
      </trkpt>
      <trkpt lat="44.79732" lon="5.73247">
        <ele>770</ele>
        <time>2017-11-22T16:17:31Z</time>
      </trkpt>
      <trkpt lat="44.79741" lon="5.73281">
        <ele>775</ele>
        <time>2017-11-22T16:17:43Z</time>
      </trkpt>
      <trkpt lat="44.79768" lon="5.73377">
        <ele>780</ele>
        <time>2017-11-22T16:18:01Z</time>
      </trkpt>
      <trkpt lat="44.79778" lon="5.73414">
        <ele>782</ele>
        <time>2017-11-22T16:18:05Z</time>
      </trkpt>
      <trkpt lat="44.79781" lon="5.73448">
        <ele>789</ele>
        <time>2017-11-22T16:18:24Z</time>
      </trkpt>
      <trkpt lat="44.79782" lon="5.73486">
        <ele>791</ele>
        <time>2017-11-22T16:18:38Z</time>
      </trkpt>
      <trkpt lat="44.79786" lon="5.73496">
        <ele>791</ele>
        <time>2017-11-22T16:18:41Z</time>
      </trkpt>
      <trkpt lat="44.79792" lon="5.735">
        <ele>798</ele>
        <time>2017-11-22T16:18:59Z</time>
      </trkpt>
      <trkpt lat="44.79799" lon="5.735">
        <ele>798</ele>
        <time>2017-11-22T16:19:19Z</time>
      </trkpt>
      <trkpt lat="44.79808" lon="5.73496">
        <ele>792</ele>
        <time>2017-11-22T16:19:24Z</time>
      </trkpt>
      <trkpt lat="44.79834" lon="5.73471">
        <ele>793</ele>
        <time>2017-11-22T16:19:34Z</time>
      </trkpt>
      <trkpt lat="44.79865" lon="5.73452">
        <ele>793</ele>
        <time>2017-11-22T16:19:46Z</time>
      </trkpt>
      <trkpt lat="44.7988" lon="5.73446">
        <ele>794</ele>
        <time>2017-11-22T16:20:04Z</time>
      </trkpt>
      <trkpt lat="44.79939" lon="5.73436">
        <ele>802</ele>
        <time>2017-11-22T16:20:09Z</time>
      </trkpt>
      <trkpt lat="44.79968" lon="5.7342">
        <ele>805</ele>
        <time>2017-11-22T16:20:23Z</time>
      </trkpt>
      <trkpt lat="44.80002" lon="5.73399">
        <ele>806</ele>
        <time>2017-11-22T16:20:40Z</time>
      </trkpt>
      <trkpt lat="44.80025" lon="5.7339">
        <ele>805</ele>
        <time>2017-11-22T16:20:53Z</time>
      </trkpt>
      <trkpt lat="44.80041" lon="5.73388">
        <ele>805</ele>
        <time>2017-11-22T16:20:59Z</time>
      </trkpt>
      <trkpt lat="44.80056" lon="5.73391">
        <ele>805</ele>
        <time>2017-11-22T16:21:13Z</time>
      </trkpt>
      <trkpt lat="44.80069" lon="5.73394">
        <ele>806</ele>
        <time>2017-11-22T16:21:31Z</time>
      </trkpt>
      <trkpt lat="44.80106" lon="5.73416">
        <ele>806</ele>
        <time>2017-11-22T16:21:36Z</time>
      </trkpt>
      <trkpt lat="44.80196" lon="5.7347">
        <ele>810</ele>
        <time>2017-11-22T16:21:48Z</time>
      </trkpt>
      <trkpt lat="44.80275" lon="5.73521">
        <ele>806</ele>
        <time>2017-11-22T16:21:51Z</time>
      </trkpt>
      <trkpt lat="44.80294" lon="5.73531">
        <ele>805</ele>
        <time>2017-11-22T16:22:11Z</time>
      </trkpt>
      <trkpt lat="44.80313" lon="5.73533">
        <ele>804</ele>
        <time>2017-11-22T16:22:16Z</time>
      </trkpt>
      <trkpt lat="44.80335" lon="5.7352">
        <ele>799</ele>
        <time>2017-11-22T16:22:30Z</time>
      </trkpt>
      <trkpt lat="44.8037" lon="5.73487">
        <ele>800</ele>
        <time>2017-11-22T16:22:41Z</time>
      </trkpt>
      <trkpt lat="44.80411" lon="5.73449">
        <ele>801</ele>
        <time>2017-11-22T16:22:55Z</time>
      </trkpt>
      <trkpt lat="44.80453" lon="5.73414">
        <ele>796</ele>
        <time>2017-11-22T16:23:01Z</time>
      </trkpt>
      <trkpt lat="44.80477" lon="5.73395">
        <ele>793</ele>
        <time>2017-11-22T16:23:12Z</time>
      </trkpt>
      <trkpt lat="44.8049" lon="5.73372">
        <ele>793</ele>
        <time>2017-11-22T16:23:19Z</time>
      </trkpt>
      <trkpt lat="44.80495" lon="5.73364">
        <ele>792</ele>
        <time>2017-11-22T16:23:29Z</time>
      </trkpt>
      <trkpt lat="44.805" lon="5.73366">
        <ele>792</ele>
        <time>2017-11-22T16:23:43Z</time>
      </trkpt>
      <trkpt lat="44.80502" lon="5.73371">
        <ele>781</ele>
        <time>2017-11-22T16:23:49Z</time>
      </trkpt>
      <trkpt lat="44.80502" lon="5.73382">
        <ele>781</ele>
        <time>2017-11-22T16:24:00Z</time>
      </trkpt>
      <trkpt lat="44.80486" lon="5.7343">
        <ele>788</ele>
        <time>2017-11-22T16:24:10Z</time>
      </trkpt>
      <trkpt lat="44.80444" lon="5.73585">
        <ele>781</ele>
        <time>2017-11-22T16:24:16Z</time>
      </trkpt>
      <trkpt lat="44.80388" lon="5.73762">
        <ele>780</ele>
        <time>2017-11-22T16:24:28Z</time>
      </trkpt>
      <trkpt lat="44.80361" lon="5.73815">
        <ele>779</ele>
        <time>2017-11-22T16:24:32Z</time>
      </trkpt>
      <trkpt lat="44.80326" lon="5.73881">
        <ele>779</ele>
        <time>2017-11-22T16:24:45Z</time>
      </trkpt>
      <trkpt lat="44.80324" lon="5.73895">
        <ele>778</ele>
        <time>2017-11-22T16:24:49Z</time>
      </trkpt>
      <trkpt lat="44.80327" lon="5.73904">
        <ele>776</ele>
        <time>2017-11-22T16:25:09Z</time>
      </trkpt>
      <trkpt lat="44.80334" lon="5.73911">
        <ele>770</ele>
        <time>2017-11-22T16:25:11Z</time>
      </trkpt>
      <trkpt lat="44.80345" lon="5.73912">
        <ele>769</ele>
        <time>2017-11-22T16:25:27Z</time>
      </trkpt>
      <trkpt lat="44.80415" lon="5.73876">
        <ele>766</ele>
        <time>2017-11-22T16:25:36Z</time>
      </trkpt>
      <trkpt lat="44.80427" lon="5.7387">
        <ele>760</ele>
        <time>2017-11-22T16:25:39Z</time>
      </trkpt>
      <trkpt lat="44.80436" lon="5.7387">
        <ele>760</ele>
        <time>2017-11-22T16:25:55Z</time>
      </trkpt>
      <trkpt lat="44.80442" lon="5.73874">
        <ele>759</ele>
        <time>2017-11-22T16:26:00Z</time>
      </trkpt>
      <trkpt lat="44.80445" lon="5.73882">
        <ele>759</ele>
        <time>2017-11-22T16:26:08Z</time>
      </trkpt>
      <trkpt lat="44.80443" lon="5.73897">
        <ele>758</ele>
        <time>2017-11-22T16:26:15Z</time>
      </trkpt>
      <trkpt lat="44.80425" lon="5.73908">
        <ele>757</ele>
        <time>2017-11-22T16:26:28Z</time>
      </trkpt>
      <trkpt lat="44.8041" lon="5.73917">
        <ele>757</ele>
        <time>2017-11-22T16:26:45Z</time>
      </trkpt>
      <trkpt lat="44.80399" lon="5.73927">
        <ele>759</ele>
        <time>2017-11-22T16:26:54Z</time>
      </trkpt>
      <trkpt lat="44.80382" lon="5.73955">
        <ele>760</ele>
        <time>2017-11-22T16:27:11Z</time>
      </trkpt>
      <trkpt lat="44.80371" lon="5.73976">
        <ele>760</ele>
        <time>2017-11-22T16:27:21Z</time>
      </trkpt>
      <trkpt lat="44.80368" lon="5.73997">
        <ele>760</ele>
        <time>2017-11-22T16:27:23Z</time>
      </trkpt>
      <trkpt lat="44.80368" lon="5.74017">
        <ele>754</ele>
        <time>2017-11-22T16:27:41Z</time>
      </trkpt>
      <trkpt lat="44.80374" lon="5.74039">
        <ele>753</ele>
        <time>2017-11-22T16:28:01Z</time>
      </trkpt>
      <trkpt lat="44.80381" lon="5.74055">
        <ele>751</ele>
        <time>2017-11-22T16:28:07Z</time>
      </trkpt>
      <trkpt lat="44.80391" lon="5.74063">
        <ele>750</ele>
        <time>2017-11-22T16:28:17Z</time>
      </trkpt>
      <trkpt lat="44.804" lon="5.74069">
        <ele>749</ele>
        <time>2017-11-22T16:28:20Z</time>
      </trkpt>
      <trkpt lat="44.80409" lon="5.74071">
        <ele>748</ele>
        <time>2017-11-22T16:28:31Z</time>
      </trkpt>
      <trkpt lat="44.80421" lon="5.74072">
        <ele>744</ele>
        <time>2017-11-22T16:28:45Z</time>
      </trkpt>
      <trkpt lat="44.80432" lon="5.74069">
        <ele>744</ele>
        <time>2017-11-22T16:29:04Z</time>
      </trkpt>
      <trkpt lat="44.80464" lon="5.74038">
        <ele>744</ele>
        <time>2017-11-22T16:29:07Z</time>
      </trkpt>
      <trkpt lat="44.80514" lon="5.73978">
        <ele>743</ele>
        <time>2017-11-22T16:29:20Z</time>
      </trkpt>
      <trkpt lat="44.80522" lon="5.73975">
        <ele>742</ele>
        <time>2017-11-22T16:29:22Z</time>
      </trkpt>
      <trkpt lat="44.80529" lon="5.73977">
        <ele>742</ele>
        <time>2017-11-22T16:29:36Z</time>
      </trkpt>
      <trkpt lat="44.80533" lon="5.73983">
        <ele>741</ele>
        <time>2017-11-22T16:29:49Z</time>
      </trkpt>
      <trkpt lat="44.80536" lon="5.73995">
        <ele>741</ele>
        <time>2017-11-22T16:29:53Z</time>
      </trkpt>
      <trkpt lat="44.80534" lon="5.74003">
        <ele>737</ele>
        <time>2017-11-22T16:30:13Z</time>
      </trkpt>
      <trkpt lat="44.80525" lon="5.74018">
        <ele>738</ele>
        <time>2017-11-22T16:30:16Z</time>
      </trkpt>
      <trkpt lat="44.80488" lon="5.74067">
        <ele>741</ele>
        <time>2017-11-22T16:30:27Z</time>
      </trkpt>
      <trkpt lat="44.80484" lon="5.74073">
        <ele>741</ele>
        <time>2017-11-22T16:30:31Z</time>
      </trkpt>
      <trkpt lat="44.80481" lon="5.74083">
        <ele>741</ele>
        <time>2017-11-22T16:30:45Z</time>
      </trkpt>
      <trkpt lat="44.80481" lon="5.74093">
        <ele>737</ele>
        <time>2017-11-22T16:30:53Z</time>
      </trkpt>
      <trkpt lat="44.80484" lon="5.741">
        <ele>737</ele>
        <time>2017-11-22T16:31:01Z</time>
      </trkpt>
      <trkpt lat="44.80494" lon="5.74107">
        <ele>737</ele>
        <time>2017-11-22T16:31:14Z</time>
      </trkpt>
      <trkpt lat="44.80537" lon="5.74115">
        <ele>734</ele>
        <time>2017-11-22T16:31:32Z</time>
      </trkpt>
      <trkpt lat="44.80588" lon="5.74125">
        <ele>739</ele>
        <time>2017-11-22T16:31:52Z</time>
      </trkpt>
      <trkpt lat="44.806" lon="5.74125">
        <ele>739</ele>
        <time>2017-11-22T16:32:06Z</time>
      </trkpt>
      <trkpt lat="44.80605" lon="5.74124">
        <ele>740</ele>
        <time>2017-11-22T16:32:16Z</time>
      </trkpt>
      <trkpt lat="44.80609" lon="5.74119">
        <ele>740</ele>
        <time>2017-11-22T16:32:33Z</time>
      </trkpt>
      <trkpt lat="44.80615" lon="5.74104">
        <ele>739</ele>
        <time>2017-11-22T16:32:45Z</time>
      </trkpt>
      <trkpt lat="44.80623" lon="5.74086">
        <ele>739</ele>
        <time>2017-11-22T16:32:52Z</time>
      </trkpt>
      <trkpt lat="44.80636" lon="5.74071">
        <ele>734</ele>
        <time>2017-11-22T16:32:57Z</time>
      </trkpt>
      <trkpt lat="44.8066" lon="5.74057">
        <ele>735</ele>
        <time>2017-11-22T16:33:12Z</time>
      </trkpt>
      <trkpt lat="44.80727" lon="5.74011">
        <ele>737</ele>
        <time>2017-11-22T16:33:19Z</time>
      </trkpt>
      <trkpt lat="44.80766" lon="5.73986">
        <ele>733</ele>
        <time>2017-11-22T16:33:26Z</time>
      </trkpt>
      <trkpt lat="44.80778" lon="5.73984">
        <ele>733</ele>
        <time>2017-11-22T16:33:39Z</time>
      </trkpt>
      <trkpt lat="44.80805" lon="5.73986">
        <ele>735</ele>
        <time>2017-11-22T16:33:44Z</time>
      </trkpt>
      <trkpt lat="44.80836" lon="5.73992">
        <ele>741</ele>
        <time>2017-11-22T16:34:03Z</time>
      </trkpt>
      <trkpt lat="44.80903" lon="5.74001">
        <ele>748</ele>
        <time>2017-11-22T16:34:10Z</time>
      </trkpt>
      <trkpt lat="44.80919" lon="5.74003">
        <ele>747</ele>
        <time>2017-11-22T16:34:12Z</time>
      </trkpt>
      <trkpt lat="44.80932" lon="5.74002">
        <ele>751</ele>
        <time>2017-11-22T16:34:21Z</time>
      </trkpt>
      <trkpt lat="44.80943" lon="5.73998">
        <ele>748</ele>
        <time>2017-11-22T16:34:38Z</time>
      </trkpt>
      <trkpt lat="44.8095" lon="5.73991">
        <ele>748</ele>
        <time>2017-11-22T16:34:46Z</time>
      </trkpt>
      <trkpt lat="44.80957" lon="5.73973">
        <ele>749</ele>
        <time>2017-11-22T16:34:52Z</time>
      </trkpt>
      <trkpt lat="44.80961" lon="5.73918">
        <ele>748</ele>
        <time>2017-11-22T16:35:04Z</time>
      </trkpt>
      <trkpt lat="44.80965" lon="5.73896">
        <ele>745</ele>
        <time>2017-11-22T16:35:06Z</time>
      </trkpt>
      <trkpt lat="44.8097" lon="5.73887">
        <ele>746</ele>
        <time>2017-11-22T16:35:14Z</time>
      </trkpt>
      <trkpt lat="44.80979" lon="5.73885">
        <ele>746</ele>
        <time>2017-11-22T16:35:20Z</time>
      </trkpt>
      <trkpt lat="44.80991" lon="5.73891">
        <ele>748</ele>
        <time>2017-11-22T16:35:30Z</time>
      </trkpt>
      <trkpt lat="44.80996" lon="5.73899">
        <ele>749</ele>
        <time>2017-11-22T16:35:46Z</time>
      </trkpt>
      <trkpt lat="44.80999" lon="5.73913">
        <ele>752</ele>
        <time>2017-11-22T16:35:56Z</time>
      </trkpt>
      <trkpt lat="44.81003" lon="5.74001">
        <ele>757</ele>
        <time>2017-11-22T16:36:09Z</time>
      </trkpt>
      <trkpt lat="44.81002" lon="5.74026">
        <ele>759</ele>
        <time>2017-11-22T16:36:17Z</time>
      </trkpt>
      <trkpt lat="44.80998" lon="5.74044">
        <ele>757</ele>
        <time>2017-11-22T16:36:20Z</time>
      </trkpt>
      <trkpt lat="44.8099" lon="5.74068">
        <ele>759</ele>
        <time>2017-11-22T16:36:28Z</time>
      </trkpt>
      <trkpt lat="44.80989" lon="5.74082">
        <ele>760</ele>
        <time>2017-11-22T16:36:36Z</time>
      </trkpt>
      <trkpt lat="44.80992" lon="5.74091">
        <ele>763</ele>
        <time>2017-11-22T16:36:41Z</time>
      </trkpt>
      <trkpt lat="44.80998" lon="5.741">
        <ele>763</ele>
        <time>2017-11-22T16:36:46Z</time>
      </trkpt>
      <trkpt lat="44.8101" lon="5.74106">
        <ele>763</ele>
        <time>2017-11-22T16:36:56Z</time>
      </trkpt>
      <trkpt lat="44.81034" lon="5.74112">
        <ele>763</ele>
        <time>2017-11-22T16:36:58Z</time>
      </trkpt>
      <trkpt lat="44.8105" lon="5.74118">
        <ele>763</ele>
        <time>2017-11-22T16:37:17Z</time>
      </trkpt>
      <trkpt lat="44.81083" lon="5.74132">
        <ele>763</ele>
        <time>2017-11-22T16:37:29Z</time>
      </trkpt>
      <trkpt lat="44.81102" lon="5.74143">
        <ele>759</ele>
        <time>2017-11-22T16:37:45Z</time>
      </trkpt>
      <trkpt lat="44.81114" lon="5.7416">
        <ele>759</ele>
        <time>2017-11-22T16:38:01Z</time>
      </trkpt>
      <trkpt lat="44.81122" lon="5.7418">
        <ele>758</ele>
        <time>2017-11-22T16:38:11Z</time>
      </trkpt>
      <trkpt lat="44.81139" lon="5.74251">
        <ele>757</ele>
        <time>2017-11-22T16:38:15Z</time>
      </trkpt>
      <trkpt lat="44.81144" lon="5.74262">
        <ele>757</ele>
        <time>2017-11-22T16:38:31Z</time>
      </trkpt>
      <trkpt lat="44.81149" lon="5.74267">
        <ele>757</ele>
        <time>2017-11-22T16:38:35Z</time>
      </trkpt>
      <trkpt lat="44.8116" lon="5.74268">
        <ele>757</ele>
        <time>2017-11-22T16:38:48Z</time>
      </trkpt>
      <trkpt lat="44.81166" lon="5.7426">
        <ele>756</ele>
        <time>2017-11-22T16:38:59Z</time>
      </trkpt>
      <trkpt lat="44.81174" lon="5.74228">
        <ele>753</ele>
        <time>2017-11-22T16:39:17Z</time>
      </trkpt>
      <trkpt lat="44.81189" lon="5.74166">
        <ele>751</ele>
        <time>2017-11-22T16:39:35Z</time>
      </trkpt>
      <trkpt lat="44.81197" lon="5.7415">
        <ele>750</ele>
        <time>2017-11-22T16:39:49Z</time>
      </trkpt>
      <trkpt lat="44.81215" lon="5.74136">
        <ele>749</ele>
        <time>2017-11-22T16:40:08Z</time>
      </trkpt>
      <trkpt lat="44.81229" lon="5.74135">
        <ele>748</ele>
        <time>2017-11-22T16:40:20Z</time>
      </trkpt>
      <trkpt lat="44.81244" lon="5.74143">
        <ele>748</ele>
        <time>2017-11-22T16:40:25Z</time>
      </trkpt>
      <trkpt lat="44.81254" lon="5.74156">
        <ele>745</ele>
        <time>2017-11-22T16:40:28Z</time>
      </trkpt>
      <trkpt lat="44.81265" lon="5.74179">
        <ele>746</ele>
        <time>2017-11-22T16:40:31Z</time>
      </trkpt>
      <trkpt lat="44.81273" lon="5.74207">
        <ele>746</ele>
        <time>2017-11-22T16:40:42Z</time>
      </trkpt>
      <trkpt lat="44.81284" lon="5.74242">
        <ele>746</ele>
        <time>2017-11-22T16:40:45Z</time>
      </trkpt>
      <trkpt lat="44.81292" lon="5.74246">
        <ele>746</ele>
        <time>2017-11-22T16:40:47Z</time>
      </trkpt>
      <trkpt lat="44.81297" lon="5.74244">
        <ele>746</ele>
        <time>2017-11-22T16:40:53Z</time>
      </trkpt>
      <trkpt lat="44.81302" lon="5.74253">
        <ele>748</ele>
        <time>2017-11-22T16:41:06Z</time>
      </trkpt>
      <trkpt lat="44.81307" lon="5.74261">
        <ele>748</ele>
        <time>2017-11-22T16:41:26Z</time>
      </trkpt>
      <trkpt lat="44.81329" lon="5.74283">
        <ele>748</ele>
        <time>2017-11-22T16:41:46Z</time>
      </trkpt>
      <trkpt lat="44.81363" lon="5.74307">
        <ele>749</ele>
        <time>2017-11-22T16:41:58Z</time>
      </trkpt>
      <trkpt lat="44.81493" lon="5.74387">
        <ele>754</ele>
        <time>2017-11-22T16:42:14Z</time>
      </trkpt>
      <trkpt lat="44.81592" lon="5.74443">
        <ele>757</ele>
        <time>2017-11-22T16:42:34Z</time>
      </trkpt>
      <trkpt lat="44.81617" lon="5.74461">
        <ele>758</ele>
        <time>2017-11-22T16:42:54Z</time>
      </trkpt>
      <trkpt lat="44.81628" lon="5.74475">
        <ele>758</ele>
        <time>2017-11-22T16:43:02Z</time>
      </trkpt>
      <trkpt lat="44.81635" lon="5.74488">
        <ele>758</ele>
        <time>2017-11-22T16:43:15Z</time>
      </trkpt>
      <trkpt lat="44.81641" lon="5.74498">
        <ele>758</ele>
        <time>2017-11-22T16:43:29Z</time>
      </trkpt>
      <trkpt lat="44.81642" lon="5.74529">
        <ele>762</ele>
        <time>2017-11-22T16:43:48Z</time>
      </trkpt>
      <trkpt lat="44.81651" lon="5.74633">
        <ele>765</ele>
        <time>2017-11-22T16:44:04Z</time>
      </trkpt>
      <trkpt lat="44.81661" lon="5.74745">
        <ele>768</ele>
        <time>2017-11-22T16:44:11Z</time>
      </trkpt>
      <trkpt lat="44.81667" lon="5.74798">
        <ele>767</ele>
        <time>2017-11-22T16:44:19Z</time>
      </trkpt>
      <trkpt lat="44.81676" lon="5.74924">
        <ele>773</ele>
        <time>2017-11-22T16:44:28Z</time>
      </trkpt>
      <trkpt lat="44.81684" lon="5.75015">
        <ele>777</ele>
        <time>2017-11-22T16:44:35Z</time>
      </trkpt>
      <trkpt lat="44.81687" lon="5.75038">
        <ele>777</ele>
        <time>2017-11-22T16:44:46Z</time>
      </trkpt>
      <trkpt lat="44.81697" lon="5.75061">
        <ele>778</ele>
        <time>2017-11-22T16:44:50Z</time>
      </trkpt>
      <trkpt lat="44.81701" lon="5.75075">
        <ele>778</ele>
        <time>2017-11-22T16:45:07Z</time>
      </trkpt>
    </trkseg>
  </trk>
</gpx>